Time,TemperatureF,DewpointF,PressureIn,WindDirection,WindDirectionDegrees,WindSpeedMPH,WindSpeedGustMPH,Humidity,HourlyPrecipIn,Conditions,Clouds,dailyrainin,SoftwareType,DateUTC
2013-01-05 00:00:00,21.3,4.7,30.41,SSE,162,0.0,0.0,48,0.00,,SKC,0.00,VWS V14.01,2013-01-05 07:00:00,
2013-01-05 00:01:00,21.3,4.2,30.41,SSE,165,0.0,0.0,47,0.00,,SKC,0.00,VWS V14.01,2013-01-05 07:01:00,
2013-01-05 00:02:00,21.2,4.1,30.41,SSE,166,0.0,0.0,47,0.00,,SKC,0.00,VWS V14.01,2013-01-05 07:02:00,
2013-01-05 00:03:00,21.2,4.1,30.41,SSE,166,0.0,0.0,47,0.00,,SKC,0.00,VWS V14.01,2013-01-05 07:03:00,
2013-01-05 00:04:00,21.1,4.0,30.41,SSE,167,0.0,0.0,47,0.00,,SKC,0.00,VWS V14.01,2013-01-05 07:04:00,
2013-01-05 00:05:00,21.1,4.0,30.41,SSE,165,0.0,0.0,47,0.00,,SKC,0.00,VWS V14.01,2013-01-05 07:05:00,
2013-01-05 00:06:00,21.0,3.9,30.41,SSE,166,0.0,0.0,47,0.00,,SKC,0.00,VWS V14.01,2013-01-05 07:06:00,
2013-01-05 00:07:00,20.9,3.8,30.41,SSE,167,0.0,0.0,47,0.00,,SKC,0.00,VWS V14.01,2013-01-05 07:07:00,
2013-01-05 00:08:00,20.8,3.8,30.41,SSE,165,0.0,0.0,47,0.00,,SKC,0.00,VWS V14.01,2013-01-05 07:08:00,
2013-01-05 00:09:00,20.8,4.2,30.41,SSE,167,0.0,0.0,48,0.00,,SKC,0.00,VWS V14.01,2013-01-05 07:09:00,
2013-01-05 00:10:00,20.8,4.2,30.41,SSE,165,0.0,0.0,48,0.00,,SKC,0.00,VWS V14.01,2013-01-05 07:10:00,
2013-01-05 00:11:00,20.7,4.1,30.41,SSE,163,0.0,0.0,48,0.00,,SKC,0.00,VWS V14.01,2013-01-05 07:11:00,
2013-01-05 00:12:00,20.7,4.1,30.41,SSE,163,0.0,0.0,48,0.00,,SKC,0.00,VWS V14.01,2013-01-05 07:12:00,
2013-01-05 00:13:00,20.7,4.1,30.41,SSE,160,0.0,0.0,48,0.00,,SKC,0.00,VWS V14.01,2013-01-05 07:13:00,
2013-01-05 00:14:00,20.7,4.1,30.41,SSE,165,0.0,0.0,48,0.00,,SKC,0.00,VWS V14.01,2013-01-05 07:14:00,
2013-01-05 00:15:00,20.7,4.1,30.41,SSE,166,0.0,0.0,48,0.00,,SKC,0.00,VWS V14.01,2013-01-05 07:15:00,
2013-01-05 00:16:00,20.7,4.1,30.41,SSE,161,0.0,0.0,48,0.00,,SKC,0.00,VWS V14.01,2013-01-05 07:16:00,
2013-01-05 00:17:00,20.7,4.1,30.41,SSE,162,0.0,1.0,48,0.00,,SKC,0.00,VWS V14.01,2013-01-05 07:17:00,
2013-01-05 00:18:00,20.7,4.6,30.41,SSE,159,0.0,0.0,49,0.00,,SKC,0.00,VWS V14.01,2013-01-05 07:18:00,
2013-01-05 00:19:00,20.7,4.6,30.41,SSE,164,0.0,0.0,49,0.00,,SKC,0.00,VWS V14.01,2013-01-05 07:19:00,
2013-01-05 00:20:00,20.6,4.5,30.41,SSE,167,0.0,0.0,49,0.00,,SKC,0.00,VWS V14.01,2013-01-05 07:20:00,
2013-01-05 00:21:00,20.6,4.5,30.41,SSE,164,0.0,0.0,49,0.00,,SKC,0.00,VWS V14.01,2013-01-05 07:21:00,
2013-01-05 00:22:00,20.6,4.5,30.41,SSE,163,0.0,1.0,49,0.00,,SKC,0.00,VWS V14.01,2013-01-05 07:22:00,
2013-01-05 00:23:00,20.6,4.5,30.41,South,169,0.0,0.0,49,0.00,,SKC,0.00,VWS V14.01,2013-01-05 07:23:00,
2013-01-05 00:24:00,20.6,4.5,30.40,SSE,165,0.0,0.0,49,0.00,,SKC,0.00,VWS V14.01,2013-01-05 07:24:00,
2013-01-05 00:25:00,20.6,4.5,30.40,SSE,165,0.0,0.0,49,0.00,,SKC,0.00,VWS V14.01,2013-01-05 07:25:00,
2013-01-05 00:26:00,20.7,4.6,30.40,North,360,0.0,0.0,49,0.00,,SKC,0.00,VWS V14.01,2013-01-05 07:26:00,
2013-01-05 00:27:00,20.7,4.6,30.40,SSE,163,1.0,1.0,49,0.00,,SKC,0.00,VWS V14.01,2013-01-05 07:27:00,
2013-01-05 00:28:00,20.7,4.6,30.40,SSE,165,5.0,5.0,49,0.00,,SKC,0.00,VWS V14.01,2013-01-05 07:28:00,
2013-01-05 00:29:00,20.7,4.6,30.40,SSE,161,0.0,5.0,49,0.00,,SKC,0.00,VWS V14.01,2013-01-05 07:29:00,
2013-01-05 00:30:00,20.7,4.6,30.40,SSE,165,0.0,0.0,49,0.00,,SKC,0.00,VWS V14.01,2013-01-05 07:30:00,
2013-01-05 00:31:00,20.7,4.6,30.40,SSE,162,0.0,0.0,49,0.00,,SKC,0.00,VWS V14.01,2013-01-05 07:31:00,
2013-01-05 00:32:00,20.8,4.7,30.40,SSE,163,1.0,2.0,49,0.00,,SKC,0.00,VWS V14.01,2013-01-05 07:32:00,
2013-01-05 00:33:00,20.8,4.2,30.40,SSE,163,3.0,3.0,48,0.00,,SKC,0.00,VWS V14.01,2013-01-05 07:33:00,
2013-01-05 00:34:00,20.8,4.2,30.40,SSE,164,1.0,3.0,48,0.00,,SKC,0.00,VWS V14.01,2013-01-05 07:34:00,
2013-01-05 00:35:00,20.9,3.8,30.40,SSE,165,0.0,2.0,47,0.00,,SKC,0.00,VWS V14.01,2013-01-05 07:35:00,
2013-01-05 00:36:00,20.9,4.3,30.40,SSE,162,0.0,0.0,48,0.00,,SKC,0.00,VWS V14.01,2013-01-05 07:36:00,
2013-01-05 00:37:00,20.9,4.3,30.40,SSE,159,0.0,0.0,48,0.00,,SKC,0.00,VWS V14.01,2013-01-05 07:37:00,
2013-01-05 00:38:00,20.8,4.2,30.40,South,169,3.0,4.0,48,0.00,,SKC,0.00,VWS V14.01,2013-01-05 07:38:00,
2013-01-05 00:39:00,20.8,4.7,30.40,South,175,4.0,5.0,49,0.00,,SKC,0.00,VWS V14.01,2013-01-05 07:39:00,
2013-01-05 00:40:00,20.7,4.6,30.40,South,173,4.0,5.0,49,0.00,,SKC,0.00,VWS V14.01,2013-01-05 07:40:00,
2013-01-05 00:41:00,20.7,4.6,30.40,South,174,3.0,5.0,49,0.00,,SKC,0.00,VWS V14.01,2013-01-05 07:41:00,
2013-01-05 00:42:00,20.6,4.5,30.40,South,180,1.0,4.0,49,0.00,,SKC,0.00,VWS V14.01,2013-01-05 07:42:00,
2013-01-05 00:43:00,20.6,4.5,30.40,South,176,0.0,2.0,49,0.00,,SKC,0.00,VWS V14.01,2013-01-05 07:43:00,
2013-01-05 00:44:00,20.6,4.5,30.40,South,175,2.0,2.0,49,0.00,,SKC,0.00,VWS V14.01,2013-01-05 07:44:00,
2013-01-05 00:45:00,20.7,4.6,30.39,South,178,2.0,3.0,49,0.00,,SKC,0.00,VWS V14.01,2013-01-05 07:45:00,
2013-01-05 00:46:00,20.8,3.8,30.39,South,175,1.0,2.0,47,0.00,,SKC,0.00,VWS V14.01,2013-01-05 07:46:00,
2013-01-05 00:47:00,20.9,3.8,30.39,South,171,0.0,1.0,47,0.00,,SKC,0.00,VWS V14.01,2013-01-05 07:47:00,
2013-01-05 00:48:00,21.0,3.9,30.39,South,174,0.0,1.0,47,0.00,,SKC,0.00,VWS V14.01,2013-01-05 07:48:00,
2013-01-05 00:49:00,21.1,4.0,30.39,South,169,0.0,0.0,47,0.00,,SKC,0.00,VWS V14.01,2013-01-05 07:49:00,
2013-01-05 00:50:00,21.3,4.2,30.39,South,175,0.0,1.0,47,0.00,,SKC,0.00,VWS V14.01,2013-01-05 07:50:00,
2013-01-05 00:51:00,21.3,4.7,30.39,South,175,0.0,0.0,48,0.00,,SKC,0.00,VWS V14.01,2013-01-05 07:51:00,
2013-01-05 00:52:00,21.5,4.9,30.39,South,179,0.0,1.0,48,0.00,,SKC,0.00,VWS V14.01,2013-01-05 07:52:00,
2013-01-05 00:53:00,21.6,4.0,30.39,South,178,0.0,0.0,46,0.00,,SKC,0.00,VWS V14.01,2013-01-05 07:53:00,
2013-01-05 00:54:00,21.6,4.0,30.39,South,178,1.0,1.0,46,0.00,,SKC,0.00,VWS V14.01,2013-01-05 07:54:00,
2013-01-05 00:55:00,21.7,4.1,30.39,South,180,0.0,2.0,46,0.00,,SKC,0.00,VWS V14.01,2013-01-05 07:55:00,
2013-01-05 00:56:00,21.7,4.1,30.39,South,172,1.0,1.0,46,0.00,,SKC,0.00,VWS V14.01,2013-01-05 07:56:00,
2013-01-05 00:57:00,21.7,4.1,30.39,South,182,0.0,1.0,46,0.00,,SKC,0.00,VWS V14.01,2013-01-05 07:57:00,
2013-01-05 00:58:00,21.8,4.2,30.39,South,176,0.0,0.0,46,0.00,,SKC,0.00,VWS V14.01,2013-01-05 07:58:00,
2013-01-05 00:59:00,21.8,4.2,30.39,South,174,0.0,0.0,46,0.00,,SKC,0.00,VWS V14.01,2013-01-05 07:59:00,
2013-01-05 01:00:00,21.9,4.3,30.39,South,175,0.0,0.0,46,0.00,,SKC,0.00,VWS V14.01,2013-01-05 08:00:00,
2013-01-05 01:01:00,22.0,4.4,30.39,South,172,0.0,0.0,46,0.00,,SKC,0.00,VWS V14.01,2013-01-05 08:01:00,
2013-01-05 01:02:00,22.1,4.5,30.39,South,172,0.0,0.0,46,0.00,,SKC,0.00,VWS V14.01,2013-01-05 08:02:00,
2013-01-05 01:03:00,22.1,4.0,30.39,South,173,0.0,0.0,45,0.00,,SKC,0.00,VWS V14.01,2013-01-05 08:03:00,
2013-01-05 01:04:00,22.2,3.6,30.39,South,173,0.0,0.0,44,0.00,,SKC,0.00,VWS V14.01,2013-01-05 08:04:00,
2013-01-05 01:05:00,22.2,3.6,30.39,South,173,0.0,0.0,44,0.00,,SKC,0.00,VWS V14.01,2013-01-05 08:05:00,
2013-01-05 01:06:00,22.2,3.6,30.39,South,175,0.0,0.0,44,0.00,,SKC,0.00,VWS V14.01,2013-01-05 08:06:00,
2013-01-05 01:07:00,22.3,3.2,30.39,South,171,1.0,2.0,43,0.00,,SKC,0.00,VWS V14.01,2013-01-05 08:07:00,
2013-01-05 01:08:00,22.3,3.2,30.39,South,172,0.0,1.0,43,0.00,,SKC,0.00,VWS V14.01,2013-01-05 08:08:00,
2013-01-05 01:09:00,22.4,3.3,30.39,South,175,0.0,0.0,43,0.00,,SKC,0.00,VWS V14.01,2013-01-05 08:09:00,
2013-01-05 01:10:00,22.4,3.3,30.39,South,182,0.0,0.0,43,0.00,,SKC,0.00,VWS V14.01,2013-01-05 08:10:00,
2013-01-05 01:11:00,22.5,3.4,30.39,South,178,0.0,1.0,43,0.00,,SKC,0.00,VWS V14.01,2013-01-05 08:11:00,
2013-01-05 01:12:00,22.5,3.4,30.39,South,172,0.0,0.0,43,0.00,,SKC,0.00,VWS V14.01,2013-01-05 08:12:00,
2013-01-05 01:13:00,22.6,3.5,30.39,South,176,0.0,0.0,43,0.00,,SKC,0.00,VWS V14.01,2013-01-05 08:13:00,
2013-01-05 01:14:00,22.7,3.1,30.39,South,171,0.0,0.0,42,0.00,,SKC,0.00,VWS V14.01,2013-01-05 08:14:00,
2013-01-05 01:15:00,22.7,3.1,30.39,South,176,0.0,0.0,42,0.00,,SKC,0.00,VWS V14.01,2013-01-05 08:15:00,
2013-01-05 01:16:00,22.8,3.2,30.39,South,173,0.0,0.0,42,0.00,,SKC,0.00,VWS V14.01,2013-01-05 08:16:00,
2013-01-05 01:17:00,22.9,3.2,30.39,South,177,0.0,0.0,42,0.00,,SKC,0.00,VWS V14.01,2013-01-05 08:17:00,
2013-01-05 01:18:00,22.9,3.2,30.39,South,176,0.0,0.0,42,0.00,,SKC,0.00,VWS V14.01,2013-01-05 08:18:00,
2013-01-05 01:19:00,23.0,2.8,30.39,South,176,1.0,1.0,41,0.00,,SKC,0.00,VWS V14.01,2013-01-05 08:19:00,
2013-01-05 01:20:00,23.0,2.8,30.39,South,181,0.0,1.0,41,0.00,,SKC,0.00,VWS V14.01,2013-01-05 08:20:00,
2013-01-05 01:21:00,23.0,2.8,30.39,South,175,0.0,0.0,41,0.00,,SKC,0.00,VWS V14.01,2013-01-05 08:21:00,
2013-01-05 01:22:00,23.1,2.9,30.39,South,176,1.0,1.0,41,0.00,,SKC,0.00,VWS V14.01,2013-01-05 08:22:00,
2013-01-05 01:23:00,23.1,2.9,30.39,South,174,0.0,1.0,41,0.00,,SKC,0.00,VWS V14.01,2013-01-05 08:23:00,
2013-01-05 01:24:00,23.1,2.9,30.39,SSE,167,0.0,0.0,41,0.00,,SKC,0.00,VWS V14.01,2013-01-05 08:24:00,
2013-01-05 01:25:00,23.1,3.4,30.39,North,360,0.0,0.0,42,0.00,,SKC,0.00,VWS V14.01,2013-01-05 08:25:00,
2013-01-05 01:26:00,23.1,3.9,30.39,South,169,0.0,0.0,43,0.00,,SKC,0.00,VWS V14.01,2013-01-05 08:26:00,
2013-01-05 01:27:00,23.0,3.8,30.39,South,171,0.0,0.0,43,0.00,,SKC,0.00,VWS V14.01,2013-01-05 08:27:00,
2013-01-05 01:28:00,23.0,3.3,30.39,South,179,1.0,1.0,42,0.00,,SKC,0.00,VWS V14.01,2013-01-05 08:28:00,
2013-01-05 01:29:00,23.0,3.8,30.39,South,172,0.0,2.0,43,0.00,,SKC,0.00,VWS V14.01,2013-01-05 08:29:00,
2013-01-05 01:30:00,23.0,3.3,30.39,North,360,0.0,0.0,42,0.00,,SKC,0.00,VWS V14.01,2013-01-05 08:30:00,
2013-01-05 01:31:00,23.0,3.3,30.39,South,173,0.0,0.0,42,0.00,,SKC,0.00,VWS V14.01,2013-01-05 08:31:00,
2013-01-05 01:32:00,23.0,2.8,30.39,South,173,0.0,1.0,41,0.00,,SKC,0.00,VWS V14.01,2013-01-05 08:32:00,
2013-01-05 01:33:00,23.0,2.8,30.39,South,172,0.0,2.0,41,0.00,,SKC,0.00,VWS V14.01,2013-01-05 08:33:00,
2013-01-05 01:34:00,23.0,2.3,30.39,South,178,1.0,1.0,40,0.00,,SKC,0.00,VWS V14.01,2013-01-05 08:34:00,
2013-01-05 01:35:00,23.1,2.4,30.39,South,175,3.0,4.0,40,0.00,,SKC,0.00,VWS V14.01,2013-01-05 08:35:00,
2013-01-05 01:36:00,23.1,2.4,30.39,South,178,1.0,3.0,40,0.00,,SKC,0.00,VWS V14.01,2013-01-05 08:36:00,
2013-01-05 01:37:00,23.1,2.4,30.39,South,171,0.0,2.0,40,0.00,,SKC,0.00,VWS V14.01,2013-01-05 08:37:00,
2013-01-05 01:38:00,23.1,2.4,30.39,North,360,1.0,1.0,40,0.00,,SKC,0.00,VWS V14.01,2013-01-05 08:38:00,
2013-01-05 01:39:00,23.2,2.5,30.39,South,175,0.0,1.0,40,0.00,,SKC,0.00,VWS V14.01,2013-01-05 08:39:00,
2013-01-05 01:40:00,23.3,2.0,30.39,South,173,0.0,1.0,39,0.00,,SKC,0.00,VWS V14.01,2013-01-05 08:40:00,
2013-01-05 01:41:00,23.3,2.0,30.39,South,173,0.0,1.0,39,0.00,,SKC,0.00,VWS V14.01,2013-01-05 08:41:00,
2013-01-05 01:42:00,23.4,2.1,30.39,South,176,0.0,2.0,39,0.00,,SKC,0.00,VWS V14.01,2013-01-05 08:42:00,
2013-01-05 01:43:00,23.5,2.2,30.39,South,177,0.0,1.0,39,0.00,,SKC,0.00,VWS V14.01,2013-01-05 08:43:00,
2013-01-05 01:44:00,23.6,2.3,30.39,South,175,0.0,0.0,39,0.00,,SKC,0.00,VWS V14.01,2013-01-05 08:44:00,
2013-01-05 01:45:00,23.6,1.7,30.39,South,173,0.0,1.0,38,0.00,,SKC,0.00,VWS V14.01,2013-01-05 08:45:00,
2013-01-05 01:46:00,23.7,1.8,30.39,South,175,0.0,1.0,38,0.00,,SKC,0.00,VWS V14.01,2013-01-05 08:46:00,
2013-01-05 01:47:00,23.8,1.9,30.39,South,171,0.0,0.0,38,0.00,,SKC,0.00,VWS V14.01,2013-01-05 08:47:00,
2013-01-05 01:48:00,23.9,2.0,30.39,South,176,0.0,1.0,38,0.00,,SKC,0.00,VWS V14.01,2013-01-05 08:48:00,
2013-01-05 01:49:00,23.9,2.0,30.39,South,175,0.0,1.0,38,0.00,,SKC,0.00,VWS V14.01,2013-01-05 08:49:00,
2013-01-05 01:50:00,23.9,2.0,30.39,North,360,0.0,0.0,38,0.00,,SKC,0.00,VWS V14.01,2013-01-05 08:50:00,
2013-01-05 01:51:00,23.9,2.0,30.40,South,177,0.0,0.0,38,0.00,,SKC,0.00,VWS V14.01,2013-01-05 08:51:00,
2013-01-05 01:52:00,23.9,2.6,30.40,South,175,0.0,0.0,39,0.00,,SKC,0.00,VWS V14.01,2013-01-05 08:52:00,
2013-01-05 01:53:00,23.9,3.1,30.40,South,179,0.0,0.0,40,0.00,,SKC,0.00,VWS V14.01,2013-01-05 08:53:00,
2013-01-05 01:54:00,23.8,3.0,30.40,South,170,0.0,0.0,40,0.00,,SKC,0.00,VWS V14.01,2013-01-05 08:54:00,
2013-01-05 01:55:00,23.7,2.9,30.40,South,177,0.0,0.0,40,0.00,,SKC,0.00,VWS V14.01,2013-01-05 08:55:00,
2013-01-05 01:56:00,23.6,2.8,30.40,South,174,0.0,0.0,40,0.00,,SKC,0.00,VWS V14.01,2013-01-05 08:56:00,
2013-01-05 01:57:00,23.6,2.8,30.40,South,175,0.0,0.0,40,0.00,,SKC,0.00,VWS V14.01,2013-01-05 08:57:00,
2013-01-05 01:58:00,23.5,2.2,30.40,South,179,0.0,0.0,39,0.00,,SKC,0.00,VWS V14.01,2013-01-05 08:58:00,
2013-01-05 01:59:00,23.4,2.1,30.40,South,173,0.0,0.0,39,0.00,,SKC,0.00,VWS V14.01,2013-01-05 08:59:00,
2013-01-05 02:00:00,23.3,2.0,30.40,South,173,0.0,0.0,39,0.00,,SKC,0.00,VWS V14.01,2013-01-05 09:00:00,
2013-01-05 02:01:00,23.2,1.9,30.40,South,178,0.0,0.0,39,0.00,,SKC,0.00,VWS V14.01,2013-01-05 09:01:00,
2013-01-05 02:02:00,23.1,2.4,30.40,South,179,0.0,0.0,40,0.00,,SKC,0.00,VWS V14.01,2013-01-05 09:02:00,
2013-01-05 02:03:00,23.1,2.4,30.40,South,174,0.0,0.0,40,0.00,,SKC,0.00,VWS V14.01,2013-01-05 09:03:00,
2013-01-05 02:04:00,23.0,2.3,30.40,South,176,0.0,0.0,40,0.00,,SKC,0.00,VWS V14.01,2013-01-05 09:04:00,
2013-01-05 02:05:00,22.9,2.2,30.40,South,180,0.0,0.0,40,0.00,,SKC,0.00,VWS V14.01,2013-01-05 09:05:00,
2013-01-05 02:06:00,22.9,1.7,30.39,South,173,0.0,0.0,39,0.00,,SKC,0.00,VWS V14.01,2013-01-05 09:06:00,
2013-01-05 02:07:00,22.9,1.7,30.39,South,175,0.0,0.0,39,0.00,,SKC,0.00,VWS V14.01,2013-01-05 09:07:00,
2013-01-05 02:08:00,22.8,1.6,30.40,South,178,0.0,0.0,39,0.00,,SKC,0.00,VWS V14.01,2013-01-05 09:08:00,
2013-01-05 02:09:00,22.8,1.6,30.40,South,169,0.0,0.0,39,0.00,,SKC,0.00,VWS V14.01,2013-01-05 09:09:00,
2013-01-05 02:10:00,22.7,2.0,30.40,South,170,0.0,0.0,40,0.00,,SKC,0.00,VWS V14.01,2013-01-05 09:10:00,
2013-01-05 02:11:00,22.7,2.0,30.41,North,360,0.0,0.0,40,0.00,,SKC,0.00,VWS V14.01,2013-01-05 09:11:00,
2013-01-05 02:12:00,22.6,1.9,30.40,South,171,0.0,0.0,40,0.00,,SKC,0.00,VWS V14.01,2013-01-05 09:12:00,
2013-01-05 02:13:00,22.5,1.8,30.40,South,178,0.0,0.0,40,0.00,,SKC,0.00,VWS V14.01,2013-01-05 09:13:00,
2013-01-05 02:14:00,22.5,1.8,30.40,South,177,0.0,0.0,40,0.00,,SKC,0.00,VWS V14.01,2013-01-05 09:14:00,
2013-01-05 02:15:00,22.4,1.8,30.40,South,176,0.0,1.0,40,0.00,,SKC,0.00,VWS V14.01,2013-01-05 09:15:00,
2013-01-05 02:16:00,22.4,1.8,30.40,South,178,0.0,0.0,40,0.00,,SKC,0.00,VWS V14.01,2013-01-05 09:16:00,
2013-01-05 02:17:00,22.4,1.8,30.40,South,173,0.0,0.0,40,0.00,,SKC,0.00,VWS V14.01,2013-01-05 09:17:00,
2013-01-05 02:18:00,22.4,1.2,30.41,South,178,0.0,0.0,39,0.00,,SKC,0.00,VWS V14.01,2013-01-05 09:18:00,
2013-01-05 02:19:00,22.4,1.2,30.41,South,173,0.0,1.0,39,0.00,,SKC,0.00,VWS V14.01,2013-01-05 09:19:00,
2013-01-05 02:20:00,22.4,1.2,30.41,South,178,0.0,0.0,39,0.00,,SKC,0.00,VWS V14.01,2013-01-05 09:20:00,
2013-01-05 02:21:00,22.4,1.2,30.41,South,174,0.0,1.0,39,0.00,,SKC,0.00,VWS V14.01,2013-01-05 09:21:00,
2013-01-05 02:22:00,22.4,1.2,30.41,South,175,0.0,0.0,39,0.00,,SKC,0.00,VWS V14.01,2013-01-05 09:22:00,
2013-01-05 02:23:00,22.5,1.3,30.41,South,173,0.0,0.0,39,0.00,,SKC,0.00,VWS V14.01,2013-01-05 09:23:00,
2013-01-05 02:24:00,22.5,1.3,30.41,South,175,0.0,0.0,39,0.00,,SKC,0.00,VWS V14.01,2013-01-05 09:24:00,
2013-01-05 02:25:00,22.5,1.3,30.41,South,173,0.0,0.0,39,0.00,,SKC,0.00,VWS V14.01,2013-01-05 09:25:00,
2013-01-05 02:26:00,22.5,1.3,30.41,South,176,0.0,0.0,39,0.00,,SKC,0.00,VWS V14.01,2013-01-05 09:26:00,
2013-01-05 02:27:00,22.6,1.4,30.41,South,180,0.0,0.0,39,0.00,,SKC,0.00,VWS V14.01,2013-01-05 09:27:00,
2013-01-05 02:28:00,22.6,1.4,30.41,South,173,0.0,0.0,39,0.00,,SKC,0.00,VWS V14.01,2013-01-05 09:28:00,
2013-01-05 02:29:00,22.6,0.8,30.41,South,169,0.0,0.0,38,0.00,,SKC,0.00,VWS V14.01,2013-01-05 09:29:00,
2013-01-05 02:30:00,22.7,0.9,30.41,South,176,0.0,0.0,38,0.00,,SKC,0.00,VWS V14.01,2013-01-05 09:30:00,
2013-01-05 02:31:00,22.7,0.9,30.41,South,178,3.0,3.0,38,0.00,,SKC,0.00,VWS V14.01,2013-01-05 09:31:00,
2013-01-05 02:32:00,22.7,0.9,30.41,South,175,2.0,4.0,38,0.00,,SKC,0.00,VWS V14.01,2013-01-05 09:32:00,
2013-01-05 02:33:00,22.8,1.0,30.41,South,176,5.0,5.0,38,0.00,,SKC,0.00,VWS V14.01,2013-01-05 09:33:00,
2013-01-05 02:34:00,22.8,1.0,30.41,South,176,4.0,5.0,38,0.00,,SKC,0.00,VWS V14.01,2013-01-05 09:34:00,
2013-01-05 02:35:00,22.8,1.0,30.41,South,175,1.0,5.0,38,0.00,,SKC,0.00,VWS V14.01,2013-01-05 09:35:00,
2013-01-05 02:36:00,22.8,1.0,30.41,South,173,0.0,2.0,38,0.00,,SKC,0.00,VWS V14.01,2013-01-05 09:36:00,
2013-01-05 02:37:00,22.8,1.0,30.41,South,174,1.0,1.0,38,0.00,,SKC,0.00,VWS V14.01,2013-01-05 09:37:00,
2013-01-05 02:38:00,22.9,1.1,30.41,South,174,0.0,3.0,38,0.00,,SKC,0.00,VWS V14.01,2013-01-05 09:38:00,
2013-01-05 02:39:00,23.0,0.6,30.41,South,178,1.0,3.0,37,0.00,,SKC,0.00,VWS V14.01,2013-01-05 09:39:00,
2013-01-05 02:40:00,23.0,0.6,30.41,South,175,0.0,1.0,37,0.00,,SKC,0.00,VWS V14.01,2013-01-05 09:40:00,
2013-01-05 02:41:00,23.1,0.7,30.41,South,171,0.0,0.0,37,0.00,,SKC,0.00,VWS V14.01,2013-01-05 09:41:00,
2013-01-05 02:42:00,23.2,0.2,30.41,South,172,0.0,0.0,36,0.00,,SKC,0.00,VWS V14.01,2013-01-05 09:42:00,
2013-01-05 02:43:00,23.4,0.4,30.41,South,175,0.0,0.0,36,0.00,,SKC,0.00,VWS V14.01,2013-01-05 09:43:00,
2013-01-05 02:44:00,23.4,0.4,30.41,South,170,0.0,0.0,36,0.00,,SKC,0.00,VWS V14.01,2013-01-05 09:44:00,
2013-01-05 02:45:00,23.5,0.5,30.41,South,178,0.0,0.0,36,0.00,,SKC,0.00,VWS V14.01,2013-01-05 09:45:00,
2013-01-05 02:46:00,23.5,0.5,30.41,South,170,0.0,0.0,36,0.00,,SKC,0.00,VWS V14.01,2013-01-05 09:46:00,
2013-01-05 02:47:00,23.5,1.1,30.41,South,173,0.0,0.0,37,0.00,,SKC,0.00,VWS V14.01,2013-01-05 09:47:00,
2013-01-05 02:48:00,23.5,1.1,30.41,South,174,0.0,0.0,37,0.00,,SKC,0.00,VWS V14.01,2013-01-05 09:48:00,
2013-01-05 02:49:00,23.5,1.1,30.41,South,175,0.0,0.0,37,0.00,,SKC,0.00,VWS V14.01,2013-01-05 09:49:00,
2013-01-05 02:50:00,23.4,1.0,30.41,South,173,0.0,0.0,37,0.00,,SKC,0.00,VWS V14.01,2013-01-05 09:50:00,
2013-01-05 02:51:00,23.4,1.5,30.41,South,180,0.0,0.0,38,0.00,,SKC,0.00,VWS V14.01,2013-01-05 09:51:00,
2013-01-05 02:52:00,23.3,1.5,30.41,South,172,0.0,0.0,38,0.00,,SKC,0.00,VWS V14.01,2013-01-05 09:52:00,
2013-01-05 02:53:00,23.2,1.4,30.41,South,174,0.0,0.0,38,0.00,,SKC,0.00,VWS V14.01,2013-01-05 09:53:00,
2013-01-05 02:54:00,23.1,1.3,30.41,South,178,0.0,0.0,38,0.00,,SKC,0.00,VWS V14.01,2013-01-05 09:54:00,
2013-01-05 02:55:00,23.0,1.2,30.41,South,169,0.0,0.0,38,0.00,,SKC,0.00,VWS V14.01,2013-01-05 09:55:00,
2013-01-05 02:56:00,23.0,1.2,30.41,South,171,0.0,0.0,38,0.00,,SKC,0.00,VWS V14.01,2013-01-05 09:56:00,
2013-01-05 02:57:00,22.9,1.1,30.41,South,177,0.0,0.0,38,0.00,,SKC,0.00,VWS V14.01,2013-01-05 09:57:00,
2013-01-05 02:58:00,22.8,1.0,30.41,South,171,0.0,0.0,38,0.00,,SKC,0.00,VWS V14.01,2013-01-05 09:58:00,
2013-01-05 02:59:00,22.7,0.9,30.41,South,176,1.0,3.0,38,0.00,,SKC,0.00,VWS V14.01,2013-01-05 09:59:00,
2013-01-05 03:00:00,22.5,0.7,30.41,South,173,0.0,3.0,38,0.00,,SKC,0.00,VWS V14.01,2013-01-05 10:00:00,
2013-01-05 03:01:00,22.5,0.7,30.41,South,171,0.0,0.0,38,0.00,,SKC,0.00,VWS V14.01,2013-01-05 10:01:00,
2013-01-05 03:02:00,22.4,0.6,30.41,South,173,0.0,0.0,38,0.00,,SKC,0.00,VWS V14.01,2013-01-05 10:02:00,
2013-01-05 03:03:00,22.4,0.6,30.41,South,176,0.0,0.0,38,0.00,,SKC,0.00,VWS V14.01,2013-01-05 10:03:00,
2013-01-05 03:04:00,22.4,1.2,30.41,South,169,0.0,0.0,39,0.00,,SKC,0.00,VWS V14.01,2013-01-05 10:04:00,
2013-01-05 03:05:00,22.3,1.7,30.41,South,172,0.0,0.0,40,0.00,,SKC,0.00,VWS V14.01,2013-01-05 10:05:00,
2013-01-05 03:06:00,22.2,1.0,30.41,South,177,0.0,0.0,39,0.00,,SKC,0.00,VWS V14.01,2013-01-05 10:06:00,
2013-01-05 03:07:00,22.2,1.0,30.41,South,175,0.0,1.0,39,0.00,,SKC,0.00,VWS V14.01,2013-01-05 10:07:00,
2013-01-05 03:08:00,22.2,0.5,30.41,South,172,1.0,1.0,38,0.00,,SKC,0.00,VWS V14.01,2013-01-05 10:08:00,
2013-01-05 03:09:00,22.2,0.5,30.41,South,180,2.0,2.0,38,0.00,,SKC,0.00,VWS V14.01,2013-01-05 10:09:00,
2013-01-05 03:10:00,22.2,0.5,30.41,South,173,0.0,2.0,38,0.00,,SKC,0.00,VWS V14.01,2013-01-05 10:10:00,
2013-01-05 03:11:00,22.2,1.0,30.41,South,173,1.0,1.0,39,0.00,,SKC,0.00,VWS V14.01,2013-01-05 10:11:00,
2013-01-05 03:12:00,22.2,1.0,30.41,South,172,0.0,2.0,39,0.00,,SKC,0.00,VWS V14.01,2013-01-05 10:12:00,
2013-01-05 03:13:00,22.2,1.0,30.41,South,173,0.0,0.0,39,0.00,,SKC,0.00,VWS V14.01,2013-01-05 10:13:00,
2013-01-05 03:14:00,22.1,0.9,30.41,South,171,0.0,1.0,39,0.00,,SKC,0.00,VWS V14.01,2013-01-05 10:14:00,
2013-01-05 03:15:00,22.1,0.9,30.41,South,172,0.0,0.0,39,0.00,,SKC,0.00,VWS V14.01,2013-01-05 10:15:00,
2013-01-05 03:16:00,22.0,1.4,30.41,South,173,0.0,0.0,40,0.00,,SKC,0.00,VWS V14.01,2013-01-05 10:16:00,
2013-01-05 03:17:00,22.0,1.4,30.41,South,173,0.0,0.0,40,0.00,,SKC,0.00,VWS V14.01,2013-01-05 10:17:00,
2013-01-05 03:18:00,21.9,0.8,30.41,South,177,0.0,0.0,39,0.00,,SKC,0.00,VWS V14.01,2013-01-05 10:18:00,
2013-01-05 03:19:00,21.8,0.7,30.41,South,176,0.0,0.0,39,0.00,,SKC,0.00,VWS V14.01,2013-01-05 10:19:00,
2013-01-05 03:20:00,21.7,0.6,30.41,South,175,0.0,0.0,39,0.00,,SKC,0.00,VWS V14.01,2013-01-05 10:20:00,
2013-01-05 03:21:00,21.6,0.5,30.41,South,175,0.0,0.0,39,0.00,,SKC,0.00,VWS V14.01,2013-01-05 10:21:00,
2013-01-05 03:22:00,21.5,0.9,30.42,South,176,0.0,0.0,40,0.00,,SKC,0.00,VWS V14.01,2013-01-05 10:22:00,
2013-01-05 03:23:00,21.5,0.9,30.42,South,177,0.0,0.0,40,0.00,,SKC,0.00,VWS V14.01,2013-01-05 10:23:00,
2013-01-05 03:24:00,21.4,0.8,30.42,South,177,0.0,0.0,40,0.00,,SKC,0.00,VWS V14.01,2013-01-05 10:24:00,
2013-01-05 03:25:00,21.3,0.8,30.42,South,175,0.0,0.0,40,0.00,,SKC,0.00,VWS V14.01,2013-01-05 10:25:00,
2013-01-05 03:26:00,21.3,0.8,30.42,South,177,0.0,0.0,40,0.00,,SKC,0.00,VWS V14.01,2013-01-05 10:26:00,
2013-01-05 03:27:00,21.3,0.8,30.42,South,175,0.0,0.0,40,0.00,,SKC,0.00,VWS V14.01,2013-01-05 10:27:00,
2013-01-05 03:28:00,21.3,0.8,30.42,South,176,0.0,0.0,40,0.00,,SKC,0.00,VWS V14.01,2013-01-05 10:28:00,
2013-01-05 03:29:00,21.3,0.8,30.42,South,171,0.0,0.0,40,0.00,,SKC,0.00,VWS V14.01,2013-01-05 10:29:00,
2013-01-05 03:30:00,21.3,0.8,30.42,South,173,0.0,0.0,40,0.00,,SKC,0.00,VWS V14.01,2013-01-05 10:30:00,
2013-01-05 03:31:00,21.3,0.8,30.42,South,173,0.0,0.0,40,0.00,,SKC,0.00,VWS V14.01,2013-01-05 10:31:00,
2013-01-05 03:32:00,21.3,0.8,30.42,South,171,0.0,0.0,40,0.00,,SKC,0.00,VWS V14.01,2013-01-05 10:32:00,
2013-01-05 03:33:00,21.3,0.8,30.42,South,173,0.0,0.0,40,0.00,,SKC,0.00,VWS V14.01,2013-01-05 10:33:00,
2013-01-05 03:34:00,21.3,0.8,30.42,South,180,0.0,0.0,40,0.00,,SKC,0.00,VWS V14.01,2013-01-05 10:34:00,
2013-01-05 03:35:00,21.3,0.8,30.42,South,175,0.0,0.0,40,0.00,,SKC,0.00,VWS V14.01,2013-01-05 10:35:00,
2013-01-05 03:36:00,21.2,0.7,30.42,South,176,0.0,0.0,40,0.00,,SKC,0.00,VWS V14.01,2013-01-05 10:36:00,
2013-01-05 03:37:00,21.2,0.7,30.42,South,170,0.0,0.0,40,0.00,,SKC,0.00,VWS V14.01,2013-01-05 10:37:00,
2013-01-05 03:38:00,21.1,1.1,30.42,South,177,0.0,0.0,41,0.00,,SKC,0.00,VWS V14.01,2013-01-05 10:38:00,
2013-01-05 03:39:00,21.0,1.0,30.42,South,171,0.0,0.0,41,0.00,,SKC,0.00,VWS V14.01,2013-01-05 10:39:00,
2013-01-05 03:40:00,20.9,1.4,30.42,South,176,0.0,0.0,42,0.00,,SKC,0.00,VWS V14.01,2013-01-05 10:40:00,
2013-01-05 03:41:00,20.8,1.3,30.42,South,175,1.0,1.0,42,0.00,,SKC,0.00,VWS V14.01,2013-01-05 10:41:00,
2013-01-05 03:42:00,20.8,1.3,30.42,South,178,0.0,1.0,42,0.00,,SKC,0.00,VWS V14.01,2013-01-05 10:42:00,
2013-01-05 03:43:00,20.8,0.8,30.42,South,179,1.0,2.0,41,0.00,,SKC,0.00,VWS V14.01,2013-01-05 10:43:00,
2013-01-05 03:44:00,20.8,0.8,30.42,South,174,0.0,2.0,41,0.00,,SKC,0.00,VWS V14.01,2013-01-05 10:44:00,
2013-01-05 03:45:00,20.8,0.8,30.42,South,175,0.0,0.0,41,0.00,,SKC,0.00,VWS V14.01,2013-01-05 10:45:00,
2013-01-05 03:46:00,20.8,0.8,30.42,South,174,0.0,0.0,41,0.00,,SKC,0.00,VWS V14.01,2013-01-05 10:46:00,
2013-01-05 03:47:00,20.9,0.9,30.42,South,174,0.0,0.0,41,0.00,,SKC,0.00,VWS V14.01,2013-01-05 10:47:00,
2013-01-05 03:48:00,20.9,0.9,30.42,South,178,0.0,0.0,41,0.00,,SKC,0.00,VWS V14.01,2013-01-05 10:48:00,
2013-01-05 03:49:00,20.9,1.4,30.42,South,174,0.0,0.0,42,0.00,,SKC,0.00,VWS V14.01,2013-01-05 10:49:00,
2013-01-05 03:50:00,20.9,1.4,30.42,South,178,0.0,1.0,42,0.00,,SKC,0.00,VWS V14.01,2013-01-05 10:50:00,
2013-01-05 03:51:00,20.9,0.9,30.42,South,179,0.0,1.0,41,0.00,,SKC,0.00,VWS V14.01,2013-01-05 10:51:00,
2013-01-05 03:52:00,20.9,0.9,30.42,South,171,0.0,1.0,41,0.00,,SKC,0.00,VWS V14.01,2013-01-05 10:52:00,
2013-01-05 03:53:00,21.1,1.6,30.42,South,175,0.0,0.0,42,0.00,,SKC,0.00,VWS V14.01,2013-01-05 10:53:00,
2013-01-05 03:54:00,21.2,1.2,30.43,South,172,0.0,0.0,41,0.00,,SKC,0.00,VWS V14.01,2013-01-05 10:54:00,
2013-01-05 03:55:00,21.2,1.2,30.43,South,171,0.0,0.0,41,0.00,,SKC,0.00,VWS V14.01,2013-01-05 10:55:00,
2013-01-05 03:56:00,21.3,1.3,30.43,North,360,0.0,0.0,41,0.00,,SKC,0.00,VWS V14.01,2013-01-05 10:56:00,
2013-01-05 03:57:00,21.4,1.4,30.43,South,173,0.0,0.0,41,0.00,,SKC,0.00,VWS V14.01,2013-01-05 10:57:00,
2013-01-05 03:58:00,21.4,1.4,30.43,South,178,0.0,0.0,41,0.00,,SKC,0.00,VWS V14.01,2013-01-05 10:58:00,
2013-01-05 03:59:00,21.4,1.4,30.43,South,169,0.0,0.0,41,0.00,,SKC,0.00,VWS V14.01,2013-01-05 10:59:00,
2013-01-05 04:00:00,21.3,1.3,30.43,South,174,0.0,0.0,41,0.00,,SKC,0.00,VWS V14.01,2013-01-05 11:00:00,
2013-01-05 04:01:00,21.3,1.8,30.42,South,180,0.0,0.0,42,0.00,,SKC,0.00,VWS V14.01,2013-01-05 11:01:00,
2013-01-05 04:02:00,21.3,1.8,30.43,South,175,0.0,0.0,42,0.00,,SKC,0.00,VWS V14.01,2013-01-05 11:02:00,
2013-01-05 04:03:00,21.2,1.7,30.43,South,174,0.0,0.0,42,0.00,,SKC,0.00,VWS V14.01,2013-01-05 11:03:00,
2013-01-05 04:04:00,21.1,1.6,30.43,South,173,0.0,0.0,42,0.00,,SKC,0.00,VWS V14.01,2013-01-05 11:04:00,
2013-01-05 04:05:00,21.1,1.6,30.43,South,176,0.0,0.0,42,0.00,,SKC,0.00,VWS V14.01,2013-01-05 11:05:00,
2013-01-05 04:06:00,21.0,1.5,30.43,South,176,0.0,0.0,42,0.00,,SKC,0.00,VWS V14.01,2013-01-05 11:06:00,
2013-01-05 04:07:00,21.0,1.0,30.42,South,177,0.0,0.0,41,0.00,,SKC,0.00,VWS V14.01,2013-01-05 11:07:00,
2013-01-05 04:08:00,21.0,1.0,30.43,South,179,0.0,0.0,41,0.00,,SKC,0.00,VWS V14.01,2013-01-05 11:08:00,
2013-01-05 04:09:00,21.1,1.1,30.43,South,176,0.0,1.0,41,0.00,,SKC,0.00,VWS V14.01,2013-01-05 11:09:00,
2013-01-05 04:10:00,21.1,1.6,30.43,South,178,0.0,0.0,42,0.00,,SKC,0.00,VWS V14.01,2013-01-05 11:10:00,
2013-01-05 04:11:00,21.1,1.6,30.42,South,176,0.0,1.0,42,0.00,,SKC,0.00,VWS V14.01,2013-01-05 11:11:00,
2013-01-05 04:12:00,21.1,1.6,30.43,South,172,0.0,0.0,42,0.00,,SKC,0.00,VWS V14.01,2013-01-05 11:12:00,
2013-01-05 04:13:00,21.1,1.6,30.43,South,178,0.0,0.0,42,0.00,,SKC,0.00,VWS V14.01,2013-01-05 11:13:00,
2013-01-05 04:14:00,21.1,2.1,30.43,South,171,0.0,0.0,43,0.00,,SKC,0.00,VWS V14.01,2013-01-05 11:14:00,
2013-01-05 04:15:00,21.0,1.5,30.43,South,175,0.0,0.0,42,0.00,,SKC,0.00,VWS V14.01,2013-01-05 11:15:00,
2013-01-05 04:16:00,21.0,2.0,30.43,South,173,0.0,0.0,43,0.00,,SKC,0.00,VWS V14.01,2013-01-05 11:16:00,
2013-01-05 04:17:00,20.9,1.4,30.43,South,174,0.0,1.0,42,0.00,,SKC,0.00,VWS V14.01,2013-01-05 11:17:00,
2013-01-05 04:18:00,20.9,1.4,30.43,South,178,0.0,0.0,42,0.00,,SKC,0.00,VWS V14.01,2013-01-05 11:18:00,
2013-01-05 04:19:00,20.9,1.4,30.43,South,173,0.0,1.0,42,0.00,,SKC,0.00,VWS V14.01,2013-01-05 11:19:00,
2013-01-05 04:20:00,20.8,1.8,30.42,South,174,0.0,0.0,43,0.00,,SKC,0.00,VWS V14.01,2013-01-05 11:20:00,
2013-01-05 04:21:00,20.8,1.3,30.42,South,181,0.0,0.0,42,0.00,,SKC,0.00,VWS V14.01,2013-01-05 11:21:00,
2013-01-05 04:22:00,20.8,1.3,30.43,North,360,0.0,0.0,42,0.00,,SKC,0.00,VWS V14.01,2013-01-05 11:22:00,
2013-01-05 04:23:00,20.9,1.4,30.42,South,178,0.0,0.0,42,0.00,,SKC,0.00,VWS V14.01,2013-01-05 11:23:00,
2013-01-05 04:24:00,21.0,2.0,30.42,South,177,0.0,0.0,43,0.00,,SKC,0.00,VWS V14.01,2013-01-05 11:24:00,
2013-01-05 04:25:00,21.0,1.5,30.42,North,360,0.0,0.0,42,0.00,,SKC,0.00,VWS V14.01,2013-01-05 11:25:00,
2013-01-05 04:26:00,21.1,2.1,30.43,South,175,0.0,0.0,43,0.00,,SKC,0.00,VWS V14.01,2013-01-05 11:26:00,
2013-01-05 04:27:00,21.1,2.1,30.43,South,175,0.0,0.0,43,0.00,,SKC,0.00,VWS V14.01,2013-01-05 11:27:00,
2013-01-05 04:28:00,21.2,2.2,30.42,South,173,0.0,2.0,43,0.00,,SKC,0.00,VWS V14.01,2013-01-05 11:28:00,
2013-01-05 04:29:00,21.2,2.2,30.43,South,177,0.0,0.0,43,0.00,,SKC,0.00,VWS V14.01,2013-01-05 11:29:00,
2013-01-05 04:30:00,21.3,1.8,30.43,South,174,0.0,0.0,42,0.00,,SKC,0.00,VWS V14.01,2013-01-05 11:30:00,
2013-01-05 04:31:00,21.3,1.8,30.43,South,175,0.0,0.0,42,0.00,,SKC,0.00,VWS V14.01,2013-01-05 11:31:00,
2013-01-05 04:32:00,21.4,1.9,30.43,South,177,0.0,0.0,42,0.00,,SKC,0.00,VWS V14.01,2013-01-05 11:32:00,
2013-01-05 04:33:00,21.4,1.9,30.43,South,175,0.0,0.0,42,0.00,,SKC,0.00,VWS V14.01,2013-01-05 11:33:00,
2013-01-05 04:34:00,21.4,1.9,30.43,South,169,2.0,2.0,42,0.00,,SKC,0.00,VWS V14.01,2013-01-05 11:34:00,
2013-01-05 04:35:00,21.3,1.8,30.43,South,170,0.0,2.0,42,0.00,,SKC,0.00,VWS V14.01,2013-01-05 11:35:00,
2013-01-05 04:36:00,21.3,1.8,30.43,South,171,0.0,1.0,42,0.00,,SKC,0.00,VWS V14.01,2013-01-05 11:36:00,
2013-01-05 04:37:00,21.3,1.3,30.44,South,177,0.0,0.0,41,0.00,,SKC,0.00,VWS V14.01,2013-01-05 11:37:00,
2013-01-05 04:38:00,21.3,1.8,30.44,South,175,0.0,0.0,42,0.00,,SKC,0.00,VWS V14.01,2013-01-05 11:38:00,
2013-01-05 04:39:00,21.4,1.9,30.44,South,177,0.0,0.0,42,0.00,,SKC,0.00,VWS V14.01,2013-01-05 11:39:00,
2013-01-05 04:40:00,21.5,2.0,30.44,SSE,167,0.0,0.0,42,0.00,,SKC,0.00,VWS V14.01,2013-01-05 11:40:00,
2013-01-05 04:41:00,21.6,2.1,30.44,South,178,2.0,2.0,42,0.00,,SKC,0.00,VWS V14.01,2013-01-05 11:41:00,
2013-01-05 04:42:00,21.7,2.2,30.44,South,176,3.0,3.0,42,0.00,,SKC,0.00,VWS V14.01,2013-01-05 11:42:00,
2013-01-05 04:43:00,21.9,1.8,30.44,South,178,1.0,3.0,41,0.00,,SKC,0.00,VWS V14.01,2013-01-05 11:43:00,
2013-01-05 04:44:00,22.2,2.1,30.44,South,171,1.0,1.0,41,0.00,,SKC,0.00,VWS V14.01,2013-01-05 11:44:00,
2013-01-05 04:45:00,22.5,1.8,30.44,South,174,0.0,1.0,40,0.00,,SKC,0.00,VWS V14.01,2013-01-05 11:45:00,
2013-01-05 04:46:00,22.7,2.0,30.44,South,178,0.0,0.0,40,0.00,,SKC,0.00,VWS V14.01,2013-01-05 11:46:00,
2013-01-05 04:47:00,22.9,2.2,30.44,South,178,0.0,0.0,40,0.00,,SKC,0.00,VWS V14.01,2013-01-05 11:47:00,
2013-01-05 04:48:00,23.1,2.4,30.44,South,179,0.0,0.0,40,0.00,,SKC,0.00,VWS V14.01,2013-01-05 11:48:00,
2013-01-05 04:49:00,23.1,2.4,30.44,South,171,0.0,0.0,40,0.00,,SKC,0.00,VWS V14.01,2013-01-05 11:49:00,
2013-01-05 04:50:00,23.2,1.9,30.44,South,174,0.0,1.0,39,0.00,,SKC,0.00,VWS V14.01,2013-01-05 11:50:00,
2013-01-05 04:51:00,23.2,1.9,30.44,South,175,0.0,1.0,39,0.00,,SKC,0.00,VWS V14.01,2013-01-05 11:51:00,
2013-01-05 04:52:00,23.1,1.8,30.44,South,180,5.0,5.0,39,0.00,,SKC,0.00,VWS V14.01,2013-01-05 11:52:00,
2013-01-05 04:53:00,23.1,1.8,30.44,South,177,4.0,5.0,39,0.00,,SKC,0.00,VWS V14.01,2013-01-05 11:53:00,
2013-01-05 04:54:00,23.0,1.8,30.44,South,178,4.0,5.0,39,0.00,,SKC,0.00,VWS V14.01,2013-01-05 11:54:00,
2013-01-05 04:55:00,23.0,1.8,30.45,South,178,2.0,4.0,39,0.00,,SKC,0.00,VWS V14.01,2013-01-05 11:55:00,
2013-01-05 04:56:00,22.9,1.7,30.45,South,181,0.0,2.0,39,0.00,,SKC,0.00,VWS V14.01,2013-01-05 11:56:00,
2013-01-05 04:57:00,22.8,1.6,30.45,South,174,0.0,0.0,39,0.00,,SKC,0.00,VWS V14.01,2013-01-05 11:57:00,
2013-01-05 04:58:00,22.7,1.5,30.44,South,179,0.0,1.0,39,0.00,,SKC,0.00,VWS V14.01,2013-01-05 11:58:00,
2013-01-05 04:59:00,22.7,1.5,30.45,South,181,0.0,1.0,39,0.00,,SKC,0.00,VWS V14.01,2013-01-05 11:59:00,
2013-01-05 05:00:00,22.6,1.4,30.45,South,179,0.0,0.0,39,0.00,,SKC,0.00,VWS V14.01,2013-01-05 12:00:00,
2013-01-05 05:01:00,22.5,1.3,30.44,South,180,0.0,0.0,39,0.00,,SKC,0.00,VWS V14.01,2013-01-05 12:01:00,
2013-01-05 05:02:00,22.5,1.3,30.44,South,176,0.0,0.0,39,0.00,,SKC,0.00,VWS V14.01,2013-01-05 12:02:00,
2013-01-05 05:03:00,22.4,1.2,30.44,South,176,0.0,0.0,39,0.00,,SKC,0.00,VWS V14.01,2013-01-05 12:03:00,
2013-01-05 05:04:00,22.4,1.2,30.44,South,176,0.0,0.0,39,0.00,,SKC,0.00,VWS V14.01,2013-01-05 12:04:00,
2013-01-05 05:05:00,22.4,1.2,30.44,South,176,0.0,0.0,39,0.00,,SKC,0.00,VWS V14.01,2013-01-05 12:05:00,
2013-01-05 05:06:00,22.3,1.1,30.44,South,173,0.0,0.0,39,0.00,,SKC,0.00,VWS V14.01,2013-01-05 12:06:00,
2013-01-05 05:07:00,22.2,1.6,30.44,South,180,0.0,0.0,40,0.00,,SKC,0.00,VWS V14.01,2013-01-05 12:07:00,
2013-01-05 05:08:00,22.2,1.6,30.44,South,174,0.0,0.0,40,0.00,,SKC,0.00,VWS V14.01,2013-01-05 12:08:00,
2013-01-05 05:09:00,22.1,0.9,30.44,South,175,0.0,0.0,39,0.00,,SKC,0.00,VWS V14.01,2013-01-05 12:09:00,
2013-01-05 05:10:00,22.1,1.5,30.44,South,175,0.0,0.0,40,0.00,,SKC,0.00,VWS V14.01,2013-01-05 12:10:00,
2013-01-05 05:11:00,22.1,1.5,30.44,South,175,0.0,0.0,40,0.00,,SKC,0.00,VWS V14.01,2013-01-05 12:11:00,
2013-01-05 05:12:00,22.1,0.9,30.44,South,176,0.0,0.0,39,0.00,,SKC,0.00,VWS V14.01,2013-01-05 12:12:00,
2013-01-05 05:13:00,22.0,0.8,30.44,South,177,0.0,1.0,39,0.00,,SKC,0.00,VWS V14.01,2013-01-05 12:13:00,
2013-01-05 05:14:00,22.0,1.4,30.44,South,181,0.0,1.0,40,0.00,,SKC,0.00,VWS V14.01,2013-01-05 12:14:00,
2013-01-05 05:15:00,21.9,1.3,30.44,South,180,0.0,0.0,40,0.00,,SKC,0.00,VWS V14.01,2013-01-05 12:15:00,
2013-01-05 05:16:00,21.9,1.3,30.44,South,177,0.0,0.0,40,0.00,,SKC,0.00,VWS V14.01,2013-01-05 12:16:00,
2013-01-05 05:17:00,21.8,1.2,30.44,South,175,0.0,1.0,40,0.00,,SKC,0.00,VWS V14.01,2013-01-05 12:17:00,
2013-01-05 05:18:00,21.8,1.2,30.44,South,175,0.0,0.0,40,0.00,,SKC,0.00,VWS V14.01,2013-01-05 12:18:00,
2013-01-05 05:19:00,21.7,1.1,30.44,South,179,0.0,2.0,40,0.00,,SKC,0.00,VWS V14.01,2013-01-05 12:19:00,
2013-01-05 05:20:00,21.7,1.1,30.44,South,180,0.0,0.0,40,0.00,,SKC,0.00,VWS V14.01,2013-01-05 12:20:00,
2013-01-05 05:21:00,21.6,1.0,30.44,South,173,0.0,0.0,40,0.00,,SKC,0.00,VWS V14.01,2013-01-05 12:21:00,
2013-01-05 05:22:00,21.6,1.0,30.44,South,180,0.0,0.0,40,0.00,,SKC,0.00,VWS V14.01,2013-01-05 12:22:00,
2013-01-05 05:23:00,21.6,1.0,30.44,South,182,2.0,2.0,40,0.00,,SKC,0.00,VWS V14.01,2013-01-05 12:23:00,
2013-01-05 05:24:00,21.6,1.0,30.44,South,176,0.0,2.0,40,0.00,,SKC,0.00,VWS V14.01,2013-01-05 12:24:00,
2013-01-05 05:25:00,21.6,0.5,30.44,South,178,0.0,0.0,39,0.00,,SKC,0.00,VWS V14.01,2013-01-05 12:25:00,
2013-01-05 05:26:00,21.6,0.5,30.45,South,175,0.0,0.0,39,0.00,,SKC,0.00,VWS V14.01,2013-01-05 12:26:00,
2013-01-05 05:27:00,21.6,0.5,30.44,South,180,0.0,0.0,39,0.00,,SKC,0.00,VWS V14.01,2013-01-05 12:27:00,
2013-01-05 05:28:00,21.6,0.5,30.44,South,178,0.0,0.0,39,0.00,,SKC,0.00,VWS V14.01,2013-01-05 12:28:00,
2013-01-05 05:29:00,21.7,0.6,30.44,South,178,0.0,1.0,39,0.00,,SKC,0.00,VWS V14.01,2013-01-05 12:29:00,
2013-01-05 05:30:00,21.7,0.6,30.44,South,181,0.0,0.0,39,0.00,,SKC,0.00,VWS V14.01,2013-01-05 12:30:00,
2013-01-05 05:31:00,21.7,0.6,30.44,South,176,1.0,1.0,39,0.00,,SKC,0.00,VWS V14.01,2013-01-05 12:31:00,
2013-01-05 05:32:00,21.7,0.0,30.44,South,178,0.0,1.0,38,0.00,,SKC,0.00,VWS V14.01,2013-01-05 12:32:00,
2013-01-05 05:33:00,21.7,0.0,30.45,South,177,0.0,1.0,38,0.00,,SKC,0.00,VWS V14.01,2013-01-05 12:33:00,
2013-01-05 05:34:00,21.7,0.0,30.45,South,171,1.0,1.0,38,0.00,,SKC,0.00,VWS V14.01,2013-01-05 12:34:00,
2013-01-05 05:35:00,21.7,0.0,30.45,South,169,0.0,1.0,38,0.00,,SKC,0.00,VWS V14.01,2013-01-05 12:35:00,
2013-01-05 05:36:00,21.7,0.0,30.45,SSE,166,2.0,2.0,38,0.00,,SKC,0.00,VWS V14.01,2013-01-05 12:36:00,
2013-01-05 05:37:00,21.7,-0.6,30.45,SSE,167,0.0,2.0,37,0.00,,SKC,0.00,VWS V14.01,2013-01-05 12:37:00,
2013-01-05 05:38:00,21.8,-0.5,30.45,South,169,0.0,0.0,37,0.00,,SKC,0.00,VWS V14.01,2013-01-05 12:38:00,
2013-01-05 05:39:00,21.8,0.1,30.45,SSE,167,0.0,0.0,38,0.00,,SKC,0.00,VWS V14.01,2013-01-05 12:39:00,
2013-01-05 05:40:00,21.8,0.7,30.45,SSE,165,0.0,0.0,39,0.00,,SKC,0.00,VWS V14.01,2013-01-05 12:40:00,
2013-01-05 05:41:00,21.9,0.2,30.45,SSE,167,0.0,0.0,38,0.00,,SKC,0.00,VWS V14.01,2013-01-05 12:41:00,
2013-01-05 05:42:00,21.8,0.7,30.45,SSE,163,0.0,0.0,39,0.00,,SKC,0.00,VWS V14.01,2013-01-05 12:42:00,
2013-01-05 05:43:00,21.8,0.7,30.45,South,173,0.0,0.0,39,0.00,,SKC,0.00,VWS V14.01,2013-01-05 12:43:00,
2013-01-05 05:44:00,21.7,0.6,30.45,South,170,0.0,0.0,39,0.00,,SKC,0.00,VWS V14.01,2013-01-05 12:44:00,
2013-01-05 05:45:00,21.7,0.6,30.45,South,171,0.0,0.0,39,0.00,,SKC,0.00,VWS V14.01,2013-01-05 12:45:00,
2013-01-05 05:46:00,21.7,-0.6,30.45,SSE,159,0.0,0.0,37,0.00,,SKC,0.00,VWS V14.01,2013-01-05 12:46:00,
2013-01-05 05:47:00,21.7,-0.6,30.46,SSE,167,0.0,0.0,37,0.00,,SKC,0.00,VWS V14.01,2013-01-05 12:47:00,
2013-01-05 05:48:00,21.8,-1.0,30.45,South,171,0.0,0.0,36,0.00,,SKC,0.00,VWS V14.01,2013-01-05 12:48:00,
2013-01-05 05:49:00,21.9,-0.9,30.45,SSE,167,0.0,0.0,36,0.00,,SKC,0.00,VWS V14.01,2013-01-05 12:49:00,
2013-01-05 05:50:00,21.9,-0.4,30.45,SSE,168,0.0,1.0,37,0.00,,SKC,0.00,VWS V14.01,2013-01-05 12:50:00,
2013-01-05 05:51:00,22.0,-0.3,30.46,SSE,165,0.0,0.0,37,0.00,,SKC,0.00,VWS V14.01,2013-01-05 12:51:00,
2013-01-05 05:52:00,22.0,-0.3,30.46,SSE,165,0.0,0.0,37,0.00,,SKC,0.00,VWS V14.01,2013-01-05 12:52:00,
2013-01-05 05:53:00,22.1,-0.2,30.46,SSE,166,0.0,0.0,37,0.00,,SKC,0.00,VWS V14.01,2013-01-05 12:53:00,
2013-01-05 05:54:00,22.1,-0.8,30.46,South,170,0.0,0.0,36,0.00,,SKC,0.00,VWS V14.01,2013-01-05 12:54:00,
2013-01-05 05:55:00,22.1,-0.8,30.46,SSE,166,0.0,0.0,36,0.00,,SKC,0.00,VWS V14.01,2013-01-05 12:55:00,
2013-01-05 05:56:00,22.2,-0.7,30.46,SSE,161,0.0,0.0,36,0.00,,SKC,0.00,VWS V14.01,2013-01-05 12:56:00,
2013-01-05 05:57:00,22.2,-0.7,30.46,SSE,161,0.0,0.0,36,0.00,,SKC,0.00,VWS V14.01,2013-01-05 12:57:00,
2013-01-05 05:58:00,22.2,-1.3,30.46,SSE,167,0.0,0.0,35,0.00,,SKC,0.00,VWS V14.01,2013-01-05 12:58:00,
2013-01-05 05:59:00,22.2,-1.3,30.46,SSE,164,0.0,0.0,35,0.00,,SKC,0.00,VWS V14.01,2013-01-05 12:59:00,
2013-01-05 06:00:00,22.3,-1.2,30.46,South,170,0.0,0.0,35,0.00,,SKC,0.00,VWS V14.01,2013-01-05 13:00:00,
2013-01-05 06:01:00,22.4,-1.1,30.46,SSE,168,0.0,0.0,35,0.00,,SKC,0.00,VWS V14.01,2013-01-05 13:01:00,
2013-01-05 06:02:00,22.5,-1.0,30.46,SSE,167,0.0,0.0,35,0.00,,SKC,0.00,VWS V14.01,2013-01-05 13:02:00,
2013-01-05 06:03:00,22.6,-1.5,30.46,SSE,166,0.0,1.0,34,0.00,,SKC,0.00,VWS V14.01,2013-01-05 13:03:00,
2013-01-05 06:04:00,22.7,-1.4,30.46,SSE,167,1.0,1.0,34,0.00,,SKC,0.00,VWS V14.01,2013-01-05 13:04:00,
2013-01-05 06:05:00,22.9,-1.3,30.46,South,169,0.0,1.0,34,0.00,,SKC,0.00,VWS V14.01,2013-01-05 13:05:00,
2013-01-05 06:06:00,23.0,-1.8,30.46,South,169,0.0,1.0,33,0.00,,SKC,0.00,VWS V14.01,2013-01-05 13:06:00,
2013-01-05 06:07:00,23.2,-1.6,30.46,SSE,167,0.0,0.0,33,0.00,,SKC,0.00,VWS V14.01,2013-01-05 13:07:00,
2013-01-05 06:08:00,23.4,-1.5,30.47,SSE,165,0.0,0.0,33,0.00,,SKC,0.00,VWS V14.01,2013-01-05 13:08:00,
2013-01-05 06:09:00,23.6,-1.9,30.46,SSE,165,0.0,0.0,32,0.00,,SKC,0.00,VWS V14.01,2013-01-05 13:09:00,
2013-01-05 06:10:00,23.8,-1.8,30.47,SSE,168,0.0,0.0,32,0.00,,SKC,0.00,VWS V14.01,2013-01-05 13:10:00,
2013-01-05 06:11:00,23.9,-1.7,30.47,SSE,166,0.0,0.0,32,0.00,,SKC,0.00,VWS V14.01,2013-01-05 13:11:00,
2013-01-05 06:12:00,24.0,-0.9,30.47,South,169,0.0,0.0,33,0.00,,SKC,0.00,VWS V14.01,2013-01-05 13:12:00,
2013-01-05 06:13:00,24.1,-1.5,30.47,South,169,0.0,0.0,32,0.00,,SKC,0.00,VWS V14.01,2013-01-05 13:13:00,
2013-01-05 06:14:00,24.2,-1.4,30.47,South,176,2.0,2.0,32,0.00,,SKC,0.00,VWS V14.01,2013-01-05 13:14:00,
2013-01-05 06:15:00,24.3,-1.3,30.47,South,179,2.0,3.0,32,0.00,,SKC,0.00,VWS V14.01,2013-01-05 13:15:00,
2013-01-05 06:16:00,24.4,-1.2,30.47,South,180,1.0,2.0,32,0.00,,SKC,0.00,VWS V14.01,2013-01-05 13:16:00,
2013-01-05 06:17:00,24.5,-1.8,30.47,South,180,1.0,2.0,31,0.00,,SKC,0.00,VWS V14.01,2013-01-05 13:17:00,
2013-01-05 06:18:00,24.6,-1.7,30.47,North,360,0.0,1.0,31,0.00,,SKC,0.00,VWS V14.01,2013-01-05 13:18:00,
2013-01-05 06:19:00,24.6,-1.0,30.47,South,177,0.0,0.0,32,0.00,,SKC,0.00,VWS V14.01,2013-01-05 13:19:00,
2013-01-05 06:20:00,24.7,-0.9,30.47,South,181,0.0,0.0,32,0.00,,SKC,0.00,VWS V14.01,2013-01-05 13:20:00,
2013-01-05 06:21:00,24.7,-0.9,30.47,South,172,0.0,0.0,32,0.00,,SKC,0.00,VWS V14.01,2013-01-05 13:21:00,
2013-01-05 06:22:00,24.7,-0.9,30.47,South,180,0.0,0.0,32,0.00,,SKC,0.00,VWS V14.01,2013-01-05 13:22:00,
2013-01-05 06:23:00,24.6,-1.0,30.47,South,174,0.0,0.0,32,0.00,,SKC,0.00,VWS V14.01,2013-01-05 13:23:00,
2013-01-05 06:24:00,24.6,-1.0,30.47,South,180,0.0,0.0,32,0.00,,SKC,0.00,VWS V14.01,2013-01-05 13:24:00,
2013-01-05 06:25:00,24.5,-1.1,30.47,South,175,0.0,0.0,32,0.00,,SKC,0.00,VWS V14.01,2013-01-05 13:25:00,
2013-01-05 06:26:00,24.4,-1.2,30.47,South,180,0.0,0.0,32,0.00,,SKC,0.00,VWS V14.01,2013-01-05 13:26:00,
2013-01-05 06:27:00,24.4,-1.2,30.47,South,177,0.0,0.0,32,0.00,,SKC,0.00,VWS V14.01,2013-01-05 13:27:00,
2013-01-05 06:28:00,24.3,-1.3,30.47,South,182,0.0,0.0,32,0.00,,SKC,0.00,VWS V14.01,2013-01-05 13:28:00,
2013-01-05 06:29:00,24.2,-1.4,30.48,South,186,0.0,0.0,32,0.00,,SKC,0.00,VWS V14.01,2013-01-05 13:29:00,
2013-01-05 06:30:00,24.1,-1.5,30.48,South,177,0.0,1.0,32,0.00,,SKC,0.00,VWS V14.01,2013-01-05 13:30:00,
2013-01-05 06:31:00,24.0,-1.6,30.48,South,182,0.0,1.0,32,0.00,,SKC,0.00,VWS V14.01,2013-01-05 13:31:00,
2013-01-05 06:32:00,23.9,-1.7,30.48,South,182,0.0,0.0,32,0.00,,SKC,0.00,VWS V14.01,2013-01-05 13:32:00,
2013-01-05 06:33:00,23.8,-1.8,30.47,South,180,0.0,0.0,32,0.00,,SKC,0.00,VWS V14.01,2013-01-05 13:33:00,
2013-01-05 06:34:00,23.7,-1.8,30.47,South,180,0.0,0.0,32,0.00,,SKC,0.00,VWS V14.01,2013-01-05 13:34:00,
2013-01-05 06:35:00,23.6,-1.9,30.47,South,173,0.0,0.0,32,0.00,,SKC,0.00,VWS V14.01,2013-01-05 13:35:00,
2013-01-05 06:36:00,23.6,-1.9,30.47,South,181,0.0,0.0,32,0.00,,SKC,0.00,VWS V14.01,2013-01-05 13:36:00,
2013-01-05 06:37:00,23.6,-1.3,30.47,South,182,0.0,0.0,33,0.00,,SKC,0.00,VWS V14.01,2013-01-05 13:37:00,
2013-01-05 06:38:00,23.5,-0.7,30.47,South,178,0.0,1.0,34,0.00,,SKC,0.00,VWS V14.01,2013-01-05 13:38:00,
2013-01-05 06:39:00,23.5,-1.4,30.48,South,184,0.0,1.0,33,0.00,,SKC,0.00,VWS V14.01,2013-01-05 13:39:00,
2013-01-05 06:40:00,23.4,-1.5,30.48,South,177,1.0,1.0,33,0.00,,SKC,0.00,VWS V14.01,2013-01-05 13:40:00,
2013-01-05 06:41:00,23.3,-0.9,30.48,South,180,2.0,3.0,34,0.00,,SKC,0.00,VWS V14.01,2013-01-05 13:41:00,
2013-01-05 06:42:00,23.2,-1.0,30.48,South,175,0.0,2.0,34,0.00,,SKC,0.00,VWS V14.01,2013-01-05 13:42:00,
2013-01-05 06:43:00,23.1,-1.1,30.48,South,175,0.0,0.0,34,0.00,,SKC,0.00,VWS V14.01,2013-01-05 13:43:00,
2013-01-05 06:44:00,23.0,-1.2,30.48,South,172,0.0,0.0,34,0.00,,SKC,0.00,VWS V14.01,2013-01-05 13:44:00,
2013-01-05 06:45:00,22.9,-1.3,30.48,South,180,0.0,0.0,34,0.00,,SKC,0.00,VWS V14.01,2013-01-05 13:45:00,
2013-01-05 06:46:00,22.8,-1.4,30.48,South,179,0.0,0.0,34,0.00,,SKC,0.00,VWS V14.01,2013-01-05 13:46:00,
2013-01-05 06:47:00,22.7,-1.4,30.49,South,174,0.0,0.0,34,0.00,,SKC,0.00,VWS V14.01,2013-01-05 13:47:00,
2013-01-05 06:48:00,22.6,-1.5,30.49,South,173,0.0,0.0,34,0.00,,SKC,0.00,VWS V14.01,2013-01-05 13:48:00,
2013-01-05 06:49:00,22.6,-1.5,30.49,SSE,168,0.0,0.0,34,0.00,,SKC,0.00,VWS V14.01,2013-01-05 13:49:00,
2013-01-05 06:50:00,22.6,-2.2,30.49,South,180,0.0,0.0,33,0.00,,SKC,0.00,VWS V14.01,2013-01-05 13:50:00,
2013-01-05 06:51:00,22.6,-1.5,30.49,South,182,1.0,1.0,34,0.00,,SKC,0.00,VWS V14.01,2013-01-05 13:51:00,
2013-01-05 06:52:00,22.7,-1.4,30.49,South,174,0.0,1.0,34,0.00,,SKC,0.00,VWS V14.01,2013-01-05 13:52:00,
2013-01-05 06:53:00,22.7,-2.1,30.49,South,179,0.0,0.0,33,0.00,,SKC,0.00,VWS V14.01,2013-01-05 13:53:00,
2013-01-05 06:54:00,22.7,-2.1,30.49,South,179,1.0,1.0,33,0.00,,SKC,0.00,VWS V14.01,2013-01-05 13:54:00,
2013-01-05 06:55:00,22.8,-2.0,30.49,South,177,0.0,1.0,33,0.00,,SKC,0.00,VWS V14.01,2013-01-05 13:55:00,
2013-01-05 06:56:00,22.8,-2.0,30.49,South,177,0.0,1.0,33,0.00,,SKC,0.00,VWS V14.01,2013-01-05 13:56:00,
2013-01-05 06:57:00,22.8,-1.4,30.49,South,179,0.0,2.0,34,0.00,,SKC,0.00,VWS V14.01,2013-01-05 13:57:00,
2013-01-05 06:58:00,22.7,-2.1,30.49,South,180,1.0,2.0,33,0.00,,SKC,0.00,VWS V14.01,2013-01-05 13:58:00,
2013-01-05 06:59:00,22.7,-2.1,30.49,South,175,0.0,2.0,33,0.00,,SKC,0.00,VWS V14.01,2013-01-05 13:59:00,
2013-01-05 07:00:00,22.7,-2.1,30.49,South,173,0.0,0.0,33,0.00,,SKC,0.00,VWS V14.01,2013-01-05 14:00:00,
2013-01-05 07:01:00,22.7,-2.1,30.50,South,176,0.0,0.0,33,0.00,,SKC,0.00,VWS V14.01,2013-01-05 14:01:00,
2013-01-05 07:02:00,22.8,-2.0,30.49,South,179,0.0,0.0,33,0.00,,SKC,0.00,VWS V14.01,2013-01-05 14:02:00,
2013-01-05 07:03:00,22.8,-1.4,30.49,North,360,0.0,0.0,34,0.00,,SKC,0.00,VWS V14.01,2013-01-05 14:03:00,
2013-01-05 07:04:00,22.8,-1.4,30.49,South,180,0.0,0.0,34,0.00,,SKC,0.00,VWS V14.01,2013-01-05 14:04:00,
2013-01-05 07:05:00,22.9,-1.9,30.49,South,180,0.0,1.0,33,0.00,,SKC,0.00,VWS V14.01,2013-01-05 14:05:00,
2013-01-05 07:06:00,23.0,-1.8,30.49,South,180,0.0,0.0,33,0.00,,SKC,0.00,VWS V14.01,2013-01-05 14:06:00,
2013-01-05 07:07:00,23.0,-1.8,30.49,South,175,0.0,0.0,33,0.00,,SKC,0.00,VWS V14.01,2013-01-05 14:07:00,
2013-01-05 07:08:00,23.0,-1.8,30.49,South,179,0.0,0.0,33,0.00,,SKC,0.00,VWS V14.01,2013-01-05 14:08:00,
2013-01-05 07:09:00,23.0,-1.8,30.49,South,175,0.0,0.0,33,0.00,,SKC,0.00,VWS V14.01,2013-01-05 14:09:00,
2013-01-05 07:10:00,23.0,-1.2,30.49,South,178,0.0,0.0,34,0.00,,SKC,0.00,VWS V14.01,2013-01-05 14:10:00,
2013-01-05 07:11:00,22.9,-1.3,30.49,South,178,0.0,1.0,34,0.00,,SKC,0.00,VWS V14.01,2013-01-05 14:11:00,
2013-01-05 07:12:00,22.8,-1.4,30.49,South,177,0.0,1.0,34,0.00,,SKC,0.00,VWS V14.01,2013-01-05 14:12:00,
2013-01-05 07:13:00,22.7,-1.4,30.49,South,175,1.0,1.0,34,0.00,,SKC,0.00,VWS V14.01,2013-01-05 14:13:00,
2013-01-05 07:14:00,22.7,-1.4,30.49,South,176,0.0,1.0,34,0.00,,SKC,0.00,VWS V14.01,2013-01-05 14:14:00,
2013-01-05 07:15:00,22.6,-1.5,30.49,South,182,0.0,0.0,34,0.00,,SKC,0.00,VWS V14.01,2013-01-05 14:15:00,
2013-01-05 07:16:00,22.5,-1.6,30.49,South,180,0.0,1.0,34,0.00,,SKC,0.00,VWS V14.01,2013-01-05 14:16:00,
2013-01-05 07:17:00,22.4,-1.7,30.49,South,175,0.0,0.0,34,0.00,,SKC,0.00,VWS V14.01,2013-01-05 14:17:00,
2013-01-05 07:18:00,22.4,-1.7,30.49,South,183,0.0,1.0,34,0.00,,SKC,0.00,VWS V14.01,2013-01-05 14:18:00,
2013-01-05 07:19:00,22.4,-1.7,30.49,South,177,0.0,0.0,34,0.00,,SKC,0.00,VWS V14.01,2013-01-05 14:19:00,
2013-01-05 07:20:00,22.5,-1.6,30.49,South,177,0.0,0.0,34,0.00,,SKC,0.00,VWS V14.01,2013-01-05 14:20:00,
2013-01-05 07:21:00,22.6,-2.2,30.49,South,179,0.0,0.0,33,0.00,,SKC,0.00,VWS V14.01,2013-01-05 14:21:00,
2013-01-05 07:22:00,22.7,-1.4,30.50,South,180,1.0,2.0,34,0.00,,SKC,0.00,VWS V14.01,2013-01-05 14:22:00,
2013-01-05 07:23:00,22.7,-1.4,30.50,South,183,1.0,2.0,34,0.00,,SKC,0.00,VWS V14.01,2013-01-05 14:23:00,
2013-01-05 07:24:00,22.8,-1.4,30.50,South,180,0.0,2.0,34,0.00,,SKC,0.00,VWS V14.01,2013-01-05 14:24:00,
2013-01-05 07:25:00,22.8,-1.4,30.50,South,178,0.0,0.0,34,0.00,,SKC,0.00,VWS V14.01,2013-01-05 14:25:00,
2013-01-05 07:26:00,22.8,-1.4,30.50,South,180,0.0,0.0,34,0.00,,SKC,0.00,VWS V14.01,2013-01-05 14:26:00,
2013-01-05 07:27:00,22.7,-1.4,30.50,South,173,1.0,1.0,34,0.00,,SKC,0.00,VWS V14.01,2013-01-05 14:27:00,
2013-01-05 07:28:00,22.7,-1.4,30.50,South,178,0.0,1.0,34,0.00,,SKC,0.00,VWS V14.01,2013-01-05 14:28:00,
2013-01-05 07:29:00,22.6,-1.5,30.50,South,177,0.0,0.0,34,0.00,,SKC,0.00,VWS V14.01,2013-01-05 14:29:00,
2013-01-05 07:30:00,22.6,-1.5,30.50,South,174,0.0,1.0,34,0.00,,SKC,0.00,VWS V14.01,2013-01-05 14:30:00,
2013-01-05 07:31:00,22.6,-1.5,30.50,South,182,0.0,0.0,34,0.00,,SKC,0.00,VWS V14.01,2013-01-05 14:31:00,
2013-01-05 07:32:00,22.5,-1.6,30.50,South,180,0.0,0.0,34,0.00,,SKC,0.00,VWS V14.01,2013-01-05 14:32:00,
2013-01-05 07:33:00,22.4,-1.7,30.49,East,88,0.0,1.0,34,0.00,,SKC,0.00,VWS V14.01,2013-01-05 14:33:00,
2013-01-05 07:34:00,22.4,-1.1,30.49,East,88,2.0,3.0,35,0.00,,SKC,0.00,VWS V14.01,2013-01-05 14:34:00,
2013-01-05 07:35:00,22.3,-1.2,30.49,East,85,2.0,3.0,35,0.00,,SKC,0.00,VWS V14.01,2013-01-05 14:35:00,
2013-01-05 07:36:00,22.2,-0.7,30.49,SSE,148,1.0,2.0,36,0.00,,SKC,0.00,VWS V14.01,2013-01-05 14:36:00,
2013-01-05 07:37:00,22.2,-0.7,30.50,South,170,1.0,1.0,36,0.00,,SKC,0.00,VWS V14.01,2013-01-05 14:37:00,
2013-01-05 07:38:00,22.2,-0.7,30.49,SSE,168,0.0,2.0,36,0.00,,SKC,0.00,VWS V14.01,2013-01-05 14:38:00,
2013-01-05 07:39:00,22.1,-0.8,30.49,East,101,0.0,1.0,36,0.00,,SKC,0.00,VWS V14.01,2013-01-05 14:39:00,
2013-01-05 07:40:00,22.2,-1.3,30.49,East,95,1.0,3.0,35,0.00,,SKC,0.00,VWS V14.01,2013-01-05 14:40:00,
2013-01-05 07:41:00,22.2,-1.3,30.49,South,186,2.0,8.0,35,0.00,,SKC,0.00,VWS V14.01,2013-01-05 14:41:00,
2013-01-05 07:42:00,22.2,-0.7,30.49,South,182,1.0,3.0,36,0.00,,SKC,0.00,VWS V14.01,2013-01-05 14:42:00,
2013-01-05 07:43:00,22.2,-0.1,30.49,South,181,0.0,1.0,37,0.00,,SKC,0.00,VWS V14.01,2013-01-05 14:43:00,
2013-01-05 07:44:00,22.2,-0.1,30.49,South,184,2.0,2.0,37,0.00,,SKC,0.00,VWS V14.01,2013-01-05 14:44:00,
2013-01-05 07:45:00,22.1,-0.2,30.49,South,184,2.0,4.0,37,0.00,,SKC,0.00,VWS V14.01,2013-01-05 14:45:00,
2013-01-05 07:46:00,22.1,-0.2,30.49,South,180,0.0,3.0,37,0.00,,SKC,0.00,VWS V14.01,2013-01-05 14:46:00,
2013-01-05 07:47:00,22.2,-0.7,30.49,South,188,0.0,0.0,36,0.00,,SKC,0.00,VWS V14.01,2013-01-05 14:47:00,
2013-01-05 07:48:00,22.2,-1.9,30.49,South,186,1.0,1.0,34,0.00,,SKC,0.00,VWS V14.01,2013-01-05 14:48:00,
2013-01-05 07:49:00,22.3,-0.6,30.49,South,186,0.0,1.0,36,0.00,,SKC,0.00,VWS V14.01,2013-01-05 14:49:00,
2013-01-05 07:50:00,22.4,-1.1,30.50,South,184,0.0,0.0,35,0.00,,SKC,0.00,VWS V14.01,2013-01-05 14:50:00,
2013-01-05 07:51:00,22.3,-0.6,30.49,South,190,0.0,0.0,36,0.00,,SKC,0.00,VWS V14.01,2013-01-05 14:51:00,
2013-01-05 07:52:00,22.3,-0.6,30.50,South,186,0.0,0.0,36,0.00,,SKC,0.00,VWS V14.01,2013-01-05 14:52:00,
2013-01-05 07:53:00,22.2,-0.7,30.50,South,189,0.0,0.0,36,0.00,,SKC,0.00,VWS V14.01,2013-01-05 14:53:00,
2013-01-05 07:54:00,22.2,-0.7,30.50,South,183,0.0,2.0,36,0.00,,SKC,0.00,VWS V14.01,2013-01-05 14:54:00,
2013-01-05 07:55:00,22.2,-1.3,30.50,South,188,0.0,0.0,35,0.00,,SKC,0.00,VWS V14.01,2013-01-05 14:55:00,
2013-01-05 07:56:00,22.2,-1.3,30.49,South,184,3.0,3.0,35,0.00,,SKC,0.00,VWS V14.01,2013-01-05 14:56:00,
2013-01-05 07:57:00,22.2,-0.1,30.50,South,182,1.0,5.0,37,0.00,,SKC,0.00,VWS V14.01,2013-01-05 14:57:00,
2013-01-05 07:58:00,22.2,0.5,30.50,South,187,0.0,1.0,38,0.00,,SKC,0.00,VWS V14.01,2013-01-05 14:58:00,
2013-01-05 07:59:00,22.2,-0.1,30.50,South,184,0.0,1.0,37,0.00,,SKC,0.00,VWS V14.01,2013-01-05 14:59:00,
2013-01-05 08:00:00,22.2,-0.7,30.50,South,185,2.0,2.0,36,0.00,,SKC,0.00,VWS V14.01,2013-01-05 15:00:00,
2013-01-05 08:01:00,22.2,-1.3,30.49,South,179,2.0,3.0,35,0.00,,SKC,0.00,VWS V14.01,2013-01-05 15:01:00,
2013-01-05 08:02:00,22.3,-0.6,30.49,South,182,0.0,3.0,36,0.00,,SKC,0.00,VWS V14.01,2013-01-05 15:02:00,
2013-01-05 08:03:00,22.4,-0.5,30.50,South,185,0.0,0.0,36,0.00,,SKC,0.00,VWS V14.01,2013-01-05 15:03:00,
2013-01-05 08:04:00,22.4,-0.5,30.50,South,179,0.0,0.0,36,0.00,,SKC,0.00,VWS V14.01,2013-01-05 15:04:00,
2013-01-05 08:05:00,22.5,-0.4,30.50,South,186,1.0,1.0,36,0.00,,SKC,0.00,VWS V14.01,2013-01-05 15:05:00,
2013-01-05 08:06:00,22.6,0.3,30.50,South,179,0.0,2.0,37,0.00,,SKC,0.00,VWS V14.01,2013-01-05 15:06:00,
2013-01-05 08:07:00,22.7,-1.4,30.49,South,188,1.0,1.0,34,0.00,,SKC,0.00,VWS V14.01,2013-01-05 15:07:00,
2013-01-05 08:08:00,22.8,-1.4,30.49,South,180,0.0,3.0,34,0.00,,SKC,0.00,VWS V14.01,2013-01-05 15:08:00,
2013-01-05 08:09:00,23.0,-0.6,30.49,SSE,161,1.0,2.0,35,0.00,,SKC,0.00,VWS V14.01,2013-01-05 15:09:00,
2013-01-05 08:10:00,23.1,-1.1,30.49,East,82,1.0,4.0,34,0.00,,SKC,0.00,VWS V14.01,2013-01-05 15:10:00,
2013-01-05 08:11:00,23.3,-0.9,30.50,ENE,69,0.0,2.0,34,0.00,,SKC,0.00,VWS V14.01,2013-01-05 15:11:00,
2013-01-05 08:12:00,23.5,-0.7,30.50,ENE,62,2.0,2.0,34,0.00,,SKC,0.00,VWS V14.01,2013-01-05 15:12:00,
2013-01-05 08:13:00,23.7,-1.2,30.50,ENE,63,3.0,3.0,33,0.00,,SKC,0.00,VWS V14.01,2013-01-05 15:13:00,
2013-01-05 08:14:00,23.9,-1.0,30.50,NE,55,1.0,4.0,33,0.00,,SKC,0.00,VWS V14.01,2013-01-05 15:14:00,
2013-01-05 08:15:00,24.2,-0.7,30.50,NE,48,3.0,8.0,33,0.00,,SKC,0.00,VWS V14.01,2013-01-05 15:15:00,
2013-01-05 08:16:00,24.5,-0.5,30.50,SSE,150,4.0,4.0,33,0.00,,SKC,0.00,VWS V14.01,2013-01-05 15:16:00,
2013-01-05 08:17:00,24.7,-0.3,30.50,SSE,150,0.0,4.0,33,0.00,,SKC,0.00,VWS V14.01,2013-01-05 15:17:00,
2013-01-05 08:18:00,24.7,1.0,30.50,SE,136,1.0,1.0,35,0.00,,SKC,0.00,VWS V14.01,2013-01-05 15:18:00,
2013-01-05 08:19:00,24.7,0.3,30.50,SE,135,3.0,4.0,34,0.00,,SKC,0.00,VWS V14.01,2013-01-05 15:19:00,
2013-01-05 08:20:00,24.9,-0.8,30.50,SE,129,5.0,5.0,32,0.00,,SKC,0.00,VWS V14.01,2013-01-05 15:20:00,
2013-01-05 08:21:00,24.9,-0.8,30.50,SE,132,3.0,5.0,32,0.00,,SKC,0.00,VWS V14.01,2013-01-05 15:21:00,
2013-01-05 08:22:00,25.1,1.3,30.50,ENE,74,5.0,5.0,35,0.00,,SKC,0.00,VWS V14.01,2013-01-05 15:22:00,
2013-01-05 08:23:00,25.2,0.8,30.50,East,87,3.0,5.0,34,0.00,,SKC,0.00,VWS V14.01,2013-01-05 15:23:00,
2013-01-05 08:24:00,25.4,1.0,30.50,East,88,1.0,3.0,34,0.00,,SKC,0.00,VWS V14.01,2013-01-05 15:24:00,
2013-01-05 08:25:00,25.6,1.8,30.50,East,95,1.0,1.0,35,0.00,,SKC,0.00,VWS V14.01,2013-01-05 15:25:00,
2013-01-05 08:26:00,25.7,1.2,30.50,East,83,0.0,2.0,34,0.00,,SKC,0.00,VWS V14.01,2013-01-05 15:26:00,
2013-01-05 08:27:00,25.9,1.4,30.50,North,360,0.0,0.0,34,0.00,,SKC,0.00,VWS V14.01,2013-01-05 15:27:00,
2013-01-05 08:28:00,26.0,1.5,30.50,East,91,2.0,2.0,34,0.00,,SKC,0.00,VWS V14.01,2013-01-05 15:28:00,
2013-01-05 08:29:00,26.1,2.8,30.50,East,101,5.0,5.0,36,0.00,,SKC,0.00,VWS V14.01,2013-01-05 15:29:00,
2013-01-05 08:30:00,26.3,0.5,30.51,ESE,115,11.0,11.0,32,0.00,,SKC,0.00,VWS V14.01,2013-01-05 15:30:00,
2013-01-05 08:31:00,26.4,1.2,30.51,ENE,76,9.0,14.0,33,0.00,,SKC,0.00,VWS V14.01,2013-01-05 15:31:00,
2013-01-05 08:32:00,26.5,2.6,30.51,East,83,8.0,13.0,35,0.00,,SKC,0.00,VWS V14.01,2013-01-05 15:32:00,
2013-01-05 08:33:00,26.5,3.2,30.51,NE,49,11.0,15.0,36,0.00,,SKC,0.00,VWS V14.01,2013-01-05 15:33:00,
2013-01-05 08:34:00,26.6,3.3,30.51,ENE,75,9.0,16.0,36,0.00,,SKC,0.00,VWS V14.01,2013-01-05 15:34:00,
2013-01-05 08:35:00,26.7,3.3,30.51,East,83,5.0,10.0,36,0.00,,SKC,0.00,VWS V14.01,2013-01-05 15:35:00,
2013-01-05 08:36:00,26.9,2.9,30.51,East,82,5.0,11.0,35,0.00,,SKC,0.00,VWS V14.01,2013-01-05 15:36:00,
2013-01-05 08:37:00,26.9,2.9,30.51,ESE,108,7.0,11.0,35,0.00,,SKC,0.00,VWS V14.01,2013-01-05 15:37:00,
2013-01-05 08:38:00,27.0,3.0,30.51,ESE,111,7.0,12.0,35,0.00,,SKC,0.00,VWS V14.01,2013-01-05 15:38:00,
2013-01-05 08:39:00,27.0,3.0,30.51,ENE,66,7.0,12.0,35,0.00,,SKC,0.00,VWS V14.01,2013-01-05 15:39:00,
2013-01-05 08:40:00,27.1,3.1,30.51,East,92,12.0,12.0,35,0.00,,SKC,0.00,VWS V14.01,2013-01-05 15:40:00,
2013-01-05 08:41:00,27.1,3.1,30.51,East,94,12.0,12.0,35,0.00,,SKC,0.00,VWS V14.01,2013-01-05 15:41:00,
2013-01-05 08:42:00,27.1,3.1,30.51,East,88,6.0,12.0,35,0.00,,SKC,0.00,VWS V14.01,2013-01-05 15:42:00,
2013-01-05 08:43:00,27.1,3.1,30.52,ESE,104,8.0,10.0,35,0.00,,SKC,0.00,VWS V14.01,2013-01-05 15:43:00,
2013-01-05 08:44:00,27.2,3.2,30.51,ESE,106,7.0,9.0,35,0.00,,SKC,0.00,VWS V14.01,2013-01-05 15:44:00,
2013-01-05 08:45:00,27.2,3.2,30.52,ESE,109,7.0,7.0,35,0.00,,SKC,0.00,VWS V14.01,2013-01-05 15:45:00,
2013-01-05 08:46:00,27.2,3.8,30.52,East,99,8.0,9.0,36,0.00,,SKC,0.00,VWS V14.01,2013-01-05 15:46:00,
2013-01-05 08:47:00,27.3,3.3,30.52,ESE,104,5.0,11.0,35,0.00,,SKC,0.00,VWS V14.01,2013-01-05 15:47:00,
2013-01-05 08:48:00,27.3,3.9,30.52,East,93,9.0,9.0,36,0.00,,SKC,0.00,VWS V14.01,2013-01-05 15:48:00,
2013-01-05 08:49:00,27.4,3.4,30.52,East,95,3.0,11.0,35,0.00,,SKC,0.00,VWS V14.01,2013-01-05 15:49:00,
2013-01-05 08:50:00,27.5,3.5,30.52,ESE,114,4.0,6.0,35,0.00,,SKC,0.00,VWS V14.01,2013-01-05 15:50:00,
2013-01-05 08:51:00,27.5,4.1,30.52,ESE,115,3.0,7.0,36,0.00,,SKC,0.00,VWS V14.01,2013-01-05 15:51:00,
2013-01-05 08:52:00,27.6,3.5,30.52,ESE,114,4.0,5.0,35,0.00,,SKC,0.00,VWS V14.01,2013-01-05 15:52:00,
2013-01-05 08:53:00,27.6,3.5,30.52,ESE,115,4.0,6.0,35,0.00,,SKC,0.00,VWS V14.01,2013-01-05 15:53:00,
2013-01-05 08:54:00,27.6,4.2,30.52,East,97,6.0,6.0,36,0.00,,SKC,0.00,VWS V14.01,2013-01-05 15:54:00,
2013-01-05 08:55:00,27.7,3.6,30.52,East,94,6.0,9.0,35,0.00,,SKC,0.00,VWS V14.01,2013-01-05 15:55:00,
2013-01-05 08:56:00,27.8,4.3,30.52,North,360,6.0,7.0,36,0.00,,SKC,0.00,VWS V14.01,2013-01-05 15:56:00,
2013-01-05 08:57:00,27.8,4.3,30.52,ENE,71,5.0,8.0,36,0.00,,SKC,0.00,VWS V14.01,2013-01-05 15:57:00,
2013-01-05 08:58:00,27.9,4.4,30.52,ENE,74,3.0,7.0,36,0.00,,SKC,0.00,VWS V14.01,2013-01-05 15:58:00,
2013-01-05 08:59:00,28.0,3.9,30.52,East,85,6.0,7.0,35,0.00,,SKC,0.00,VWS V14.01,2013-01-05 15:59:00,
2013-01-05 09:00:00,28.1,4.0,30.52,East,96,6.0,8.0,35,0.00,,SKC,0.00,VWS V14.01,2013-01-05 16:00:00,
2013-01-05 09:01:00,28.2,4.7,30.52,East,85,6.0,9.0,36,0.00,,SKC,0.00,VWS V14.01,2013-01-05 16:01:00,
2013-01-05 09:02:00,28.3,5.4,30.52,East,79,7.0,9.0,37,0.00,,SKC,0.00,VWS V14.01,2013-01-05 16:02:00,
2013-01-05 09:03:00,28.4,4.2,30.52,East,90,6.0,8.0,35,0.00,,SKC,0.00,VWS V14.01,2013-01-05 16:03:00,
2013-01-05 09:04:00,28.5,4.9,30.52,ENE,74,5.0,10.0,36,0.00,,SKC,0.00,VWS V14.01,2013-01-05 16:04:00,
2013-01-05 09:05:00,28.6,4.4,30.52,ESE,105,8.0,11.0,35,0.00,,SKC,0.00,VWS V14.01,2013-01-05 16:05:00,
2013-01-05 09:06:00,28.7,5.1,30.52,East,94,7.0,10.0,36,0.00,,SKC,0.00,VWS V14.01,2013-01-05 16:06:00,
2013-01-05 09:07:00,28.8,5.2,30.52,East,87,10.0,10.0,36,0.00,,SKC,0.00,VWS V14.01,2013-01-05 16:07:00,
2013-01-05 09:08:00,28.9,4.7,30.52,East,92,6.0,10.0,35,0.00,,SKC,0.00,VWS V14.01,2013-01-05 16:08:00,
2013-01-05 09:09:00,29.0,5.4,30.52,East,96,5.0,10.0,36,0.00,,SKC,0.00,VWS V14.01,2013-01-05 16:09:00,
2013-01-05 09:10:00,29.1,4.9,30.52,East,84,5.0,11.0,35,0.00,,SKC,0.00,VWS V14.01,2013-01-05 16:10:00,
2013-01-05 09:11:00,29.2,4.3,30.52,East,97,6.0,13.0,34,0.00,,SKC,0.00,VWS V14.01,2013-01-05 16:11:00,
2013-01-05 09:12:00,29.3,4.4,30.52,East,94,9.0,10.0,34,0.00,,SKC,0.00,VWS V14.01,2013-01-05 16:12:00,
2013-01-05 09:13:00,29.4,4.5,30.52,ESE,110,7.0,10.0,34,0.00,,SKC,0.00,VWS V14.01,2013-01-05 16:13:00,
2013-01-05 09:14:00,29.4,4.5,30.52,East,101,6.0,8.0,34,0.00,,SKC,0.00,VWS V14.01,2013-01-05 16:14:00,
2013-01-05 09:15:00,29.4,3.9,30.52,East,95,5.0,7.0,33,0.00,,SKC,0.00,VWS V14.01,2013-01-05 16:15:00,
2013-01-05 09:16:00,29.5,4.6,30.53,East,88,7.0,9.0,34,0.00,,SKC,0.00,VWS V14.01,2013-01-05 16:16:00,
2013-01-05 09:17:00,29.5,4.6,30.53,East,88,5.0,9.0,34,0.00,,SKC,0.00,VWS V14.01,2013-01-05 16:17:00,
2013-01-05 09:18:00,29.6,4.7,30.52,East,96,8.0,9.0,34,0.00,,SKC,0.00,VWS V14.01,2013-01-05 16:18:00,
2013-01-05 09:19:00,29.6,4.0,30.52,East,96,6.0,8.0,33,0.00,,SKC,0.00,VWS V14.01,2013-01-05 16:19:00,
2013-01-05 09:20:00,29.7,4.8,30.52,East,96,8.0,8.0,34,0.00,,SKC,0.00,VWS V14.01,2013-01-05 16:20:00,
2013-01-05 09:21:00,29.7,4.8,30.52,ENE,71,6.0,11.0,34,0.00,,SKC,0.00,VWS V14.01,2013-01-05 16:21:00,
2013-01-05 09:22:00,29.8,4.2,30.52,East,93,7.0,12.0,33,0.00,,SKC,0.00,VWS V14.01,2013-01-05 16:22:00,
2013-01-05 09:23:00,29.8,4.2,30.53,East,96,7.0,9.0,33,0.00,,SKC,0.00,VWS V14.01,2013-01-05 16:23:00,
2013-01-05 09:24:00,29.9,4.3,30.53,ENE,73,3.0,7.0,33,0.00,,SKC,0.00,VWS V14.01,2013-01-05 16:24:00,
2013-01-05 09:25:00,30.0,4.4,30.53,East,93,6.0,11.0,33,0.00,,SKC,0.00,VWS V14.01,2013-01-05 16:25:00,
2013-01-05 09:26:00,30.0,4.4,30.53,East,84,3.0,9.0,33,0.00,,SKC,0.00,VWS V14.01,2013-01-05 16:26:00,
2013-01-05 09:27:00,30.1,4.5,30.53,East,96,5.0,10.0,33,0.00,,SKC,0.00,VWS V14.01,2013-01-05 16:27:00,
2013-01-05 09:28:00,30.1,4.5,30.53,ESE,103,9.0,9.0,33,0.00,,SKC,0.00,VWS V14.01,2013-01-05 16:28:00,
2013-01-05 09:29:00,30.2,4.6,30.53,East,96,8.0,11.0,33,0.00,,SKC,0.00,VWS V14.01,2013-01-05 16:29:00,
2013-01-05 09:30:00,30.2,4.6,30.53,East,91,6.0,11.0,33,0.00,,SKC,0.00,VWS V14.01,2013-01-05 16:30:00,
2013-01-05 09:31:00,30.3,4.0,30.53,East,101,6.0,10.0,32,0.00,,SKC,0.00,VWS V14.01,2013-01-05 16:31:00,
2013-01-05 09:32:00,30.3,4.0,30.53,East,94,7.0,10.0,32,0.00,,SKC,0.00,VWS V14.01,2013-01-05 16:32:00,
2013-01-05 09:33:00,30.3,4.7,30.53,East,94,7.0,10.0,33,0.00,,SKC,0.00,VWS V14.01,2013-01-05 16:33:00,
2013-01-05 09:34:00,30.3,4.0,30.53,ESE,103,9.0,9.0,32,0.00,,SKC,0.00,VWS V14.01,2013-01-05 16:34:00,
2013-01-05 09:35:00,30.3,4.0,30.53,East,93,7.0,9.0,32,0.00,,SKC,0.00,VWS V14.01,2013-01-05 16:35:00,
2013-01-05 09:36:00,30.4,4.1,30.53,ESE,105,3.0,7.0,32,0.00,,SKC,0.00,VWS V14.01,2013-01-05 16:36:00,
2013-01-05 09:37:00,30.4,4.8,30.53,ESE,113,3.0,5.0,33,0.00,,SKC,0.00,VWS V14.01,2013-01-05 16:37:00,
2013-01-05 09:38:00,30.5,4.8,30.54,ESE,102,3.0,9.0,33,0.00,,SKC,0.00,VWS V14.01,2013-01-05 16:38:00,
2013-01-05 09:39:00,30.5,4.2,30.54,East,94,5.0,5.0,32,0.00,,SKC,0.00,VWS V14.01,2013-01-05 16:39:00,
2013-01-05 09:40:00,30.6,4.3,30.54,East,96,4.0,6.0,32,0.00,,SKC,0.00,VWS V14.01,2013-01-05 16:40:00,
2013-01-05 09:41:00,30.6,4.9,30.54,East,96,6.0,8.0,33,0.00,,SKC,0.00,VWS V14.01,2013-01-05 16:41:00,
2013-01-05 09:42:00,30.7,4.3,30.54,East,93,7.0,8.0,32,0.00,,SKC,0.00,VWS V14.01,2013-01-05 16:42:00,
2013-01-05 09:43:00,30.8,5.1,30.54,ESE,117,4.0,8.0,33,0.00,,SKC,0.00,VWS V14.01,2013-01-05 16:43:00,
2013-01-05 09:44:00,30.9,5.2,30.54,ESE,111,6.0,9.0,33,0.00,,SKC,0.00,VWS V14.01,2013-01-05 16:44:00,
2013-01-05 09:45:00,31.0,6.6,30.54,North,360,5.0,9.0,35,0.00,,SKC,0.00,VWS V14.01,2013-01-05 16:45:00,
2013-01-05 09:46:00,31.1,5.4,30.54,North,360,3.0,7.0,33,0.00,,SKC,0.00,VWS V14.01,2013-01-05 16:46:00,
2013-01-05 09:47:00,31.2,5.5,30.54,East,95,5.0,9.0,33,0.00,,SKC,0.00,VWS V14.01,2013-01-05 16:47:00,
2013-01-05 09:48:00,31.2,5.5,30.54,East,89,4.0,5.0,33,0.00,,SKC,0.00,VWS V14.01,2013-01-05 16:48:00,
2013-01-05 09:49:00,31.4,5.6,30.54,East,99,3.0,6.0,33,0.00,,SKC,0.00,VWS V14.01,2013-01-05 16:49:00,
2013-01-05 09:50:00,31.5,5.1,30.54,East,101,4.0,5.0,32,0.00,,SKC,0.00,VWS V14.01,2013-01-05 16:50:00,
2013-01-05 09:51:00,31.6,5.8,30.54,ESE,105,2.0,5.0,33,0.00,,SKC,0.00,VWS V14.01,2013-01-05 16:51:00,
2013-01-05 09:52:00,31.7,5.9,30.54,ESE,104,4.0,5.0,33,0.00,,SKC,0.00,VWS V14.01,2013-01-05 16:52:00,
2013-01-05 09:53:00,31.8,6.0,30.54,ESE,107,6.0,6.0,33,0.00,,SKC,0.00,VWS V14.01,2013-01-05 16:53:00,
2013-01-05 09:54:00,31.9,5.4,30.54,ESE,107,6.0,10.0,32,0.00,,SKC,0.00,VWS V14.01,2013-01-05 16:54:00,
2013-01-05 09:55:00,31.9,6.1,30.54,ESE,103,3.0,6.0,33,0.00,,SKC,0.00,VWS V14.01,2013-01-05 16:55:00,
2013-01-05 09:56:00,32.0,6.2,30.54,ESE,103,6.0,8.0,33,0.00,,SKC,0.00,VWS V14.01,2013-01-05 16:56:00,
2013-01-05 09:57:00,32.0,6.2,30.54,ESE,107,7.0,7.0,33,0.00,,SKC,0.00,VWS V14.01,2013-01-05 16:57:00,
2013-01-05 09:58:00,32.0,5.5,30.54,East,101,2.0,7.0,32,0.00,,SKC,0.00,VWS V14.01,2013-01-05 16:58:00,
2013-01-05 09:59:00,32.0,5.5,30.55,ESE,121,3.0,5.0,32,0.00,,SKC,0.00,VWS V14.01,2013-01-05 16:59:00,
2013-01-05 10:00:00,32.1,6.9,30.55,ESE,121,3.0,5.0,34,0.00,,SKC,0.00,VWS V14.01,2013-01-05 17:00:00,
2013-01-05 10:01:00,32.1,6.9,30.54,ESE,113,3.0,4.0,34,0.00,,SKC,0.00,VWS V14.01,2013-01-05 17:01:00,
2013-01-05 10:02:00,32.2,7.0,30.54,North,360,5.0,6.0,34,0.00,,SKC,0.00,VWS V14.01,2013-01-05 17:02:00,
2013-01-05 10:03:00,32.3,7.1,30.54,ESE,120,6.0,6.0,34,0.00,,SKC,0.00,VWS V14.01,2013-01-05 17:03:00,
2013-01-05 10:04:00,32.4,7.2,30.55,ESE,102,6.0,11.0,34,0.00,,SKC,0.00,VWS V14.01,2013-01-05 17:04:00,
2013-01-05 10:05:00,32.4,7.2,30.54,East,94,7.0,7.0,34,0.00,,SKC,0.00,VWS V14.01,2013-01-05 17:05:00,
2013-01-05 10:06:00,32.5,7.3,30.54,East,82,5.0,7.0,34,0.00,,SKC,0.00,VWS V14.01,2013-01-05 17:06:00,
2013-01-05 10:07:00,32.5,6.6,30.54,ESE,113,4.0,11.0,33,0.00,,SKC,0.00,VWS V14.01,2013-01-05 17:07:00,
2013-01-05 10:08:00,32.5,7.3,30.54,ESE,103,4.0,5.0,34,0.00,,SKC,0.00,VWS V14.01,2013-01-05 17:08:00,
2013-01-05 10:09:00,32.6,7.3,30.54,ESE,117,6.0,7.0,34,0.00,,SKC,0.00,VWS V14.01,2013-01-05 17:09:00,
2013-01-05 10:10:00,32.6,7.3,30.54,East,86,4.0,7.0,34,0.00,,SKC,0.00,VWS V14.01,2013-01-05 17:10:00,
2013-01-05 10:11:00,32.7,7.4,30.54,East,88,4.0,6.0,34,0.00,,SKC,0.00,VWS V14.01,2013-01-05 17:11:00,
2013-01-05 10:12:00,32.7,8.1,30.54,East,91,5.0,6.0,35,0.00,,SKC,0.00,VWS V14.01,2013-01-05 17:12:00,
2013-01-05 10:13:00,32.8,8.2,30.54,East,83,4.0,7.0,35,0.00,,SKC,0.00,VWS V14.01,2013-01-05 17:13:00,
2013-01-05 10:14:00,32.8,8.2,30.54,East,94,4.0,9.0,35,0.00,,SKC,0.00,VWS V14.01,2013-01-05 17:14:00,
2013-01-05 10:15:00,32.9,8.9,30.54,East,96,7.0,10.0,36,0.00,,SKC,0.00,VWS V14.01,2013-01-05 17:15:00,
2013-01-05 10:16:00,33.0,9.0,30.54,ESE,117,5.0,8.0,36,0.00,,SKC,0.00,VWS V14.01,2013-01-05 17:16:00,
2013-01-05 10:17:00,33.0,9.0,30.54,ESE,113,5.0,6.0,36,0.00,,SKC,0.00,VWS V14.01,2013-01-05 17:17:00,
2013-01-05 10:18:00,33.1,9.7,30.54,ESE,107,9.0,9.0,37,0.00,,SKC,0.00,VWS V14.01,2013-01-05 17:18:00,
2013-01-05 10:19:00,33.2,9.8,30.54,East,88,9.0,9.0,37,0.00,,SKC,0.00,VWS V14.01,2013-01-05 17:19:00,
2013-01-05 10:20:00,33.3,9.9,30.54,East,98,5.0,9.0,37,0.00,,SKC,0.00,VWS V14.01,2013-01-05 17:20:00,
2013-01-05 10:21:00,33.4,9.9,30.55,ENE,78,4.0,6.0,37,0.00,,SKC,0.00,VWS V14.01,2013-01-05 17:21:00,
2013-01-05 10:22:00,33.5,9.4,30.54,East,88,7.0,10.0,36,0.00,,SKC,0.00,VWS V14.01,2013-01-05 17:22:00,
2013-01-05 10:23:00,33.6,9.5,30.55,NE,47,0.0,9.0,36,0.00,,SKC,0.00,VWS V14.01,2013-01-05 17:23:00,
2013-01-05 10:24:00,33.7,9.6,30.54,ENE,65,4.0,7.0,36,0.00,,SKC,0.00,VWS V14.01,2013-01-05 17:24:00,
2013-01-05 10:25:00,33.8,9.7,30.54,ENE,72,2.0,9.0,36,0.00,,SKC,0.00,VWS V14.01,2013-01-05 17:25:00,
2013-01-05 10:26:00,33.9,9.8,30.54,East,87,10.0,10.0,36,0.00,,SKC,0.00,VWS V14.01,2013-01-05 17:26:00,
2013-01-05 10:27:00,34.0,9.9,30.54,NE,36,1.0,12.0,36,0.00,,SKC,0.00,VWS V14.01,2013-01-05 17:27:00,
2013-01-05 10:28:00,34.1,10.0,30.54,East,93,14.0,14.0,36,0.00,,SKC,0.00,VWS V14.01,2013-01-05 17:28:00,
2013-01-05 10:29:00,34.1,10.0,30.54,ENE,62,2.0,14.0,36,0.00,,SKC,0.00,VWS V14.01,2013-01-05 17:29:00,
2013-01-05 10:30:00,34.2,10.1,30.54,ENE,77,11.0,13.0,36,0.00,,SKC,0.00,VWS V14.01,2013-01-05 17:30:00,
2013-01-05 10:31:00,34.3,9.5,30.54,ENE,73,6.0,11.0,35,0.00,,SKC,0.00,VWS V14.01,2013-01-05 17:31:00,
2013-01-05 10:32:00,34.3,9.5,30.54,ENE,76,4.0,10.0,35,0.00,,SKC,0.00,VWS V14.01,2013-01-05 17:32:00,
2013-01-05 10:33:00,34.4,9.6,30.53,East,91,10.0,10.0,35,0.00,,SKC,0.00,VWS V14.01,2013-01-05 17:33:00,
2013-01-05 10:34:00,34.4,9.6,30.53,East,101,5.0,10.0,35,0.00,,SKC,0.00,VWS V14.01,2013-01-05 17:34:00,
2013-01-05 10:35:00,34.4,9.6,30.53,East,85,9.0,9.0,35,0.00,,SKC,0.00,VWS V14.01,2013-01-05 17:35:00,
2013-01-05 10:36:00,34.4,9.6,30.53,East,96,6.0,9.0,35,0.00,,SKC,0.00,VWS V14.01,2013-01-05 17:36:00,
2013-01-05 10:37:00,34.4,9.6,30.53,ESE,118,2.0,7.0,35,0.00,,SKC,0.00,VWS V14.01,2013-01-05 17:37:00,
2013-01-05 10:38:00,34.4,9.6,30.53,ESE,105,4.0,7.0,35,0.00,,SKC,0.00,VWS V14.01,2013-01-05 17:38:00,
2013-01-05 10:39:00,34.5,9.7,30.53,East,98,5.0,7.0,35,0.00,,SKC,0.00,VWS V14.01,2013-01-05 17:39:00,
2013-01-05 10:40:00,34.6,9.8,30.53,ESE,105,6.0,10.0,35,0.00,,SKC,0.00,VWS V14.01,2013-01-05 17:40:00,
2013-01-05 10:41:00,34.7,9.9,30.53,ESE,107,6.0,10.0,35,0.00,,SKC,0.00,VWS V14.01,2013-01-05 17:41:00,
2013-01-05 10:42:00,34.8,9.3,30.53,East,101,11.0,11.0,34,0.00,,SKC,0.00,VWS V14.01,2013-01-05 17:42:00,
2013-01-05 10:43:00,34.9,9.4,30.53,ESE,105,8.0,11.0,34,0.00,,SKC,0.00,VWS V14.01,2013-01-05 17:43:00,
2013-01-05 10:44:00,35.0,9.5,30.53,ESE,117,5.0,9.0,34,0.00,,SKC,0.00,VWS V14.01,2013-01-05 17:44:00,
2013-01-05 10:45:00,35.2,9.7,30.53,ENE,78,8.0,9.0,34,0.00,,SKC,0.00,VWS V14.01,2013-01-05 17:45:00,
2013-01-05 10:46:00,35.2,9.7,30.53,East,93,7.0,8.0,34,0.00,,SKC,0.00,VWS V14.01,2013-01-05 17:46:00,
2013-01-05 10:47:00,35.3,9.8,30.53,East,93,6.0,9.0,34,0.00,,SKC,0.00,VWS V14.01,2013-01-05 17:47:00,
2013-01-05 10:48:00,35.4,9.8,30.53,East,94,4.0,6.0,34,0.00,,SKC,0.00,VWS V14.01,2013-01-05 17:48:00,
2013-01-05 10:49:00,35.5,9.9,30.53,ESE,119,5.0,6.0,34,0.00,,SKC,0.00,VWS V14.01,2013-01-05 17:49:00,
2013-01-05 10:50:00,35.6,10.7,30.53,East,99,5.0,5.0,35,0.00,,SKC,0.00,VWS V14.01,2013-01-05 17:50:00,
2013-01-05 10:51:00,35.8,10.8,30.53,East,99,5.0,5.0,35,0.00,,SKC,0.00,VWS V14.01,2013-01-05 17:51:00,
2013-01-05 10:52:00,35.9,10.3,30.52,East,82,2.0,5.0,34,0.00,,SKC,0.00,VWS V14.01,2013-01-05 17:52:00,
2013-01-05 10:53:00,36.1,10.5,30.52,East,88,3.0,7.0,34,0.00,,SKC,0.00,VWS V14.01,2013-01-05 17:53:00,
2013-01-05 10:54:00,36.2,10.6,30.53,East,81,6.0,7.0,34,0.00,,SKC,0.00,VWS V14.01,2013-01-05 17:54:00,
2013-01-05 10:55:00,36.3,10.0,30.52,ENE,78,2.0,6.0,33,0.00,,SKC,0.00,VWS V14.01,2013-01-05 17:55:00,
2013-01-05 10:56:00,36.4,10.1,30.53,ENE,78,2.0,3.0,33,0.00,,SKC,0.00,VWS V14.01,2013-01-05 17:56:00,
2013-01-05 10:57:00,36.5,10.1,30.52,East,81,2.0,3.0,33,0.00,,SKC,0.00,VWS V14.01,2013-01-05 17:57:00,
2013-01-05 10:58:00,36.6,10.2,30.52,East,94,3.0,4.0,33,0.00,,SKC,0.00,VWS V14.01,2013-01-05 17:58:00,
2013-01-05 10:59:00,36.8,10.4,30.52,SSE,151,5.0,6.0,33,0.00,,SKC,0.00,VWS V14.01,2013-01-05 17:59:00,
2013-01-05 11:00:00,37.1,10.0,30.52,SSE,155,7.0,7.0,32,0.00,,SKC,0.00,VWS V14.01,2013-01-05 18:00:00,
2013-01-05 11:01:00,37.1,10.0,30.52,SE,134,5.0,7.0,32,0.00,,SKC,0.00,VWS V14.01,2013-01-05 18:01:00,
2013-01-05 11:02:00,37.3,10.2,30.52,ESE,111,4.0,6.0,32,0.00,,SKC,0.00,VWS V14.01,2013-01-05 18:02:00,
2013-01-05 11:03:00,37.4,10.2,30.52,ESE,104,5.0,5.0,32,0.00,,SKC,0.00,VWS V14.01,2013-01-05 18:03:00,
2013-01-05 11:04:00,37.5,9.6,30.52,ESE,106,9.0,9.0,31,0.00,,SKC,0.00,VWS V14.01,2013-01-05 18:04:00,
2013-01-05 11:05:00,37.6,9.7,30.52,SE,140,3.0,9.0,31,0.00,,SKC,0.00,VWS V14.01,2013-01-05 18:05:00,
2013-01-05 11:06:00,37.7,9.8,30.52,ESE,103,6.0,6.0,31,0.00,,SKC,0.00,VWS V14.01,2013-01-05 18:06:00,
2013-01-05 11:07:00,37.8,9.9,30.52,SE,130,3.0,6.0,31,0.00,,SKC,0.00,VWS V14.01,2013-01-05 18:07:00,
2013-01-05 11:08:00,38.0,10.1,30.52,ESE,110,7.0,7.0,31,0.00,,SKC,0.00,VWS V14.01,2013-01-05 18:08:00,
2013-01-05 11:09:00,38.2,9.5,30.52,ESE,107,4.0,7.0,30,0.00,,SKC,0.00,VWS V14.01,2013-01-05 18:09:00,
2013-01-05 11:10:00,38.2,8.8,30.52,SE,140,3.0,4.0,29,0.00,,SKC,0.00,VWS V14.01,2013-01-05 18:10:00,
2013-01-05 11:11:00,38.3,8.8,30.52,SE,133,3.0,7.0,29,0.00,,SKC,0.00,VWS V14.01,2013-01-05 18:11:00,
2013-01-05 11:12:00,38.4,8.9,30.52,SE,128,5.0,5.0,29,0.00,,SKC,0.00,VWS V14.01,2013-01-05 18:12:00,
2013-01-05 11:13:00,38.5,8.2,30.52,SE,125,5.0,5.0,28,0.00,,SKC,0.00,VWS V14.01,2013-01-05 18:13:00,
2013-01-05 11:14:00,38.5,7.4,30.52,ESE,107,4.0,5.0,27,0.00,,SKC,0.00,VWS V14.01,2013-01-05 18:14:00,
2013-01-05 11:15:00,38.6,9.9,30.52,SE,131,7.0,7.0,30,0.00,,SKC,0.00,VWS V14.01,2013-01-05 18:15:00,
2013-01-05 11:16:00,38.7,9.9,30.52,SE,131,6.0,7.0,30,0.00,,SKC,0.00,VWS V14.01,2013-01-05 18:16:00,
2013-01-05 11:17:00,38.8,10.0,30.52,ESE,122,6.0,7.0,30,0.00,,SKC,0.00,VWS V14.01,2013-01-05 18:17:00,
2013-01-05 11:18:00,38.9,8.6,30.52,SE,135,6.0,6.0,28,0.00,,SKC,0.00,VWS V14.01,2013-01-05 18:18:00,
2013-01-05 11:19:00,39.1,8.8,30.51,North,360,6.0,7.0,28,0.00,,SKC,0.00,VWS V14.01,2013-01-05 18:19:00,
2013-01-05 11:20:00,39.1,7.1,30.51,SSE,152,1.0,6.0,26,0.00,,SKC,0.00,VWS V14.01,2013-01-05 18:20:00,
2013-01-05 11:21:00,39.1,6.3,30.51,South,184,9.0,10.0,25,0.00,,SKC,0.00,VWS V14.01,2013-01-05 18:21:00,
2013-01-05 11:22:00,39.1,7.9,30.51,South,186,4.0,10.0,27,0.00,,SKC,0.00,VWS V14.01,2013-01-05 18:22:00,
2013-01-05 11:23:00,39.1,8.8,30.51,South,184,3.0,4.0,28,0.00,,SKC,0.00,VWS V14.01,2013-01-05 18:23:00,
2013-01-05 11:24:00,39.2,8.9,30.51,SSW,194,3.0,4.0,28,0.00,,SKC,0.00,VWS V14.01,2013-01-05 18:24:00,
2013-01-05 11:25:00,39.3,8.1,30.51,SSW,196,4.0,4.0,27,0.00,,SKC,0.00,VWS V14.01,2013-01-05 18:25:00,
2013-01-05 11:26:00,39.5,7.5,30.51,SSW,209,3.0,9.0,26,0.00,,SKC,0.00,VWS V14.01,2013-01-05 18:26:00,
2013-01-05 11:27:00,39.6,7.6,30.51,SSW,206,2.0,5.0,26,0.00,,SKC,0.00,VWS V14.01,2013-01-05 18:27:00,
2013-01-05 11:28:00,39.8,7.7,30.51,SW,217,4.0,4.0,26,0.00,,SKC,0.00,VWS V14.01,2013-01-05 18:28:00,
2013-01-05 11:29:00,39.9,6.9,30.51,SSW,196,7.0,10.0,25,0.00,,SKC,0.00,VWS V14.01,2013-01-05 18:29:00,
2013-01-05 11:30:00,40.0,6.1,30.51,SSW,192,4.0,7.0,24,0.00,,SKC,0.00,VWS V14.01,2013-01-05 18:30:00,
2013-01-05 11:31:00,40.1,6.2,30.51,South,184,3.0,5.0,24,0.00,,SKC,0.00,VWS V14.01,2013-01-05 18:31:00,
2013-01-05 11:32:00,40.4,9.1,30.51,SSW,192,3.0,3.0,27,0.00,,SKC,0.00,VWS V14.01,2013-01-05 18:32:00,
2013-01-05 11:33:00,40.5,9.2,30.51,South,188,5.0,6.0,27,0.00,,SKC,0.00,VWS V14.01,2013-01-05 18:33:00,
2013-01-05 11:34:00,40.7,9.3,30.51,East,94,6.0,7.0,27,0.00,,SKC,0.00,VWS V14.01,2013-01-05 18:34:00,
2013-01-05 11:35:00,40.8,9.4,30.51,East,89,2.0,7.0,27,0.00,,SKC,0.00,VWS V14.01,2013-01-05 18:35:00,
2013-01-05 11:36:00,40.9,8.7,30.50,East,96,1.0,3.0,26,0.00,,SKC,0.00,VWS V14.01,2013-01-05 18:36:00,
2013-01-05 11:37:00,41.1,8.8,30.50,ENE,69,0.0,3.0,26,0.00,,SKC,0.00,VWS V14.01,2013-01-05 18:37:00,
2013-01-05 11:38:00,41.2,8.1,30.50,South,191,5.0,11.0,25,0.00,,SKC,0.00,VWS V14.01,2013-01-05 18:38:00,
2013-01-05 11:39:00,41.4,7.3,30.50,South,178,4.0,6.0,24,0.00,,SKC,0.00,VWS V14.01,2013-01-05 18:39:00,
2013-01-05 11:40:00,41.5,5.5,30.50,West,270,16.0,16.0,22,0.00,,SKC,0.00,VWS V14.01,2013-01-05 18:40:00,
2013-01-05 11:41:00,41.5,4.5,30.50,West,269,10.0,17.0,21,0.00,,SKC,0.00,VWS V14.01,2013-01-05 18:41:00,
2013-01-05 11:42:00,41.5,5.5,30.49,SW,228,20.0,20.0,22,0.00,,SKC,0.00,VWS V14.01,2013-01-05 18:42:00,
2013-01-05 11:43:00,41.5,3.4,30.49,North,360,19.0,20.0,20,0.00,,SKC,0.00,VWS V14.01,2013-01-05 18:43:00,
2013-01-05 11:44:00,41.3,3.3,30.49,North,360,17.0,22.0,20,0.00,,SKC,0.00,VWS V14.01,2013-01-05 18:44:00,
2013-01-05 11:45:00,41.1,4.2,30.49,West,267,17.0,17.0,21,0.00,,SKC,0.00,VWS V14.01,2013-01-05 18:45:00,
2013-01-05 11:46:00,40.9,2.9,30.49,West,277,13.0,17.0,20,0.00,,SKC,0.00,VWS V14.01,2013-01-05 18:46:00,
2013-01-05 11:47:00,40.7,2.8,30.49,North,360,11.0,17.0,20,0.00,,SKC,0.00,VWS V14.01,2013-01-05 18:47:00,
2013-01-05 11:48:00,40.5,3.7,30.49,WSW,256,20.0,26.0,21,0.00,,SKC,0.00,VWS V14.01,2013-01-05 18:48:00,
2013-01-05 11:49:00,40.4,3.6,30.49,West,261,10.0,20.0,21,0.00,,SKC,0.00,VWS V14.01,2013-01-05 18:49:00,
2013-01-05 11:50:00,40.3,3.5,30.49,West,275,25.0,25.0,21,0.00,,SKC,0.00,VWS V14.01,2013-01-05 18:50:00,
2013-01-05 11:51:00,40.2,3.4,30.48,WSW,253,19.0,30.0,21,0.00,,SKC,0.00,VWS V14.01,2013-01-05 18:51:00,
2013-01-05 11:52:00,40.1,3.3,30.48,WSW,257,17.0,19.0,21,0.00,,SKC,0.00,VWS V14.01,2013-01-05 18:52:00,
2013-01-05 11:53:00,40.0,3.2,30.48,SW,226,21.0,29.0,21,0.00,,SKC,0.00,VWS V14.01,2013-01-05 18:53:00,
2013-01-05 11:54:00,40.0,3.2,30.48,WNW,289,13.0,21.0,21,0.00,,SKC,0.00,VWS V14.01,2013-01-05 18:54:00,
2013-01-05 11:55:00,40.0,3.2,30.48,WNW,287,14.0,24.0,21,0.00,,SKC,0.00,VWS V14.01,2013-01-05 18:55:00,
2013-01-05 11:56:00,39.9,3.2,30.48,WNW,287,20.0,23.0,21,0.00,,SKC,0.00,VWS V14.01,2013-01-05 18:56:00,
2013-01-05 11:57:00,39.8,3.1,30.48,WNW,303,11.0,25.0,21,0.00,,SKC,0.00,VWS V14.01,2013-01-05 18:57:00,
2013-01-05 11:58:00,39.8,4.1,30.48,North,360,22.0,22.0,22,0.00,,SKC,0.00,VWS V14.01,2013-01-05 18:58:00,
2013-01-05 11:59:00,39.8,3.1,30.48,North,360,20.0,22.0,21,0.00,,SKC,0.00,VWS V14.01,2013-01-05 18:59:00,
2013-01-05 12:00:00,39.8,3.1,30.48,WNW,302,28.0,28.0,21,0.00,,SKC,0.00,VWS V14.01,2013-01-05 19:00:00,
2013-01-05 12:01:00,39.8,3.1,30.48,North,360,20.0,36.0,21,0.00,,SKC,0.00,VWS V14.01,2013-01-05 19:01:00,
2013-01-05 12:02:00,39.6,2.9,30.48,North,360,19.0,25.0,21,0.00,,SKC,0.00,VWS V14.01,2013-01-05 19:02:00,
2013-01-05 12:03:00,39.6,3.9,30.48,WNW,286,22.0,22.0,22,0.00,,SKC,0.00,VWS V14.01,2013-01-05 19:03:00,
2013-01-05 12:04:00,39.6,2.9,30.48,WNW,284,12.0,23.0,21,0.00,,SKC,0.00,VWS V14.01,2013-01-05 19:04:00,
2013-01-05 12:05:00,39.7,3.0,30.48,West,263,13.0,21.0,21,0.00,,SKC,0.00,VWS V14.01,2013-01-05 19:05:00,
2013-01-05 12:06:00,39.7,3.0,30.48,West,264,22.0,25.0,21,0.00,,SKC,0.00,VWS V14.01,2013-01-05 19:06:00,
2013-01-05 12:07:00,39.6,2.9,30.48,West,259,17.0,28.0,21,0.00,,SKC,0.00,VWS V14.01,2013-01-05 19:07:00,
2013-01-05 12:08:00,39.6,2.9,30.48,South,188,19.0,26.0,21,0.00,,SKC,0.00,VWS V14.01,2013-01-05 19:08:00,
2013-01-05 12:09:00,39.5,2.8,30.48,SW,222,20.0,22.0,21,0.00,,SKC,0.00,VWS V14.01,2013-01-05 19:09:00,
2013-01-05 12:10:00,39.5,2.8,30.48,West,259,24.0,24.0,21,0.00,,SKC,0.00,VWS V14.01,2013-01-05 19:10:00,
2013-01-05 12:11:00,39.4,3.7,30.48,WSW,238,18.0,24.0,22,0.00,,SKC,0.00,VWS V14.01,2013-01-05 19:11:00,
2013-01-05 12:12:00,39.4,2.7,30.48,WNW,298,17.0,23.0,21,0.00,,SKC,0.00,VWS V14.01,2013-01-05 19:12:00,
2013-01-05 12:13:00,39.5,3.8,30.49,WSW,246,21.0,26.0,22,0.00,,SKC,0.00,VWS V14.01,2013-01-05 19:13:00,
2013-01-05 12:14:00,39.5,3.8,30.48,WSW,248,26.0,31.0,22,0.00,,SKC,0.00,VWS V14.01,2013-01-05 19:14:00,
2013-01-05 12:15:00,39.5,2.8,30.48,SW,227,25.0,28.0,21,0.00,,SKC,0.00,VWS V14.01,2013-01-05 19:15:00,
2013-01-05 12:16:00,39.3,2.6,30.48,West,272,23.0,30.0,21,0.00,,SKC,0.00,VWS V14.01,2013-01-05 19:16:00,
2013-01-05 12:17:00,39.2,2.6,30.48,WSW,253,17.0,30.0,21,0.00,,SKC,0.00,VWS V14.01,2013-01-05 19:17:00,
2013-01-05 12:18:00,39.1,2.5,30.48,West,273,26.0,26.0,21,0.00,,SKC,0.00,VWS V14.01,2013-01-05 19:18:00,
2013-01-05 12:19:00,39.0,3.4,30.48,WNW,286,12.0,27.0,22,0.00,,SKC,0.00,VWS V14.01,2013-01-05 19:19:00,
2013-01-05 12:20:00,39.1,3.5,30.48,WSW,247,22.0,23.0,22,0.00,,SKC,0.00,VWS V14.01,2013-01-05 19:20:00,
2013-01-05 12:21:00,39.1,2.5,30.49,North,360,23.0,30.0,21,0.00,,SKC,0.00,VWS V14.01,2013-01-05 19:21:00,
2013-01-05 12:22:00,39.2,3.6,30.48,North,360,20.0,24.0,22,0.00,,SKC,0.00,VWS V14.01,2013-01-05 19:22:00,
2013-01-05 12:23:00,39.2,2.6,30.48,WSW,256,20.0,31.0,21,0.00,,SKC,0.00,VWS V14.01,2013-01-05 19:23:00,
2013-01-05 12:24:00,39.1,2.5,30.48,North,360,23.0,30.0,21,0.00,,SKC,0.00,VWS V14.01,2013-01-05 19:24:00,
2013-01-05 12:25:00,39.0,3.4,30.48,West,271,24.0,33.0,22,0.00,,SKC,0.00,VWS V14.01,2013-01-05 19:25:00,
2013-01-05 12:26:00,39.0,2.4,30.48,WSW,247,29.0,29.0,21,0.00,,SKC,0.00,VWS V14.01,2013-01-05 19:26:00,
2013-01-05 12:27:00,39.0,2.4,30.48,WSW,247,19.0,29.0,21,0.00,,SKC,0.00,VWS V14.01,2013-01-05 19:27:00,
2013-01-05 12:28:00,38.9,2.3,30.48,WSW,237,24.0,31.0,21,0.00,,SKC,0.00,VWS V14.01,2013-01-05 19:28:00,
2013-01-05 12:29:00,38.9,2.3,30.49,West,259,21.0,24.0,21,0.00,,SKC,0.00,VWS V14.01,2013-01-05 19:29:00,
2013-01-05 12:30:00,38.9,2.3,30.48,West,275,28.0,35.0,21,0.00,,SKC,0.00,VWS V14.01,2013-01-05 19:30:00,
2013-01-05 12:31:00,38.9,3.3,30.48,West,273,24.0,36.0,22,0.00,,SKC,0.00,VWS V14.01,2013-01-05 19:31:00,
2013-01-05 12:32:00,38.9,2.3,30.49,SW,229,21.0,24.0,21,0.00,,SKC,0.00,VWS V14.01,2013-01-05 19:32:00,
2013-01-05 12:33:00,39.0,3.4,30.48,WSW,258,20.0,24.0,22,0.00,,SKC,0.00,VWS V14.01,2013-01-05 19:33:00,
2013-01-05 12:34:00,39.0,2.4,30.48,North,360,24.0,33.0,21,0.00,,SKC,0.00,VWS V14.01,2013-01-05 19:34:00,
2013-01-05 12:35:00,39.0,2.4,30.49,WSW,242,16.0,25.0,21,0.00,,SKC,0.00,VWS V14.01,2013-01-05 19:35:00,
2013-01-05 12:36:00,39.0,3.4,30.49,West,265,21.0,26.0,22,0.00,,SKC,0.00,VWS V14.01,2013-01-05 19:36:00,
2013-01-05 12:37:00,39.0,3.4,30.49,WSW,256,22.0,28.0,22,0.00,,SKC,0.00,VWS V14.01,2013-01-05 19:37:00,
2013-01-05 12:38:00,39.1,2.5,30.49,West,262,26.0,27.0,21,0.00,,SKC,0.00,VWS V14.01,2013-01-05 19:38:00,
2013-01-05 12:39:00,39.1,2.5,30.49,SW,231,16.0,27.0,21,0.00,,SKC,0.00,VWS V14.01,2013-01-05 19:39:00,
2013-01-05 12:40:00,39.1,2.5,30.49,North,360,24.0,30.0,21,0.00,,SKC,0.00,VWS V14.01,2013-01-05 19:40:00,
2013-01-05 12:41:00,39.1,2.5,30.49,West,277,18.0,33.0,21,0.00,,SKC,0.00,VWS V14.01,2013-01-05 19:41:00,
2013-01-05 12:42:00,39.0,2.4,30.49,North,360,22.0,23.0,21,0.00,,SKC,0.00,VWS V14.01,2013-01-05 19:42:00,
2013-01-05 12:43:00,39.0,2.4,30.50,West,264,23.0,25.0,21,0.00,,SKC,0.00,VWS V14.01,2013-01-05 19:43:00,
2013-01-05 12:44:00,38.9,2.3,30.50,WSW,252,26.0,26.0,21,0.00,,SKC,0.00,VWS V14.01,2013-01-05 19:44:00,
2013-01-05 12:45:00,39.0,2.4,30.50,WSW,253,20.0,26.0,21,0.00,,SKC,0.00,VWS V14.01,2013-01-05 19:45:00,
2013-01-05 12:46:00,39.0,2.4,30.50,North,360,20.0,20.0,21,0.00,,SKC,0.00,VWS V14.01,2013-01-05 19:46:00,
2013-01-05 12:47:00,39.1,3.5,30.50,West,269,21.0,27.0,22,0.00,,SKC,0.00,VWS V14.01,2013-01-05 19:47:00,
2013-01-05 12:48:00,39.1,2.5,30.50,West,260,18.0,25.0,21,0.00,,SKC,0.00,VWS V14.01,2013-01-05 19:48:00,
2013-01-05 12:49:00,39.1,2.5,30.50,North,360,22.0,31.0,21,0.00,,SKC,0.00,VWS V14.01,2013-01-05 19:49:00,
2013-01-05 12:50:00,39.1,2.5,30.50,West,270,27.0,31.0,21,0.00,,SKC,0.00,VWS V14.01,2013-01-05 19:50:00,
2013-01-05 12:51:00,39.2,2.6,30.51,WSW,245,23.0,27.0,21,0.00,,SKC,0.00,VWS V14.01,2013-01-05 19:51:00,
2013-01-05 12:52:00,39.2,3.6,30.51,SW,236,23.0,26.0,22,0.00,,SKC,0.00,VWS V14.01,2013-01-05 19:52:00,
2013-01-05 12:53:00,39.1,2.5,30.51,SW,217,14.0,31.0,21,0.00,,SKC,0.00,VWS V14.01,2013-01-05 19:53:00,
2013-01-05 12:54:00,39.1,3.5,30.52,SSW,199,5.0,14.0,22,0.00,,SKC,0.00,VWS V14.01,2013-01-05 19:54:00,
2013-01-05 12:55:00,39.2,3.6,30.52,North,360,9.0,12.0,22,0.00,,SKC,0.00,VWS V14.01,2013-01-05 19:55:00,
2013-01-05 12:56:00,39.3,6.4,30.52,NW,304,11.0,17.0,25,0.00,,SKC,0.00,VWS V14.01,2013-01-05 19:56:00,
2013-01-05 12:57:00,39.2,4.5,30.51,East,97,6.0,13.0,23,0.00,,SKC,0.00,VWS V14.01,2013-01-05 19:57:00,
2013-01-05 12:58:00,39.0,7.9,30.52,NNE,24,4.0,6.0,27,0.00,,SKC,0.00,VWS V14.01,2013-01-05 19:58:00,
2013-01-05 12:59:00,38.7,7.6,30.52,ENE,72,4.0,7.0,27,0.00,,SKC,0.00,VWS V14.01,2013-01-05 19:59:00,
2013-01-05 13:00:00,38.5,9.0,30.52,North,11,0.0,9.0,29,0.00,,SKC,0.00,VWS V14.01,2013-01-05 20:00:00,
2013-01-05 13:01:00,38.5,9.0,30.52,SE,141,7.0,16.0,29,0.00,,SKC,0.00,VWS V14.01,2013-01-05 20:01:00,
2013-01-05 13:02:00,38.4,8.9,30.52,SSE,152,4.0,11.0,29,0.00,,SKC,0.00,VWS V14.01,2013-01-05 20:02:00,
2013-01-05 13:03:00,38.5,10.5,30.52,East,88,3.0,8.0,31,0.00,,SKC,0.00,VWS V14.01,2013-01-05 20:03:00,
2013-01-05 13:04:00,38.5,10.5,30.52,ESE,111,4.0,15.0,31,0.00,,SKC,0.00,VWS V14.01,2013-01-05 20:04:00,
2013-01-05 13:05:00,38.5,11.2,30.52,North,360,11.0,13.0,32,0.00,,SKC,0.00,VWS V14.01,2013-01-05 20:05:00,
2013-01-05 13:06:00,38.5,11.2,30.53,ESE,113,9.0,16.0,32,0.00,,SKC,0.00,VWS V14.01,2013-01-05 20:06:00,
2013-01-05 13:07:00,38.2,10.9,30.52,SE,132,14.0,17.0,32,0.00,,SKC,0.00,VWS V14.01,2013-01-05 20:07:00,
2013-01-05 13:08:00,37.8,10.6,30.53,SE,136,13.0,16.0,32,0.00,,SKC,0.00,VWS V14.01,2013-01-05 20:08:00,
2013-01-05 13:09:00,37.4,10.9,30.53,SE,144,5.0,16.0,33,0.00,,SKC,0.00,VWS V14.01,2013-01-05 20:09:00,
2013-01-05 13:10:00,37.0,10.6,30.53,SSE,147,4.0,12.0,33,0.00,,SKC,0.00,VWS V14.01,2013-01-05 20:10:00,
2013-01-05 13:11:00,36.7,11.0,30.53,ESE,110,9.0,12.0,34,0.00,,SKC,0.00,VWS V14.01,2013-01-05 20:11:00,
2013-01-05 13:12:00,36.6,11.6,30.53,East,90,10.0,13.0,35,0.00,,SKC,0.00,VWS V14.01,2013-01-05 20:12:00,
2013-01-05 13:13:00,36.6,11.6,30.53,ESE,113,5.0,10.0,35,0.00,,SKC,0.00,VWS V14.01,2013-01-05 20:13:00,
2013-01-05 13:14:00,36.7,11.6,30.53,East,88,8.0,13.0,35,0.00,,SKC,0.00,VWS V14.01,2013-01-05 20:14:00,
2013-01-05 13:15:00,36.8,11.1,30.54,East,90,5.0,10.0,34,0.00,,SKC,0.00,VWS V14.01,2013-01-05 20:15:00,
2013-01-05 13:16:00,36.9,11.8,30.53,ESE,117,6.0,9.0,35,0.00,,SKC,0.00,VWS V14.01,2013-01-05 20:16:00,
2013-01-05 13:17:00,37.1,12.0,30.53,North,360,11.0,13.0,35,0.00,,SKC,0.00,VWS V14.01,2013-01-05 20:17:00,
2013-01-05 13:18:00,37.3,12.2,30.53,SE,134,12.0,12.0,35,0.00,,SKC,0.00,VWS V14.01,2013-01-05 20:18:00,
2013-01-05 13:19:00,37.4,12.3,30.53,ESE,108,8.0,15.0,35,0.00,,SKC,0.00,VWS V14.01,2013-01-05 20:19:00,
2013-01-05 13:20:00,37.4,12.3,30.54,East,89,5.0,12.0,35,0.00,,SKC,0.00,VWS V14.01,2013-01-05 20:20:00,
2013-01-05 13:21:00,37.5,12.4,30.54,East,97,12.0,16.0,35,0.00,,SKC,0.00,VWS V14.01,2013-01-05 20:21:00,
2013-01-05 13:22:00,37.5,11.7,30.54,ENE,69,2.0,12.0,34,0.00,,SKC,0.00,VWS V14.01,2013-01-05 20:22:00,
2013-01-05 13:23:00,37.5,11.7,30.54,East,90,10.0,13.0,34,0.00,,SKC,0.00,VWS V14.01,2013-01-05 20:23:00,
2013-01-05 13:24:00,37.6,12.4,30.54,ESE,105,12.0,12.0,35,0.00,,SKC,0.00,VWS V14.01,2013-01-05 20:24:00,
2013-01-05 13:25:00,37.6,12.4,30.54,East,94,9.0,14.0,35,0.00,,SKC,0.00,VWS V14.01,2013-01-05 20:25:00,
2013-01-05 13:26:00,37.7,12.5,30.54,North,360,15.0,17.0,35,0.00,,SKC,0.00,VWS V14.01,2013-01-05 20:26:00,
2013-01-05 13:27:00,37.7,12.5,30.54,East,96,7.0,15.0,35,0.00,,SKC,0.00,VWS V14.01,2013-01-05 20:27:00,
2013-01-05 13:28:00,37.7,12.5,30.54,SE,125,7.0,10.0,35,0.00,,SKC,0.00,VWS V14.01,2013-01-05 20:28:00,
2013-01-05 13:29:00,37.8,12.6,30.54,ESE,121,6.0,12.0,35,0.00,,SKC,0.00,VWS V14.01,2013-01-05 20:29:00,
2013-01-05 13:30:00,37.8,12.6,30.54,East,86,9.0,10.0,35,0.00,,SKC,0.00,VWS V14.01,2013-01-05 20:30:00,
2013-01-05 13:31:00,37.8,12.6,30.54,North,360,6.0,9.0,35,0.00,,SKC,0.00,VWS V14.01,2013-01-05 20:31:00,
2013-01-05 13:32:00,37.8,12.6,30.54,ENE,67,4.0,12.0,35,0.00,,SKC,0.00,VWS V14.01,2013-01-05 20:32:00,
2013-01-05 13:33:00,37.8,12.6,30.54,SE,127,13.0,13.0,35,0.00,,SKC,0.00,VWS V14.01,2013-01-05 20:33:00,
2013-01-05 13:34:00,37.8,12.6,30.55,ESE,103,8.0,14.0,35,0.00,,SKC,0.00,VWS V14.01,2013-01-05 20:34:00,
2013-01-05 13:35:00,37.9,12.7,30.55,East,82,6.0,12.0,35,0.00,,SKC,0.00,VWS V14.01,2013-01-05 20:35:00,
2013-01-05 13:36:00,37.9,12.7,30.55,East,88,6.0,8.0,35,0.00,,SKC,0.00,VWS V14.01,2013-01-05 20:36:00,
2013-01-05 13:37:00,38.0,13.4,30.55,ENE,77,9.0,9.0,36,0.00,,SKC,0.00,VWS V14.01,2013-01-05 20:37:00,
2013-01-05 13:38:00,38.0,12.8,30.55,East,96,8.0,11.0,35,0.00,,SKC,0.00,VWS V14.01,2013-01-05 20:38:00,
2013-01-05 13:39:00,38.1,12.9,30.55,East,86,11.0,14.0,35,0.00,,SKC,0.00,VWS V14.01,2013-01-05 20:39:00,
2013-01-05 13:40:00,38.1,12.2,30.55,East,89,7.0,14.0,34,0.00,,SKC,0.00,VWS V14.01,2013-01-05 20:40:00,
2013-01-05 13:41:00,38.0,12.1,30.55,ESE,105,11.0,16.0,34,0.00,,SKC,0.00,VWS V14.01,2013-01-05 20:41:00,
2013-01-05 13:42:00,38.0,12.8,30.55,East,82,11.0,13.0,35,0.00,,SKC,0.00,VWS V14.01,2013-01-05 20:42:00,
2013-01-05 13:43:00,37.9,12.7,30.55,East,86,7.0,13.0,35,0.00,,SKC,0.00,VWS V14.01,2013-01-05 20:43:00,
2013-01-05 13:44:00,37.8,12.6,30.55,ESE,103,14.0,17.0,35,0.00,,SKC,0.00,VWS V14.01,2013-01-05 20:44:00,
2013-01-05 13:45:00,37.7,12.5,30.55,ESE,107,10.0,14.0,35,0.00,,SKC,0.00,VWS V14.01,2013-01-05 20:45:00,
2013-01-05 13:46:00,37.5,12.4,30.55,ESE,111,11.0,14.0,35,0.00,,SKC,0.00,VWS V14.01,2013-01-05 20:46:00,
2013-01-05 13:47:00,37.5,12.4,30.55,East,93,10.0,15.0,35,0.00,,SKC,0.00,VWS V14.01,2013-01-05 20:47:00,
2013-01-05 13:48:00,37.4,12.3,30.55,ESE,117,9.0,15.0,35,0.00,,SKC,0.00,VWS V14.01,2013-01-05 20:48:00,
2013-01-05 13:49:00,37.3,12.2,30.55,East,98,14.0,15.0,35,0.00,,SKC,0.00,VWS V14.01,2013-01-05 20:49:00,
2013-01-05 13:50:00,37.2,12.1,30.55,ESE,108,7.0,14.0,35,0.00,,SKC,0.00,VWS V14.01,2013-01-05 20:50:00,
2013-01-05 13:51:00,37.2,12.7,30.55,East,94,9.0,9.0,36,0.00,,SKC,0.00,VWS V14.01,2013-01-05 20:51:00,
2013-01-05 13:52:00,37.2,12.7,30.55,East,97,9.0,13.0,36,0.00,,SKC,0.00,VWS V14.01,2013-01-05 20:52:00,
2013-01-05 13:53:00,37.2,12.7,30.55,ENE,73,13.0,13.0,36,0.00,,SKC,0.00,VWS V14.01,2013-01-05 20:53:00,
2013-01-05 13:54:00,37.3,12.8,30.55,ENE,76,10.0,13.0,36,0.00,,SKC,0.00,VWS V14.01,2013-01-05 20:54:00,
2013-01-05 13:55:00,37.3,12.2,30.55,East,95,6.0,11.0,35,0.00,,SKC,0.00,VWS V14.01,2013-01-05 20:55:00,
2013-01-05 13:56:00,37.4,12.9,30.55,East,84,9.0,11.0,36,0.00,,SKC,0.00,VWS V14.01,2013-01-05 20:56:00,
2013-01-05 13:57:00,37.4,12.9,30.55,East,80,7.0,12.0,36,0.00,,SKC,0.00,VWS V14.01,2013-01-05 20:57:00,
2013-01-05 13:58:00,37.5,12.4,30.55,East,97,9.0,11.0,35,0.00,,SKC,0.00,VWS V14.01,2013-01-05 20:58:00,
2013-01-05 13:59:00,37.6,12.4,30.55,East,88,8.0,14.0,35,0.00,,SKC,0.00,VWS V14.01,2013-01-05 20:59:00,
2013-01-05 14:00:00,37.7,12.5,30.55,East,96,7.0,8.0,35,0.00,,SKC,0.00,VWS V14.01,2013-01-05 21:00:00,
2013-01-05 14:01:00,37.8,12.6,30.55,East,100,13.0,13.0,35,0.00,,SKC,0.00,VWS V14.01,2013-01-05 21:01:00,
2013-01-05 14:02:00,37.9,12.7,30.55,East,93,7.0,13.0,35,0.00,,SKC,0.00,VWS V14.01,2013-01-05 21:02:00,
2013-01-05 14:03:00,38.0,12.8,30.55,East,88,9.0,9.0,35,0.00,,SKC,0.00,VWS V14.01,2013-01-05 21:03:00,
2013-01-05 14:04:00,38.1,12.2,30.56,ESE,110,5.0,10.0,34,0.00,,SKC,0.00,VWS V14.01,2013-01-05 21:04:00,
2013-01-05 14:05:00,38.2,12.3,30.56,East,101,10.0,13.0,34,0.00,,SKC,0.00,VWS V14.01,2013-01-05 21:05:00,
2013-01-05 14:06:00,38.1,12.2,30.56,North,360,10.0,12.0,34,0.00,,SKC,0.00,VWS V14.01,2013-01-05 21:06:00,
2013-01-05 14:07:00,38.1,12.2,30.56,North,360,10.0,12.0,34,0.00,,SKC,0.00,VWS V14.01,2013-01-05 21:07:00,
2013-01-05 14:08:00,38.0,12.1,30.56,East,92,15.0,15.0,34,0.00,,SKC,0.00,VWS V14.01,2013-01-05 21:08:00,
2013-01-05 14:09:00,38.0,12.1,30.56,East,98,11.0,19.0,34,0.00,,SKC,0.00,VWS V14.01,2013-01-05 21:09:00,
2013-01-05 14:10:00,37.9,12.7,30.56,ENE,78,13.0,19.0,35,0.00,,SKC,0.00,VWS V14.01,2013-01-05 21:10:00,
2013-01-05 14:11:00,37.8,12.6,30.56,East,79,17.0,17.0,35,0.00,,SKC,0.00,VWS V14.01,2013-01-05 21:11:00,
2013-01-05 14:12:00,37.7,12.5,30.56,East,92,6.0,17.0,35,0.00,,SKC,0.00,VWS V14.01,2013-01-05 21:12:00,
2013-01-05 14:13:00,37.7,12.5,30.56,East,87,15.0,15.0,35,0.00,,SKC,0.00,VWS V14.01,2013-01-05 21:13:00,
2013-01-05 14:14:00,37.6,11.8,30.56,ESE,106,9.0,15.0,34,0.00,,SKC,0.00,VWS V14.01,2013-01-05 21:14:00,
2013-01-05 14:15:00,37.5,12.4,30.56,ESE,107,4.0,9.0,35,0.00,,SKC,0.00,VWS V14.01,2013-01-05 21:15:00,
2013-01-05 14:16:00,37.5,12.4,30.56,East,86,9.0,11.0,35,0.00,,SKC,0.00,VWS V14.01,2013-01-05 21:16:00,
2013-01-05 14:17:00,37.4,12.3,30.56,East,94,11.0,16.0,35,0.00,,SKC,0.00,VWS V14.01,2013-01-05 21:17:00,
2013-01-05 14:18:00,37.3,12.2,30.56,East,94,8.0,13.0,35,0.00,,SKC,0.00,VWS V14.01,2013-01-05 21:18:00,
2013-01-05 14:19:00,37.2,12.1,30.56,East,92,9.0,13.0,35,0.00,,SKC,0.00,VWS V14.01,2013-01-05 21:19:00,
2013-01-05 14:20:00,37.2,12.1,30.56,ESE,105,15.0,15.0,35,0.00,,SKC,0.00,VWS V14.01,2013-01-05 21:20:00,
2013-01-05 14:21:00,37.2,12.7,30.56,East,91,11.0,15.0,36,0.00,,SKC,0.00,VWS V14.01,2013-01-05 21:21:00,
2013-01-05 14:22:00,37.1,12.0,30.56,East,96,11.0,13.0,35,0.00,,SKC,0.00,VWS V14.01,2013-01-05 21:22:00,
2013-01-05 14:23:00,37.1,12.0,30.56,ESE,109,17.0,17.0,35,0.00,,SKC,0.00,VWS V14.01,2013-01-05 21:23:00,
2013-01-05 14:24:00,37.0,12.5,30.56,ESE,111,13.0,17.0,36,0.00,,SKC,0.00,VWS V14.01,2013-01-05 21:24:00,
2013-01-05 14:25:00,37.0,12.5,30.56,East,84,7.0,13.0,36,0.00,,SKC,0.00,VWS V14.01,2013-01-05 21:25:00,
2013-01-05 14:26:00,37.0,12.5,30.56,East,95,7.0,10.0,36,0.00,,SKC,0.00,VWS V14.01,2013-01-05 21:26:00,
2013-01-05 14:27:00,37.0,12.5,30.56,East,99,10.0,10.0,36,0.00,,SKC,0.00,VWS V14.01,2013-01-05 21:27:00,
2013-01-05 14:28:00,37.0,12.5,30.56,ESE,105,9.0,12.0,36,0.00,,SKC,0.00,VWS V14.01,2013-01-05 21:28:00,
2013-01-05 14:29:00,37.1,12.6,30.56,East,91,6.0,10.0,36,0.00,,SKC,0.00,VWS V14.01,2013-01-05 21:29:00,
2013-01-05 14:30:00,37.2,12.7,30.57,East,98,6.0,7.0,36,0.00,,SKC,0.00,VWS V14.01,2013-01-05 21:30:00,
2013-01-05 14:31:00,37.3,12.8,30.56,ESE,113,5.0,7.0,36,0.00,,SKC,0.00,VWS V14.01,2013-01-05 21:31:00,
2013-01-05 14:32:00,37.4,12.9,30.56,ESE,113,5.0,7.0,36,0.00,,SKC,0.00,VWS V14.01,2013-01-05 21:32:00,
2013-01-05 14:33:00,37.5,13.0,30.56,ESE,105,12.0,12.0,36,0.00,,SKC,0.00,VWS V14.01,2013-01-05 21:33:00,
2013-01-05 14:34:00,37.5,12.4,30.56,North,360,5.0,12.0,35,0.00,,SKC,0.00,VWS V14.01,2013-01-05 21:34:00,
2013-01-05 14:35:00,37.6,13.1,30.56,ESE,116,6.0,7.0,36,0.00,,SKC,0.00,VWS V14.01,2013-01-05 21:35:00,
2013-01-05 14:36:00,37.7,13.2,30.57,East,98,8.0,8.0,36,0.00,,SKC,0.00,VWS V14.01,2013-01-05 21:36:00,
2013-01-05 14:37:00,37.7,13.2,30.56,ESE,111,5.0,12.0,36,0.00,,SKC,0.00,VWS V14.01,2013-01-05 21:37:00,
2013-01-05 14:38:00,37.7,13.2,30.56,ESE,108,12.0,13.0,36,0.00,,SKC,0.00,VWS V14.01,2013-01-05 21:38:00,
2013-01-05 14:39:00,37.7,13.2,30.57,East,93,6.0,13.0,36,0.00,,SKC,0.00,VWS V14.01,2013-01-05 21:39:00,
2013-01-05 14:40:00,37.6,13.1,30.57,ESE,106,7.0,10.0,36,0.00,,SKC,0.00,VWS V14.01,2013-01-05 21:40:00,
2013-01-05 14:41:00,37.6,13.1,30.57,ESE,119,6.0,7.0,36,0.00,,SKC,0.00,VWS V14.01,2013-01-05 21:41:00,
2013-01-05 14:42:00,37.6,13.1,30.57,SE,127,2.0,9.0,36,0.00,,SKC,0.00,VWS V14.01,2013-01-05 21:42:00,
2013-01-05 14:43:00,37.6,13.1,30.57,East,97,5.0,6.0,36,0.00,,SKC,0.00,VWS V14.01,2013-01-05 21:43:00,
2013-01-05 14:44:00,37.7,13.2,30.57,ENE,77,9.0,9.0,36,0.00,,SKC,0.00,VWS V14.01,2013-01-05 21:44:00,
2013-01-05 14:45:00,37.7,13.2,30.58,East,89,10.0,10.0,36,0.00,,SKC,0.00,VWS V14.01,2013-01-05 21:45:00,
2013-01-05 14:46:00,37.7,13.2,30.57,East,81,9.0,12.0,36,0.00,,SKC,0.00,VWS V14.01,2013-01-05 21:46:00,
2013-01-05 14:47:00,37.8,12.6,30.57,East,87,6.0,13.0,35,0.00,,SKC,0.00,VWS V14.01,2013-01-05 21:47:00,
2013-01-05 14:48:00,37.8,12.6,30.57,ENE,74,5.0,10.0,35,0.00,,SKC,0.00,VWS V14.01,2013-01-05 21:48:00,
2013-01-05 14:49:00,37.8,12.6,30.58,East,89,7.0,10.0,35,0.00,,SKC,0.00,VWS V14.01,2013-01-05 21:49:00,
2013-01-05 14:50:00,37.8,12.6,30.57,ENE,72,10.0,10.0,35,0.00,,SKC,0.00,VWS V14.01,2013-01-05 21:50:00,
2013-01-05 14:51:00,37.8,12.6,30.57,East,94,6.0,10.0,35,0.00,,SKC,0.00,VWS V14.01,2013-01-05 21:51:00,
2013-01-05 14:52:00,37.8,12.6,30.57,East,85,6.0,7.0,35,0.00,,SKC,0.00,VWS V14.01,2013-01-05 21:52:00,
2013-01-05 14:53:00,37.8,12.6,30.58,East,84,13.0,13.0,35,0.00,,SKC,0.00,VWS V14.01,2013-01-05 21:53:00,
2013-01-05 14:54:00,37.7,12.5,30.57,East,100,9.0,13.0,35,0.00,,SKC,0.00,VWS V14.01,2013-01-05 21:54:00,
2013-01-05 14:55:00,37.6,12.4,30.58,East,101,6.0,12.0,35,0.00,,SKC,0.00,VWS V14.01,2013-01-05 21:55:00,
2013-01-05 14:56:00,37.5,11.7,30.58,East,98,7.0,10.0,34,0.00,,SKC,0.00,VWS V14.01,2013-01-05 21:56:00,
2013-01-05 14:57:00,37.4,12.3,30.58,ESE,106,6.0,11.0,35,0.00,,SKC,0.00,VWS V14.01,2013-01-05 21:57:00,
2013-01-05 14:58:00,37.3,12.2,30.57,ESE,104,6.0,11.0,35,0.00,,SKC,0.00,VWS V14.01,2013-01-05 21:58:00,
2013-01-05 14:59:00,37.2,12.1,30.58,East,100,5.0,10.0,35,0.00,,SKC,0.00,VWS V14.01,2013-01-05 21:59:00,
2013-01-05 15:00:00,37.1,12.0,30.58,East,93,7.0,10.0,35,0.00,,SKC,0.00,VWS V14.01,2013-01-05 22:00:00,
2013-01-05 15:01:00,37.0,11.9,30.58,ESE,105,5.0,10.0,35,0.00,,SKC,0.00,VWS V14.01,2013-01-05 22:01:00,
2013-01-05 15:02:00,36.9,11.8,30.58,East,99,5.0,8.0,35,0.00,,SKC,0.00,VWS V14.01,2013-01-05 22:02:00,
2013-01-05 15:03:00,36.8,11.7,30.58,East,88,4.0,6.0,35,0.00,,SKC,0.00,VWS V14.01,2013-01-05 22:03:00,
2013-01-05 15:04:00,36.8,11.7,30.58,East,84,7.0,7.0,35,0.00,,SKC,0.00,VWS V14.01,2013-01-05 22:04:00,
2013-01-05 15:05:00,36.9,11.8,30.58,East,98,4.0,9.0,35,0.00,,SKC,0.00,VWS V14.01,2013-01-05 22:05:00,
2013-01-05 15:06:00,37.0,11.9,30.58,East,94,7.0,7.0,35,0.00,,SKC,0.00,VWS V14.01,2013-01-05 22:06:00,
2013-01-05 15:07:00,37.0,11.9,30.58,East,101,3.0,7.0,35,0.00,,SKC,0.00,VWS V14.01,2013-01-05 22:07:00,
2013-01-05 15:08:00,37.2,12.1,30.58,East,98,4.0,5.0,35,0.00,,SKC,0.00,VWS V14.01,2013-01-05 22:08:00,
2013-01-05 15:09:00,37.3,11.5,30.58,East,99,3.0,6.0,34,0.00,,SKC,0.00,VWS V14.01,2013-01-05 22:09:00,
2013-01-05 15:10:00,37.4,11.6,30.58,ESE,109,3.0,5.0,34,0.00,,SKC,0.00,VWS V14.01,2013-01-05 22:10:00,
2013-01-05 15:11:00,37.5,11.7,30.58,ESE,103,2.0,3.0,34,0.00,,SKC,0.00,VWS V14.01,2013-01-05 22:11:00,
2013-01-05 15:12:00,37.6,11.8,30.58,ESE,123,5.0,8.0,34,0.00,,SKC,0.00,VWS V14.01,2013-01-05 22:12:00,
2013-01-05 15:13:00,37.6,11.8,30.58,SE,130,3.0,9.0,34,0.00,,SKC,0.00,VWS V14.01,2013-01-05 22:13:00,
2013-01-05 15:14:00,37.7,11.9,30.58,SE,133,4.0,7.0,34,0.00,,SKC,0.00,VWS V14.01,2013-01-05 22:14:00,
2013-01-05 15:15:00,37.7,11.9,30.58,SE,134,6.0,7.0,34,0.00,,SKC,0.00,VWS V14.01,2013-01-05 22:15:00,
2013-01-05 15:16:00,37.6,11.8,30.58,SE,131,4.0,6.0,34,0.00,,SKC,0.00,VWS V14.01,2013-01-05 22:16:00,
2013-01-05 15:17:00,37.6,11.8,30.58,SE,132,5.0,5.0,34,0.00,,SKC,0.00,VWS V14.01,2013-01-05 22:17:00,
2013-01-05 15:18:00,37.6,11.8,30.58,SE,132,7.0,9.0,34,0.00,,SKC,0.00,VWS V14.01,2013-01-05 22:18:00,
2013-01-05 15:19:00,37.7,11.9,30.58,SE,128,5.0,8.0,34,0.00,,SKC,0.00,VWS V14.01,2013-01-05 22:19:00,
2013-01-05 15:20:00,37.8,12.0,30.58,SE,138,6.0,6.0,34,0.00,,SKC,0.00,VWS V14.01,2013-01-05 22:20:00,
2013-01-05 15:21:00,38.0,12.1,30.59,SE,132,5.0,7.0,34,0.00,,SKC,0.00,VWS V14.01,2013-01-05 22:21:00,
2013-01-05 15:22:00,38.1,12.2,30.58,SE,139,5.0,7.0,34,0.00,,SKC,0.00,VWS V14.01,2013-01-05 22:22:00,
2013-01-05 15:23:00,38.3,12.4,30.58,SE,139,4.0,6.0,34,0.00,,SKC,0.00,VWS V14.01,2013-01-05 22:23:00,
2013-01-05 15:24:00,38.5,11.9,30.58,SE,138,6.0,6.0,33,0.00,,SKC,0.00,VWS V14.01,2013-01-05 22:24:00,
2013-01-05 15:25:00,38.7,12.1,30.58,ESE,104,3.0,6.0,33,0.00,,SKC,0.00,VWS V14.01,2013-01-05 22:25:00,
2013-01-05 15:26:00,38.8,12.2,30.58,ESE,118,4.0,7.0,33,0.00,,SKC,0.00,VWS V14.01,2013-01-05 22:26:00,
2013-01-05 15:27:00,38.8,12.2,30.58,SE,126,6.0,10.0,33,0.00,,SKC,0.00,VWS V14.01,2013-01-05 22:27:00,
2013-01-05 15:28:00,38.6,12.0,30.58,SE,128,7.0,9.0,33,0.00,,SKC,0.00,VWS V14.01,2013-01-05 22:28:00,
2013-01-05 15:29:00,38.5,11.9,30.59,SE,140,3.0,7.0,33,0.00,,SKC,0.00,VWS V14.01,2013-01-05 22:29:00,
2013-01-05 15:30:00,38.4,11.8,30.59,SE,142,6.0,6.0,33,0.00,,SKC,0.00,VWS V14.01,2013-01-05 22:30:00,
2013-01-05 15:31:00,38.3,11.7,30.59,SE,138,4.0,6.0,33,0.00,,SKC,0.00,VWS V14.01,2013-01-05 22:31:00,
2013-01-05 15:32:00,38.2,11.6,30.59,SE,138,6.0,6.0,33,0.00,,SKC,0.00,VWS V14.01,2013-01-05 22:32:00,
2013-01-05 15:33:00,37.9,11.4,30.59,SE,134,4.0,7.0,33,0.00,,SKC,0.00,VWS V14.01,2013-01-05 22:33:00,
2013-01-05 15:34:00,37.6,11.1,30.59,SE,128,5.0,5.0,33,0.00,,SKC,0.00,VWS V14.01,2013-01-05 22:34:00,
2013-01-05 15:35:00,37.1,10.7,30.59,SE,136,3.0,9.0,33,0.00,,SKC,0.00,VWS V14.01,2013-01-05 22:35:00,
2013-01-05 15:36:00,36.8,11.1,30.59,SE,140,4.0,6.0,34,0.00,,SKC,0.00,VWS V14.01,2013-01-05 22:36:00,
2013-01-05 15:37:00,36.7,11.0,30.59,SE,138,4.0,7.0,34,0.00,,SKC,0.00,VWS V14.01,2013-01-05 22:37:00,
2013-01-05 15:38:00,36.7,11.6,30.59,SE,126,3.0,5.0,35,0.00,,SKC,0.00,VWS V14.01,2013-01-05 22:38:00,
2013-01-05 15:39:00,36.6,10.9,30.59,ESE,117,4.0,7.0,34,0.00,,SKC,0.00,VWS V14.01,2013-01-05 22:39:00,
2013-01-05 15:40:00,36.5,10.8,30.59,ESE,116,5.0,8.0,34,0.00,,SKC,0.00,VWS V14.01,2013-01-05 22:40:00,
2013-01-05 15:41:00,36.4,11.4,30.60,ESE,111,3.0,5.0,35,0.00,,SKC,0.00,VWS V14.01,2013-01-05 22:41:00,
2013-01-05 15:42:00,36.3,10.6,30.59,ESE,122,5.0,5.0,34,0.00,,SKC,0.00,VWS V14.01,2013-01-05 22:42:00,
2013-01-05 15:43:00,36.2,11.2,30.59,ESE,121,5.0,7.0,35,0.00,,SKC,0.00,VWS V14.01,2013-01-05 22:43:00,
2013-01-05 15:44:00,36.1,11.1,30.59,ESE,109,5.0,6.0,35,0.00,,SKC,0.00,VWS V14.01,2013-01-05 22:44:00,
2013-01-05 15:45:00,36.0,11.0,30.60,SE,126,3.0,6.0,35,0.00,,SKC,0.00,VWS V14.01,2013-01-05 22:45:00,
2013-01-05 15:46:00,35.8,10.8,30.59,East,100,3.0,3.0,35,0.00,,SKC,0.00,VWS V14.01,2013-01-05 22:46:00,
2013-01-05 15:47:00,35.7,10.8,30.60,ESE,115,10.0,10.0,35,0.00,,SKC,0.00,VWS V14.01,2013-01-05 22:47:00,
2013-01-05 15:48:00,35.6,10.7,30.60,ESE,122,3.0,10.0,35,0.00,,SKC,0.00,VWS V14.01,2013-01-05 22:48:00,
2013-01-05 15:49:00,35.4,11.1,30.60,ESE,108,4.0,10.0,36,0.00,,SKC,0.00,VWS V14.01,2013-01-05 22:49:00,
2013-01-05 15:50:00,35.2,10.9,30.60,ESE,105,2.0,4.0,36,0.00,,SKC,0.00,VWS V14.01,2013-01-05 22:50:00,
2013-01-05 15:51:00,35.2,10.9,30.60,ESE,111,3.0,3.0,36,0.00,,SKC,0.00,VWS V14.01,2013-01-05 22:51:00,
2013-01-05 15:52:00,35.1,10.9,30.60,ESE,103,3.0,4.0,36,0.00,,SKC,0.00,VWS V14.01,2013-01-05 22:52:00,
2013-01-05 15:53:00,35.0,10.8,30.60,ESE,113,8.0,8.0,36,0.00,,SKC,0.00,VWS V14.01,2013-01-05 22:53:00,
2013-01-05 15:54:00,35.0,10.8,30.60,ESE,111,1.0,8.0,36,0.00,,SKC,0.00,VWS V14.01,2013-01-05 22:54:00,
2013-01-05 15:55:00,34.9,10.7,30.60,SE,134,2.0,4.0,36,0.00,,SKC,0.00,VWS V14.01,2013-01-05 22:55:00,
2013-01-05 15:56:00,34.8,10.6,30.60,SE,139,2.0,4.0,36,0.00,,SKC,0.00,VWS V14.01,2013-01-05 22:56:00,
2013-01-05 15:57:00,34.8,10.6,30.60,SE,138,5.0,5.0,36,0.00,,SKC,0.00,VWS V14.01,2013-01-05 22:57:00,
2013-01-05 15:58:00,34.6,10.4,30.60,SE,139,0.0,5.0,36,0.00,,SKC,0.00,VWS V14.01,2013-01-05 22:58:00,
2013-01-05 15:59:00,34.5,10.3,30.60,SE,134,2.0,3.0,36,0.00,,SKC,0.00,VWS V14.01,2013-01-05 22:59:00,
2013-01-05 16:00:00,34.4,10.2,30.60,SE,132,2.0,4.0,36,0.00,,SKC,0.00,VWS V14.01,2013-01-05 23:00:00,
2013-01-05 16:01:00,34.4,10.2,30.60,SE,134,0.0,2.0,36,0.00,,SKC,0.00,VWS V14.01,2013-01-05 23:01:00,
2013-01-05 16:02:00,34.2,10.1,30.60,SE,138,1.0,1.0,36,0.00,,SKC,0.00,VWS V14.01,2013-01-05 23:02:00,
2013-01-05 16:03:00,33.8,9.7,30.61,SE,132,2.0,2.0,36,0.00,,SKC,0.00,VWS V14.01,2013-01-05 23:03:00,
2013-01-05 16:04:00,33.4,9.9,30.61,SE,131,2.0,2.0,37,0.00,,SKC,0.00,VWS V14.01,2013-01-05 23:04:00,
2013-01-05 16:05:00,33.2,9.8,30.61,SE,138,2.0,4.0,37,0.00,,SKC,0.00,VWS V14.01,2013-01-05 23:05:00,
2013-01-05 16:06:00,33.0,9.6,30.61,SE,132,0.0,3.0,37,0.00,,SKC,0.00,VWS V14.01,2013-01-05 23:06:00,
2013-01-05 16:07:00,32.6,9.8,30.61,SE,130,3.0,3.0,38,0.00,,SKC,0.00,VWS V14.01,2013-01-05 23:07:00,
2013-01-05 16:08:00,32.3,9.6,30.61,SE,134,0.0,3.0,38,0.00,,SKC,0.00,VWS V14.01,2013-01-05 23:08:00,
2013-01-05 16:09:00,32.0,9.3,30.61,SE,133,0.0,0.0,38,0.00,,SKC,0.00,VWS V14.01,2013-01-05 23:09:00,
2013-01-05 16:10:00,31.6,8.9,30.61,SE,135,0.0,1.0,38,0.00,,SKC,0.00,VWS V14.01,2013-01-05 23:10:00,
2013-01-05 16:11:00,31.1,9.1,30.61,SE,136,0.0,1.0,39,0.00,,SKC,0.00,VWS V14.01,2013-01-05 23:11:00,
2013-01-05 16:12:00,30.6,8.6,30.61,SE,134,0.0,0.0,39,0.00,,SKC,0.00,VWS V14.01,2013-01-05 23:12:00,
2013-01-05 16:13:00,30.1,8.7,30.61,SE,136,0.0,0.0,40,0.00,,SKC,0.00,VWS V14.01,2013-01-05 23:13:00,
2013-01-05 16:14:00,29.8,9.0,30.61,SE,134,0.0,1.0,41,0.00,,SKC,0.00,VWS V14.01,2013-01-05 23:14:00,
2013-01-05 16:15:00,29.4,8.6,30.61,SE,135,0.0,1.0,41,0.00,,SKC,0.00,VWS V14.01,2013-01-05 23:15:00,
2013-01-05 16:16:00,29.2,8.4,30.61,SE,134,2.0,2.0,41,0.00,,SKC,0.00,VWS V14.01,2013-01-05 23:16:00,
2013-01-05 16:17:00,28.9,8.7,30.61,SE,135,0.0,2.0,42,0.00,,SKC,0.00,VWS V14.01,2013-01-05 23:17:00,
2013-01-05 16:18:00,28.7,8.5,30.61,SE,136,1.0,2.0,42,0.00,,SKC,0.00,VWS V14.01,2013-01-05 23:18:00,
2013-01-05 16:19:00,28.5,8.3,30.61,SE,134,0.0,1.0,42,0.00,,SKC,0.00,VWS V14.01,2013-01-05 23:19:00,
2013-01-05 16:20:00,28.4,8.8,30.61,SE,134,0.0,0.0,43,0.00,,SKC,0.00,VWS V14.01,2013-01-05 23:20:00,
2013-01-05 16:21:00,28.2,8.6,30.61,SE,133,0.0,0.0,43,0.00,,SKC,0.00,VWS V14.01,2013-01-05 23:21:00,
2013-01-05 16:22:00,28.0,8.4,30.61,SE,136,0.0,0.0,43,0.00,,SKC,0.00,VWS V14.01,2013-01-05 23:22:00,
2013-01-05 16:23:00,27.8,8.2,30.61,SE,135,0.0,0.0,43,0.00,,SKC,0.00,VWS V14.01,2013-01-05 23:23:00,
2013-01-05 16:24:00,27.7,8.1,30.62,SE,136,0.0,0.0,43,0.00,,SKC,0.00,VWS V14.01,2013-01-05 23:24:00,
2013-01-05 16:25:00,27.6,8.6,30.61,SE,136,0.0,0.0,44,0.00,,SKC,0.00,VWS V14.01,2013-01-05 23:25:00,
2013-01-05 16:26:00,27.5,8.5,30.62,SE,136,0.0,0.0,44,0.00,,SKC,0.00,VWS V14.01,2013-01-05 23:26:00,
2013-01-05 16:27:00,27.4,8.4,30.62,SE,134,0.0,0.0,44,0.00,,SKC,0.00,VWS V14.01,2013-01-05 23:27:00,
2013-01-05 16:28:00,27.3,8.3,30.62,SE,139,0.0,0.0,44,0.00,,SKC,0.00,VWS V14.01,2013-01-05 23:28:00,
2013-01-05 16:29:00,27.2,8.2,30.62,SE,134,0.0,1.0,44,0.00,,SKC,0.00,VWS V14.01,2013-01-05 23:29:00,
2013-01-05 16:30:00,27.2,8.2,30.62,SE,137,2.0,2.0,44,0.00,,SKC,0.00,VWS V14.01,2013-01-05 23:30:00,
2013-01-05 16:31:00,27.2,8.7,30.62,SE,137,1.0,2.0,45,0.00,,SKC,0.00,VWS V14.01,2013-01-05 23:31:00,
2013-01-05 16:32:00,27.2,8.7,30.62,SE,138,1.0,2.0,45,0.00,,SKC,0.00,VWS V14.01,2013-01-05 23:32:00,
2013-01-05 16:33:00,27.1,8.6,30.62,SE,135,2.0,2.0,45,0.00,,SKC,0.00,VWS V14.01,2013-01-05 23:33:00,
2013-01-05 16:34:00,27.1,8.6,30.62,SE,135,1.0,2.0,45,0.00,,SKC,0.00,VWS V14.01,2013-01-05 23:34:00,
2013-01-05 16:35:00,27.0,8.5,30.62,SE,138,0.0,1.0,45,0.00,,SKC,0.00,VWS V14.01,2013-01-05 23:35:00,
2013-01-05 16:36:00,27.0,8.5,30.62,SE,134,2.0,2.0,45,0.00,,SKC,0.00,VWS V14.01,2013-01-05 23:36:00,
2013-01-05 16:37:00,26.9,8.4,30.62,SE,136,2.0,3.0,45,0.00,,SKC,0.00,VWS V14.01,2013-01-05 23:37:00,
2013-01-05 16:38:00,26.9,8.4,30.62,SE,138,0.0,2.0,45,0.00,,SKC,0.00,VWS V14.01,2013-01-05 23:38:00,
2013-01-05 16:39:00,26.8,8.3,30.62,SE,134,0.0,0.0,45,0.00,,SKC,0.00,VWS V14.01,2013-01-05 23:39:00,
2013-01-05 16:40:00,26.7,8.7,30.62,SE,132,0.0,0.0,46,0.00,,SKC,0.00,VWS V14.01,2013-01-05 23:40:00,
2013-01-05 16:41:00,26.6,8.6,30.62,SE,135,1.0,1.0,46,0.00,,SKC,0.00,VWS V14.01,2013-01-05 23:41:00,
2013-01-05 16:42:00,26.5,8.5,30.62,SE,136,1.0,1.0,46,0.00,,SKC,0.00,VWS V14.01,2013-01-05 23:42:00,
2013-01-05 16:43:00,26.4,8.4,30.62,SE,139,0.0,2.0,46,0.00,,SKC,0.00,VWS V14.01,2013-01-05 23:43:00,
2013-01-05 16:44:00,26.3,8.4,30.62,SE,140,0.0,0.0,46,0.00,,SKC,0.00,VWS V14.01,2013-01-05 23:44:00,
2013-01-05 16:45:00,26.2,8.3,30.62,SE,130,0.0,0.0,46,0.00,,SKC,0.00,VWS V14.01,2013-01-05 23:45:00,
2013-01-05 16:46:00,26.1,8.2,30.62,SE,132,0.0,0.0,46,0.00,,SKC,0.00,VWS V14.01,2013-01-05 23:46:00,
2013-01-05 16:47:00,26.0,8.6,30.62,SE,131,0.0,1.0,47,0.00,,SKC,0.00,VWS V14.01,2013-01-05 23:47:00,
2013-01-05 16:48:00,25.9,8.5,30.62,SE,131,1.0,2.0,47,0.00,,SKC,0.00,VWS V14.01,2013-01-05 23:48:00,
2013-01-05 16:49:00,25.8,8.4,30.62,SE,138,0.0,2.0,47,0.00,,SKC,0.00,VWS V14.01,2013-01-05 23:49:00,
2013-01-05 16:50:00,25.7,8.3,30.62,SE,131,0.0,1.0,47,0.00,,SKC,0.00,VWS V14.01,2013-01-05 23:50:00,
2013-01-05 16:51:00,25.7,8.7,30.62,SE,140,0.0,0.0,48,0.00,,SKC,0.00,VWS V14.01,2013-01-05 23:51:00,
2013-01-05 16:52:00,25.6,8.6,30.63,SE,138,0.0,0.0,48,0.00,,SKC,0.00,VWS V14.01,2013-01-05 23:52:00,
2013-01-05 16:53:00,25.5,8.6,30.63,SE,131,0.0,0.0,48,0.00,,SKC,0.00,VWS V14.01,2013-01-05 23:53:00,
2013-01-05 16:54:00,25.4,8.5,30.62,SE,130,2.0,3.0,48,0.00,,SKC,0.00,VWS V14.01,2013-01-05 23:54:00,
2013-01-05 16:55:00,25.3,8.4,30.63,SE,136,2.0,3.0,48,0.00,,SKC,0.00,VWS V14.01,2013-01-05 23:55:00,
2013-01-05 16:56:00,25.2,8.3,30.63,SE,135,0.0,2.0,48,0.00,,SKC,0.00,VWS V14.01,2013-01-05 23:56:00,
2013-01-05 16:57:00,25.2,8.3,30.62,SE,135,0.0,1.0,48,0.00,,SKC,0.00,VWS V14.01,2013-01-05 23:57:00,
2013-01-05 16:58:00,25.1,8.6,30.63,SE,133,0.0,1.0,49,0.00,,SKC,0.00,VWS V14.01,2013-01-05 23:58:00,
2013-01-05 16:59:00,25.0,8.6,30.63,SE,136,0.0,0.0,49,0.00,,SKC,0.00,VWS V14.01,2013-01-05 23:59:00,
2013-01-05 17:00:00,24.9,8.0,30.63,SE,136,0.0,0.0,48,0.00,,SKC,0.00,VWS V14.01,2013-01-06 00:00:00,
2013-01-05 17:01:00,24.9,8.0,30.63,SE,132,0.0,1.0,48,0.00,,SKC,0.00,VWS V14.01,2013-01-06 00:01:00,
2013-01-05 17:02:00,24.8,8.4,30.63,SE,135,0.0,0.0,49,0.00,,SKC,0.00,VWS V14.01,2013-01-06 00:02:00,
2013-01-05 17:03:00,24.7,8.3,30.63,SE,132,0.0,0.0,49,0.00,,SKC,0.00,VWS V14.01,2013-01-06 00:03:00,
2013-01-05 17:04:00,24.7,8.3,30.63,SE,132,0.0,0.0,49,0.00,,SKC,0.00,VWS V14.01,2013-01-06 00:04:00,
2013-01-05 17:05:00,24.6,8.6,30.63,SE,133,0.0,0.0,50,0.00,,SKC,0.00,VWS V14.01,2013-01-06 00:05:00,
2013-01-05 17:06:00,24.5,8.1,30.63,SE,136,0.0,1.0,49,0.00,,SKC,0.00,VWS V14.01,2013-01-06 00:06:00,
2013-01-05 17:07:00,24.5,8.5,30.63,SE,143,1.0,1.0,50,0.00,,SKC,0.00,VWS V14.01,2013-01-06 00:07:00,
2013-01-05 17:08:00,24.4,8.4,30.63,SE,134,0.0,1.0,50,0.00,,SKC,0.00,VWS V14.01,2013-01-06 00:08:00,
2013-01-05 17:09:00,24.4,8.4,30.63,ESE,106,3.0,3.0,50,0.00,,SKC,0.00,VWS V14.01,2013-01-06 00:09:00,
2013-01-05 17:10:00,24.4,8.4,30.63,East,101,1.0,3.0,50,0.00,,SKC,0.00,VWS V14.01,2013-01-06 00:10:00,
2013-01-05 17:11:00,24.4,8.4,30.63,ESE,105,0.0,1.0,50,0.00,,SKC,0.00,VWS V14.01,2013-01-06 00:11:00,
2013-01-05 17:12:00,24.3,7.9,30.63,ESE,104,0.0,0.0,49,0.00,,SKC,0.00,VWS V14.01,2013-01-06 00:12:00,
2013-01-05 17:13:00,24.3,7.9,30.63,ESE,107,1.0,1.0,49,0.00,,SKC,0.00,VWS V14.01,2013-01-06 00:13:00,
2013-01-05 17:14:00,24.3,8.4,30.63,ESE,103,2.0,3.0,50,0.00,,SKC,0.00,VWS V14.01,2013-01-06 00:14:00,
2013-01-05 17:15:00,24.2,8.3,30.64,East,99,1.0,3.0,50,0.00,,SKC,0.00,VWS V14.01,2013-01-06 00:15:00,
2013-01-05 17:16:00,24.2,8.3,30.64,ESE,102,0.0,2.0,50,0.00,,SKC,0.00,VWS V14.01,2013-01-06 00:16:00,
2013-01-05 17:17:00,24.2,8.3,30.64,ESE,103,0.0,0.0,50,0.00,,SKC,0.00,VWS V14.01,2013-01-06 00:17:00,
2013-01-05 17:18:00,24.1,8.2,30.63,ESE,105,0.0,2.0,50,0.00,,SKC,0.00,VWS V14.01,2013-01-06 00:18:00,
2013-01-05 17:19:00,24.1,8.2,30.64,ESE,103,1.0,2.0,50,0.00,,SKC,0.00,VWS V14.01,2013-01-06 00:19:00,
2013-01-05 17:20:00,24.0,8.5,30.64,ESE,105,0.0,1.0,51,0.00,,SKC,0.00,VWS V14.01,2013-01-06 00:20:00,
2013-01-05 17:21:00,24.0,8.5,30.64,East,101,0.0,0.0,51,0.00,,SKC,0.00,VWS V14.01,2013-01-06 00:21:00,
2013-01-05 17:22:00,24.0,8.5,30.64,ESE,105,0.0,1.0,51,0.00,,SKC,0.00,VWS V14.01,2013-01-06 00:22:00,
2013-01-05 17:23:00,23.9,8.9,30.64,ESE,102,5.0,9.0,52,0.00,,SKC,0.00,VWS V14.01,2013-01-06 00:23:00,
2013-01-05 17:24:00,23.9,8.4,30.64,NE,44,1.0,5.0,51,0.00,,SKC,0.00,VWS V14.01,2013-01-06 00:24:00,
2013-01-05 17:25:00,23.9,8.4,30.64,NE,49,0.0,2.0,51,0.00,,SKC,0.00,VWS V14.01,2013-01-06 00:25:00,
2013-01-05 17:26:00,23.8,8.3,30.64,NE,46,0.0,0.0,51,0.00,,SKC,0.00,VWS V14.01,2013-01-06 00:26:00,
2013-01-05 17:27:00,23.8,8.3,30.64,NE,45,0.0,0.0,51,0.00,,SKC,0.00,VWS V14.01,2013-01-06 00:27:00,
2013-01-05 17:28:00,23.7,8.2,30.64,NE,50,3.0,3.0,51,0.00,,SKC,0.00,VWS V14.01,2013-01-06 00:28:00,
2013-01-05 17:29:00,23.6,8.6,30.64,NE,51,0.0,3.0,52,0.00,,SKC,0.00,VWS V14.01,2013-01-06 00:29:00,
2013-01-05 17:30:00,23.6,8.6,30.64,NE,50,0.0,1.0,52,0.00,,SKC,0.00,VWS V14.01,2013-01-06 00:30:00,
2013-01-05 17:31:00,23.6,8.6,30.64,NE,53,0.0,2.0,52,0.00,,SKC,0.00,VWS V14.01,2013-01-06 00:31:00,
2013-01-05 17:32:00,23.5,8.5,30.64,NE,49,0.0,1.0,52,0.00,,SKC,0.00,VWS V14.01,2013-01-06 00:32:00,
2013-01-05 17:33:00,23.5,8.1,30.64,NE,53,1.0,2.0,51,0.00,,SKC,0.00,VWS V14.01,2013-01-06 00:33:00,
2013-01-05 17:34:00,23.4,8.4,30.64,NE,49,1.0,2.0,52,0.00,,SKC,0.00,VWS V14.01,2013-01-06 00:34:00,
2013-01-05 17:35:00,23.4,8.4,30.65,NE,54,1.0,1.0,52,0.00,,SKC,0.00,VWS V14.01,2013-01-06 00:35:00,
2013-01-05 17:36:00,23.4,8.4,30.64,NE,53,0.0,1.0,52,0.00,,SKC,0.00,VWS V14.01,2013-01-06 00:36:00,
2013-01-05 17:37:00,23.4,8.4,30.64,NE,55,0.0,0.0,52,0.00,,SKC,0.00,VWS V14.01,2013-01-06 00:37:00,
2013-01-05 17:38:00,23.4,8.4,30.64,NE,53,0.0,1.0,52,0.00,,SKC,0.00,VWS V14.01,2013-01-06 00:38:00,
2013-01-05 17:39:00,23.4,8.4,30.64,ENE,57,1.0,2.0,52,0.00,,SKC,0.00,VWS V14.01,2013-01-06 00:39:00,
2013-01-05 17:40:00,23.4,8.8,30.64,NE,50,0.0,1.0,53,0.00,,SKC,0.00,VWS V14.01,2013-01-06 00:40:00,
2013-01-05 17:41:00,23.4,8.4,30.64,NE,55,0.0,0.0,52,0.00,,SKC,0.00,VWS V14.01,2013-01-06 00:41:00,
2013-01-05 17:42:00,23.4,8.4,30.64,NE,51,0.0,0.0,52,0.00,,SKC,0.00,VWS V14.01,2013-01-06 00:42:00,
2013-01-05 17:43:00,23.4,8.8,30.64,NE,55,1.0,2.0,53,0.00,,SKC,0.00,VWS V14.01,2013-01-06 00:43:00,
2013-01-05 17:44:00,23.4,8.8,30.64,NE,53,0.0,1.0,53,0.00,,SKC,0.00,VWS V14.01,2013-01-06 00:44:00,
2013-01-05 17:45:00,23.4,8.4,30.65,NE,53,0.0,0.0,52,0.00,,SKC,0.00,VWS V14.01,2013-01-06 00:45:00,
2013-01-05 17:46:00,23.4,8.4,30.65,NE,55,0.0,0.0,52,0.00,,SKC,0.00,VWS V14.01,2013-01-06 00:46:00,
2013-01-05 17:47:00,23.3,7.4,30.64,NE,53,0.0,1.0,50,0.00,,SKC,0.00,VWS V14.01,2013-01-06 00:47:00,
2013-01-05 17:48:00,23.3,7.4,30.65,East,86,1.0,4.0,50,0.00,,SKC,0.00,VWS V14.01,2013-01-06 00:48:00,
2013-01-05 17:49:00,23.3,7.4,30.64,East,84,1.0,1.0,50,0.00,,SKC,0.00,VWS V14.01,2013-01-06 00:49:00,
2013-01-05 17:50:00,23.3,7.0,30.65,East,94,0.0,1.0,49,0.00,,SKC,0.00,VWS V14.01,2013-01-06 00:50:00,
2013-01-05 17:51:00,23.3,7.0,30.65,East,84,0.0,2.0,49,0.00,,SKC,0.00,VWS V14.01,2013-01-06 00:51:00,
2013-01-05 17:52:00,23.3,7.0,30.64,East,88,0.0,1.0,49,0.00,,SKC,0.00,VWS V14.01,2013-01-06 00:52:00,
2013-01-05 17:53:00,23.3,7.0,30.64,East,86,0.0,0.0,49,0.00,,SKC,0.00,VWS V14.01,2013-01-06 00:53:00,
2013-01-05 17:54:00,23.3,7.0,30.64,East,88,0.0,1.0,49,0.00,,SKC,0.00,VWS V14.01,2013-01-06 00:54:00,
2013-01-05 17:55:00,23.3,7.0,30.64,East,88,0.0,0.0,49,0.00,,SKC,0.00,VWS V14.01,2013-01-06 00:55:00,
2013-01-05 17:56:00,23.4,6.6,30.64,East,86,0.0,1.0,48,0.00,,SKC,0.00,VWS V14.01,2013-01-06 00:56:00,
2013-01-05 17:57:00,23.5,6.2,30.64,North,360,1.0,1.0,47,0.00,,SKC,0.00,VWS V14.01,2013-01-06 00:57:00,
2013-01-05 17:58:00,23.6,6.3,30.64,East,88,0.0,1.0,47,0.00,,SKC,0.00,VWS V14.01,2013-01-06 00:58:00,
2013-01-05 17:59:00,23.7,6.0,30.64,East,90,0.0,0.0,46,0.00,,SKC,0.00,VWS V14.01,2013-01-06 00:59:00,
2013-01-05 18:00:00,23.8,5.6,30.64,East,84,2.0,2.0,45,0.00,,SKC,0.00,VWS V14.01,2013-01-06 01:00:00,
2013-01-05 18:01:00,23.9,5.7,30.64,East,86,0.0,3.0,45,0.00,,SKC,0.00,VWS V14.01,2013-01-06 01:01:00,
2013-01-05 18:02:00,24.0,5.3,30.64,East,83,0.0,0.0,44,0.00,,SKC,0.00,VWS V14.01,2013-01-06 01:02:00,
2013-01-05 18:03:00,24.1,5.4,30.64,South,169,10.0,10.0,44,0.00,,SKC,0.00,VWS V14.01,2013-01-06 01:03:00,
2013-01-05 18:04:00,24.3,4.5,30.64,North,360,9.0,13.0,42,0.00,,SKC,0.00,VWS V14.01,2013-01-06 01:04:00,
2013-01-05 18:05:00,24.4,3.6,30.64,SSW,205,2.0,9.0,40,0.00,,SKC,0.00,VWS V14.01,2013-01-06 01:05:00,
2013-01-05 18:06:00,24.6,3.7,30.64,SSW,209,4.0,5.0,40,0.00,,SKC,0.00,VWS V14.01,2013-01-06 01:06:00,
2013-01-05 18:07:00,24.9,4.0,30.64,SSW,209,2.0,5.0,40,0.00,,SKC,0.00,VWS V14.01,2013-01-06 01:07:00,
2013-01-05 18:08:00,25.1,4.2,30.64,SSW,211,0.0,2.0,40,0.00,,SKC,0.00,VWS V14.01,2013-01-06 01:08:00,
2013-01-05 18:09:00,25.3,4.4,30.64,SW,214,3.0,4.0,40,0.00,,SKC,0.00,VWS V14.01,2013-01-06 01:09:00,
2013-01-05 18:10:00,25.5,4.0,30.64,North,360,12.0,14.0,39,0.00,,SKC,0.00,VWS V14.01,2013-01-06 01:10:00,
2013-01-05 18:11:00,25.7,3.0,30.64,North,360,5.0,12.0,37,0.00,,SKC,0.00,VWS V14.01,2013-01-06 01:11:00,
2013-01-05 18:12:00,26.0,3.3,30.64,WNW,293,6.0,6.0,37,0.00,,SKC,0.00,VWS V14.01,2013-01-06 01:12:00,
2013-01-05 18:13:00,26.2,2.9,30.64,WNW,288,6.0,6.0,36,0.00,,SKC,0.00,VWS V14.01,2013-01-06 01:13:00,
2013-01-05 18:14:00,26.5,3.2,30.64,WNW,297,1.0,6.0,36,0.00,,SKC,0.00,VWS V14.01,2013-01-06 01:14:00,
2013-01-05 18:15:00,26.7,3.3,30.64,WNW,293,0.0,2.0,36,0.00,,SKC,0.00,VWS V14.01,2013-01-06 01:15:00,
2013-01-05 18:16:00,26.9,4.7,30.64,WNW,289,0.0,0.0,38,0.00,,SKC,0.00,VWS V14.01,2013-01-06 01:16:00,
2013-01-05 18:17:00,27.0,5.3,30.64,North,360,1.0,1.0,39,0.00,,SKC,0.00,VWS V14.01,2013-01-06 01:17:00,
2013-01-05 18:18:00,27.0,5.3,30.64,WNW,292,1.0,1.0,39,0.00,,SKC,0.00,VWS V14.01,2013-01-06 01:18:00,
2013-01-05 18:19:00,27.1,4.9,30.64,WNW,292,0.0,3.0,38,0.00,,SKC,0.00,VWS V14.01,2013-01-06 01:19:00,
2013-01-05 18:20:00,27.1,4.9,30.64,WNW,292,5.0,6.0,38,0.00,,SKC,0.00,VWS V14.01,2013-01-06 01:20:00,
2013-01-05 18:21:00,27.1,4.9,30.64,WNW,292,1.0,5.0,38,0.00,,SKC,0.00,VWS V14.01,2013-01-06 01:21:00,
2013-01-05 18:22:00,27.1,4.3,30.64,WNW,292,1.0,2.0,37,0.00,,SKC,0.00,VWS V14.01,2013-01-06 01:22:00,
2013-01-05 18:23:00,27.1,4.3,30.64,WNW,292,6.0,6.0,37,0.00,,SKC,0.00,VWS V14.01,2013-01-06 01:23:00,
2013-01-05 18:24:00,27.1,3.7,30.64,North,360,3.0,14.0,36,0.00,,SKC,0.00,VWS V14.01,2013-01-06 01:24:00,
2013-01-05 18:25:00,27.1,3.1,30.64,WNW,287,10.0,11.0,35,0.00,,SKC,0.00,VWS V14.01,2013-01-06 01:25:00,
2013-01-05 18:26:00,27.3,2.7,30.64,North,360,16.0,19.0,34,0.00,,SKC,0.00,VWS V14.01,2013-01-06 01:26:00,
2013-01-05 18:27:00,27.5,2.2,30.64,NW,307,6.0,16.0,33,0.00,,SKC,0.00,VWS V14.01,2013-01-06 01:27:00,
2013-01-05 18:28:00,27.8,1.8,30.64,NW,319,10.0,11.0,32,0.00,,SKC,0.00,VWS V14.01,2013-01-06 01:28:00,
2013-01-05 18:29:00,28.1,2.7,30.64,NW,316,7.0,12.0,33,0.00,,SKC,0.00,VWS V14.01,2013-01-06 01:29:00,
2013-01-05 18:30:00,28.3,2.2,30.64,NW,315,6.0,9.0,32,0.00,,SKC,0.00,VWS V14.01,2013-01-06 01:30:00,
2013-01-05 18:31:00,28.6,2.5,30.63,NW,312,5.0,13.0,32,0.00,,SKC,0.00,VWS V14.01,2013-01-06 01:31:00,
2013-01-05 18:32:00,28.9,2.1,30.64,North,360,4.0,5.0,31,0.00,,SKC,0.00,VWS V14.01,2013-01-06 01:32:00,
2013-01-05 18:33:00,29.1,2.2,30.64,NW,317,7.0,7.0,31,0.00,,SKC,0.00,VWS V14.01,2013-01-06 01:33:00,
2013-01-05 18:34:00,29.2,2.3,30.64,NW,319,4.0,7.0,31,0.00,,SKC,0.00,VWS V14.01,2013-01-06 01:34:00,
2013-01-05 18:35:00,29.4,1.8,30.63,North,360,7.0,7.0,30,0.00,,SKC,0.00,VWS V14.01,2013-01-06 01:35:00,
2013-01-05 18:36:00,29.5,2.6,30.64,NW,317,7.0,7.0,31,0.00,,SKC,0.00,VWS V14.01,2013-01-06 01:36:00,
2013-01-05 18:37:00,29.6,2.0,30.64,North,360,4.0,9.0,30,0.00,,SKC,0.00,VWS V14.01,2013-01-06 01:37:00,
2013-01-05 18:38:00,29.7,2.1,30.64,North,360,4.0,6.0,30,0.00,,SKC,0.00,VWS V14.01,2013-01-06 01:38:00,
2013-01-05 18:39:00,29.9,1.5,30.64,NW,314,7.0,10.0,29,0.00,,SKC,0.00,VWS V14.01,2013-01-06 01:39:00,
2013-01-05 18:40:00,30.0,1.6,30.64,NW,315,10.0,16.0,29,0.00,,SKC,0.00,VWS V14.01,2013-01-06 01:40:00,
2013-01-05 18:41:00,30.3,1.1,30.64,NW,306,1.0,11.0,28,0.00,,SKC,0.00,VWS V14.01,2013-01-06 01:41:00,
2013-01-05 18:42:00,30.5,2.0,30.64,NW,306,0.0,2.0,29,0.00,,SKC,0.00,VWS V14.01,2013-01-06 01:42:00,
2013-01-05 18:43:00,30.6,1.4,30.64,North,360,3.0,7.0,28,0.00,,SKC,0.00,VWS V14.01,2013-01-06 01:43:00,
2013-01-05 18:44:00,30.7,1.5,30.64,North,360,3.0,7.0,28,0.00,,SKC,0.00,VWS V14.01,2013-01-06 01:44:00,
2013-01-05 18:45:00,30.9,1.6,30.64,North,360,6.0,7.0,28,0.00,,SKC,0.00,VWS V14.01,2013-01-06 01:45:00,
2013-01-05 18:46:00,31.0,1.7,30.64,NW,313,7.0,9.0,28,0.00,,SKC,0.00,VWS V14.01,2013-01-06 01:46:00,
2013-01-05 18:47:00,31.0,1.7,30.64,WNW,302,2.0,7.0,28,0.00,,SKC,0.00,VWS V14.01,2013-01-06 01:47:00,
2013-01-05 18:48:00,31.1,1.8,30.63,North,360,1.0,3.0,28,0.00,,SKC,0.00,VWS V14.01,2013-01-06 01:48:00,
2013-01-05 18:49:00,31.1,1.8,30.63,NW,310,0.0,3.0,28,0.00,,SKC,0.00,VWS V14.01,2013-01-06 01:49:00,
2013-01-05 18:50:00,31.1,1.0,30.63,NW,315,11.0,11.0,27,0.00,,SKC,0.00,VWS V14.01,2013-01-06 01:50:00,
2013-01-05 18:51:00,31.2,1.1,30.63,NW,316,3.0,11.0,27,0.00,,SKC,0.00,VWS V14.01,2013-01-06 01:51:00,
2013-01-05 18:52:00,31.2,1.1,30.63,NW,312,5.0,7.0,27,0.00,,SKC,0.00,VWS V14.01,2013-01-06 01:52:00,
2013-01-05 18:53:00,31.2,1.1,30.63,North,360,5.0,6.0,27,0.00,,SKC,0.00,VWS V14.01,2013-01-06 01:53:00,
2013-01-05 18:54:00,31.3,0.4,30.63,NW,319,5.0,5.0,26,0.00,,SKC,0.00,VWS V14.01,2013-01-06 01:54:00,
2013-01-05 18:55:00,31.3,1.2,30.63,NW,316,0.0,5.0,27,0.00,,SKC,0.00,VWS V14.01,2013-01-06 01:55:00,
2013-01-05 18:56:00,31.4,0.5,30.63,NW,315,9.0,10.0,26,0.00,,SKC,0.00,VWS V14.01,2013-01-06 01:56:00,
2013-01-05 18:57:00,31.4,0.5,30.63,NW,312,1.0,9.0,26,0.00,,SKC,0.00,VWS V14.01,2013-01-06 01:57:00,
2013-01-05 18:58:00,31.5,0.6,30.63,NW,317,8.0,8.0,26,0.00,,SKC,0.00,VWS V14.01,2013-01-06 01:58:00,
2013-01-05 18:59:00,31.6,0.7,30.63,North,360,4.0,8.0,26,0.00,,SKC,0.00,VWS V14.01,2013-01-06 01:59:00,
2013-01-05 19:00:00,31.6,0.7,30.63,NW,321,3.0,4.0,26,0.00,,SKC,0.00,VWS V14.01,2013-01-06 02:00:00,
2013-01-05 19:01:00,31.7,0.8,30.64,NW,319,4.0,6.0,26,0.00,,SKC,0.00,VWS V14.01,2013-01-06 02:01:00,
2013-01-05 19:02:00,31.7,0.8,30.64,NW,319,6.0,6.0,26,0.00,,SKC,0.00,VWS V14.01,2013-01-06 02:02:00,
2013-01-05 19:03:00,31.8,0.0,30.64,NW,313,6.0,10.0,25,0.00,,SKC,0.00,VWS V14.01,2013-01-06 02:03:00,
2013-01-05 19:04:00,31.9,0.1,30.64,NW,325,4.0,8.0,25,0.00,,SKC,0.00,VWS V14.01,2013-01-06 02:04:00,
2013-01-05 19:05:00,32.0,0.2,30.64,WNW,296,9.0,14.0,25,0.00,,SKC,0.00,VWS V14.01,2013-01-06 02:05:00,
2013-01-05 19:06:00,32.1,0.3,30.64,NW,313,12.0,12.0,25,0.00,,SKC,0.00,VWS V14.01,2013-01-06 02:06:00,
2013-01-05 19:07:00,32.2,0.3,30.64,NW,320,6.0,12.0,25,0.00,,SKC,0.00,VWS V14.01,2013-01-06 02:07:00,
2013-01-05 19:08:00,32.2,0.3,30.64,North,360,9.0,11.0,25,0.00,,SKC,0.00,VWS V14.01,2013-01-06 02:08:00,
2013-01-05 19:09:00,32.3,-0.4,30.64,North,360,13.0,13.0,24,0.00,,SKC,0.00,VWS V14.01,2013-01-06 02:09:00,
2013-01-05 19:10:00,32.4,-0.3,30.63,North,360,8.0,14.0,24,0.00,,SKC,0.00,VWS V14.01,2013-01-06 02:10:00,
2013-01-05 19:11:00,32.5,-0.3,30.64,NW,322,6.0,8.0,24,0.00,,SKC,0.00,VWS V14.01,2013-01-06 02:11:00,
2013-01-05 19:12:00,32.6,0.7,30.64,NW,321,2.0,7.0,25,0.00,,SKC,0.00,VWS V14.01,2013-01-06 02:12:00,
2013-01-05 19:13:00,32.6,-0.2,30.64,North,360,1.0,6.0,24,0.00,,SKC,0.00,VWS V14.01,2013-01-06 02:13:00,
2013-01-05 19:14:00,32.6,-0.2,30.64,NW,322,5.0,7.0,24,0.00,,SKC,0.00,VWS V14.01,2013-01-06 02:14:00,
2013-01-05 19:15:00,32.6,-0.2,30.64,NW,323,9.0,9.0,24,0.00,,SKC,0.00,VWS V14.01,2013-01-06 02:15:00,
2013-01-05 19:16:00,32.6,-0.2,30.64,NW,325,7.0,10.0,24,0.00,,SKC,0.00,VWS V14.01,2013-01-06 02:16:00,
2013-01-05 19:17:00,32.6,-0.2,30.64,North,360,8.0,8.0,24,0.00,,SKC,0.00,VWS V14.01,2013-01-06 02:17:00,
2013-01-05 19:18:00,32.6,-0.2,30.64,NNW,327,4.0,8.0,24,0.00,,SKC,0.00,VWS V14.01,2013-01-06 02:18:00,
2013-01-05 19:19:00,32.6,0.7,30.64,NW,315,9.0,15.0,25,0.00,,SKC,0.00,VWS V14.01,2013-01-06 02:19:00,
2013-01-05 19:20:00,32.5,-0.3,30.64,NW,304,6.0,10.0,24,0.00,,SKC,0.00,VWS V14.01,2013-01-06 02:20:00,
2013-01-05 19:21:00,32.5,-1.2,30.64,North,360,4.0,6.0,23,0.00,,SKC,0.00,VWS V14.01,2013-01-06 02:21:00,
2013-01-05 19:22:00,32.5,-1.2,30.64,NW,313,6.0,8.0,23,0.00,,SKC,0.00,VWS V14.01,2013-01-06 02:22:00,
2013-01-05 19:23:00,32.5,-1.2,30.64,NW,313,1.0,6.0,23,0.00,,SKC,0.00,VWS V14.01,2013-01-06 02:23:00,
2013-01-05 19:24:00,32.6,-1.1,30.64,NW,305,6.0,10.0,23,0.00,,SKC,0.00,VWS V14.01,2013-01-06 02:24:00,
2013-01-05 19:25:00,32.6,-1.1,30.64,NW,311,4.0,7.0,23,0.00,,SKC,0.00,VWS V14.01,2013-01-06 02:25:00,
2013-01-05 19:26:00,32.6,-1.1,30.64,North,360,5.0,6.0,23,0.00,,SKC,0.00,VWS V14.01,2013-01-06 02:26:00,
2013-01-05 19:27:00,32.7,-1.0,30.64,North,360,6.0,8.0,23,0.00,,SKC,0.00,VWS V14.01,2013-01-06 02:27:00,
2013-01-05 19:28:00,32.7,-1.0,30.64,North,360,5.0,9.0,23,0.00,,SKC,0.00,VWS V14.01,2013-01-06 02:28:00,
2013-01-05 19:29:00,32.8,-0.9,30.64,NW,306,4.0,5.0,23,0.00,,SKC,0.00,VWS V14.01,2013-01-06 02:29:00,
2013-01-05 19:30:00,32.8,-0.9,30.64,NW,324,6.0,9.0,23,0.00,,SKC,0.00,VWS V14.01,2013-01-06 02:30:00,
2013-01-05 19:31:00,32.9,-0.8,30.64,NW,316,5.0,7.0,23,0.00,,SKC,0.00,VWS V14.01,2013-01-06 02:31:00,
2013-01-05 19:32:00,32.9,-0.8,30.64,NW,319,4.0,5.0,23,0.00,,SKC,0.00,VWS V14.01,2013-01-06 02:32:00,
2013-01-05 19:33:00,33.0,-1.7,30.64,NW,319,4.0,5.0,22,0.00,,SKC,0.00,VWS V14.01,2013-01-06 02:33:00,
2013-01-05 19:34:00,33.0,-0.7,30.64,NW,320,2.0,4.0,23,0.00,,SKC,0.00,VWS V14.01,2013-01-06 02:34:00,
2013-01-05 19:35:00,33.1,-1.6,30.64,NW,321,5.0,7.0,22,0.00,,SKC,0.00,VWS V14.01,2013-01-06 02:35:00,
2013-01-05 19:36:00,33.1,-1.6,30.65,NW,316,10.0,10.0,22,0.00,,SKC,0.00,VWS V14.01,2013-01-06 02:36:00,
2013-01-05 19:37:00,33.2,-1.5,30.64,NW,315,6.0,10.0,22,0.00,,SKC,0.00,VWS V14.01,2013-01-06 02:37:00,
2013-01-05 19:38:00,33.2,-1.5,30.64,NW,322,2.0,9.0,22,0.00,,SKC,0.00,VWS V14.01,2013-01-06 02:38:00,
2013-01-05 19:39:00,33.2,-1.5,30.64,NW,317,1.0,3.0,22,0.00,,SKC,0.00,VWS V14.01,2013-01-06 02:39:00,
2013-01-05 19:40:00,33.1,-1.6,30.64,North,360,7.0,8.0,22,0.00,,SKC,0.00,VWS V14.01,2013-01-06 02:40:00,
2013-01-05 19:41:00,33.1,-1.6,30.65,NW,321,4.0,9.0,22,0.00,,SKC,0.00,VWS V14.01,2013-01-06 02:41:00,
2013-01-05 19:42:00,33.1,-1.6,30.64,NW,319,7.0,9.0,22,0.00,,SKC,0.00,VWS V14.01,2013-01-06 02:42:00,
2013-01-05 19:43:00,33.0,-0.7,30.64,NW,321,3.0,7.0,23,0.00,,SKC,0.00,VWS V14.01,2013-01-06 02:43:00,
2013-01-05 19:44:00,32.9,-1.8,30.64,North,360,0.0,3.0,22,0.00,,SKC,0.00,VWS V14.01,2013-01-06 02:44:00,
2013-01-05 19:45:00,32.8,-1.9,30.64,NW,319,0.0,0.0,22,0.00,,SKC,0.00,VWS V14.01,2013-01-06 02:45:00,
2013-01-05 19:46:00,32.8,-0.9,30.64,NW,322,0.0,0.0,23,0.00,,SKC,0.00,VWS V14.01,2013-01-06 02:46:00,
2013-01-05 19:47:00,32.7,-1.0,30.64,North,360,0.0,0.0,23,0.00,,SKC,0.00,VWS V14.01,2013-01-06 02:47:00,
2013-01-05 19:48:00,32.6,-1.1,30.65,North,360,0.0,0.0,23,0.00,,SKC,0.00,VWS V14.01,2013-01-06 02:48:00,
2013-01-05 19:49:00,32.5,-1.2,30.65,NW,319,0.0,1.0,23,0.00,,SKC,0.00,VWS V14.01,2013-01-06 02:49:00,
2013-01-05 19:50:00,32.4,-1.2,30.65,NW,319,0.0,1.0,23,0.00,,SKC,0.00,VWS V14.01,2013-01-06 02:50:00,
2013-01-05 19:51:00,32.3,-1.3,30.65,NW,319,0.0,0.0,23,0.00,,SKC,0.00,VWS V14.01,2013-01-06 02:51:00,
2013-01-05 19:52:00,32.2,-0.5,30.65,NW,317,0.0,0.0,24,0.00,,SKC,0.00,VWS V14.01,2013-01-06 02:52:00,
2013-01-05 19:53:00,32.1,-0.6,30.65,NW,318,0.0,0.0,24,0.00,,SKC,0.00,VWS V14.01,2013-01-06 02:53:00,
2013-01-05 19:54:00,32.0,-0.7,30.65,NW,317,0.0,0.0,24,0.00,,SKC,0.00,VWS V14.01,2013-01-06 02:54:00,
2013-01-05 19:59:00,31.5,-1.1,30.65,North,360,0.0,0.0,24,0.00,,SKC,0.00,VWS V14.01,2013-01-06 02:59:00,
2013-01-05 20:03:00,31.3,-1.3,30.65,NW,320,0.0,0.0,24,0.00,,SKC,0.00,VWS V14.01,2013-01-06 03:03:00,
2013-01-05 20:04:00,31.4,-1.2,30.65,North,0,0.0,0.0,24,0.00,,SKC,0.00,VWS V14.01,2013-01-06 03:04:00,
2013-01-05 20:05:00,31.3,-0.4,30.65,NW,319,0.0,0.0,25,0.00,,SKC,0.00,VWS V14.01,2013-01-06 03:05:00,
2013-01-05 20:06:00,31.2,-0.5,30.64,NNW,331,0.0,0.0,25,0.00,,SKC,0.00,VWS V14.01,2013-01-06 03:06:00,
2013-01-05 20:07:00,31.1,-0.6,30.64,NW,325,0.0,0.0,25,0.00,,SKC,0.00,VWS V14.01,2013-01-06 03:07:00,
2013-01-05 20:08:00,31.0,-0.7,30.64,North,360,0.0,0.0,25,0.00,,SKC,0.00,VWS V14.01,2013-01-06 03:08:00,
2013-01-05 20:09:00,30.9,-0.8,30.64,NW,318,0.0,0.0,25,0.00,,SKC,0.00,VWS V14.01,2013-01-06 03:09:00,
2013-01-05 20:10:00,30.8,-0.9,30.64,NW,318,0.0,0.0,25,0.00,,SKC,0.00,VWS V14.01,2013-01-06 03:10:00,
2013-01-05 20:11:00,30.6,-1.0,30.64,NW,308,0.0,0.0,25,0.00,,SKC,0.00,VWS V14.01,2013-01-06 03:11:00,
2013-01-05 20:12:00,30.6,-1.0,30.64,NW,317,0.0,0.0,25,0.00,,SKC,0.00,VWS V14.01,2013-01-06 03:12:00,
2013-01-05 20:13:00,30.5,-1.1,30.64,NW,321,0.0,0.0,25,0.00,,SKC,0.00,VWS V14.01,2013-01-06 03:13:00,
2013-01-05 20:14:00,30.6,-1.0,30.64,North,360,0.0,0.0,25,0.00,,SKC,0.00,VWS V14.01,2013-01-06 03:14:00,
2013-01-05 20:15:00,30.6,-1.0,30.64,NW,318,0.0,0.0,25,0.00,,SKC,0.00,VWS V14.01,2013-01-06 03:15:00,
2013-01-05 20:16:00,30.6,-1.0,30.64,NW,318,0.0,0.0,25,0.00,,SKC,0.00,VWS V14.01,2013-01-06 03:16:00,
2013-01-05 20:17:00,30.7,-0.9,30.64,North,360,0.0,0.0,25,0.00,,SKC,0.00,VWS V14.01,2013-01-06 03:17:00,
2013-01-05 20:18:00,30.7,-0.9,30.64,NW,321,0.0,0.0,25,0.00,,SKC,0.00,VWS V14.01,2013-01-06 03:18:00,
2013-01-05 20:19:00,30.7,-0.9,30.64,North,360,0.0,0.0,25,0.00,,SKC,0.00,VWS V14.01,2013-01-06 03:19:00,
2013-01-05 20:20:00,30.7,-0.9,30.65,NW,317,0.0,0.0,25,0.00,,SKC,0.00,VWS V14.01,2013-01-06 03:20:00,
2013-01-05 20:21:00,30.7,-0.9,30.65,NW,318,0.0,0.0,25,0.00,,SKC,0.00,VWS V14.01,2013-01-06 03:21:00,
2013-01-05 20:22:00,30.7,-0.9,30.65,NW,321,0.0,0.0,25,0.00,,SKC,0.00,VWS V14.01,2013-01-06 03:22:00,
2013-01-05 20:23:00,30.7,-0.9,30.65,NW,320,0.0,0.0,25,0.00,,SKC,0.00,VWS V14.01,2013-01-06 03:23:00,
2013-01-05 20:24:00,30.7,-0.9,30.65,NW,318,0.0,0.0,25,0.00,,SKC,0.00,VWS V14.01,2013-01-06 03:24:00,
2013-01-05 20:25:00,30.6,-1.0,30.64,NW,321,0.0,1.0,25,0.00,,SKC,0.00,VWS V14.01,2013-01-06 03:25:00,
2013-01-05 20:26:00,30.7,-0.9,30.64,North,360,0.0,0.0,25,0.00,,SKC,0.00,VWS V14.01,2013-01-06 03:26:00,
2013-01-05 20:27:00,30.7,-0.9,30.64,NW,318,0.0,0.0,25,0.00,,SKC,0.00,VWS V14.01,2013-01-06 03:27:00,
2013-01-05 20:36:00,31.2,-1.4,30.65,NW,317,4.0,5.0,24,0.00,,SKC,0.00,VWS V14.01,2013-01-06 03:36:00,
2013-01-05 20:41:00,30.9,-0.8,30.65,NNW,328,0.0,0.0,25,0.00,,SKC,0.00,VWS V14.01,2013-01-06 03:41:00,
2013-01-05 20:46:00,30.5,-1.1,30.65,North,360,0.0,0.0,25,0.00,,SKC,0.00,VWS V14.01,2013-01-06 03:46:00,
2013-01-05 20:52:00,30.3,-1.3,30.65,North,360,0.0,0.0,25,0.00,,SKC,0.00,VWS V14.01,2013-01-06 03:52:00,
2013-01-05 20:57:00,30.1,-1.5,30.65,NW,321,0.0,0.0,25,0.00,,SKC,0.00,VWS V14.01,2013-01-06 03:57:00,
2013-01-05 21:02:00,29.9,-0.8,30.65,NW,321,0.0,0.0,26,0.00,,SKC,0.00,VWS V14.01,2013-01-06 04:02:00,
2013-01-05 21:07:00,29.8,-0.9,30.65,NW,324,0.0,0.0,26,0.00,,SKC,0.00,VWS V14.01,2013-01-06 04:07:00,
2013-01-05 21:12:00,29.9,-1.6,30.65,NW,324,0.0,0.0,25,0.00,,SKC,0.00,VWS V14.01,2013-01-06 04:12:00,
2013-01-05 21:18:00,30.3,-2.2,30.65,NW,323,1.0,2.0,24,0.00,,SKC,0.00,VWS V14.01,2013-01-06 04:18:00,
2013-01-05 21:23:00,30.5,-2.0,30.65,NW,322,2.0,2.0,24,0.00,,SKC,0.00,VWS V14.01,2013-01-06 04:23:00,
2013-01-05 21:29:00,30.7,-2.7,30.65,North,360,2.0,2.0,23,0.00,,SKC,0.00,VWS V14.01,2013-01-06 04:29:00,
2013-01-05 21:35:00,30.7,-2.7,30.65,North,360,1.0,4.0,23,0.00,,SKC,0.00,VWS V14.01,2013-01-06 04:35:00,
2013-01-05 21:41:00,30.8,-3.5,30.65,NW,319,7.0,7.0,22,0.00,,SKC,0.00,VWS V14.01,2013-01-06 04:41:00,
2013-01-05 21:46:00,31.0,-3.4,30.65,NW,323,3.0,5.0,22,0.00,,SKC,0.00,VWS V14.01,2013-01-06 04:46:00,
2013-01-05 21:51:00,30.8,-2.6,30.65,NW,323,0.0,1.0,23,0.00,,SKC,0.00,VWS V14.01,2013-01-06 04:51:00,
2013-01-05 21:57:00,30.4,-3.0,30.65,NW,319,1.0,1.0,23,0.00,,SKC,0.00,VWS V14.01,2013-01-06 04:57:00,
2013-01-05 22:01:00,30.2,-3.1,30.65,NW,321,0.0,0.0,23,0.00,,SKC,0.00,VWS V14.01,2013-01-06 05:01:00,
2013-01-05 22:03:00,29.9,-3.4,30.66,NW,322,0.0,0.0,23,0.00,,SKC,0.00,VWS V14.01,2013-01-06 05:03:00,
2013-01-05 22:08:00,29.5,-4.7,30.65,NW,323,0.0,0.0,22,0.00,,SKC,0.00,VWS V14.01,2013-01-06 05:08:00,
2013-01-05 22:12:00,29.7,-4.5,30.65,NW,321,0.0,0.0,22,0.00,,SKC,0.00,VWS V14.01,2013-01-06 05:12:00,
2013-01-05 22:17:00,30.3,-4.0,30.65,NW,325,0.0,3.0,22,0.00,,SKC,0.00,VWS V14.01,2013-01-06 05:17:00,
2013-01-05 22:22:00,30.3,-4.0,30.65,North,360,0.0,1.0,22,0.00,,SKC,0.00,VWS V14.01,2013-01-06 05:22:00,
2013-01-05 22:27:00,30.1,-4.1,30.65,NW,321,4.0,4.0,22,0.00,,SKC,0.00,VWS V14.01,2013-01-06 05:27:00,
2013-01-05 22:32:00,30.0,-4.2,30.66,NW,321,0.0,2.0,22,0.00,,SKC,0.00,VWS V14.01,2013-01-06 05:32:00,
2013-01-05 22:38:00,29.6,-4.6,30.66,NW,321,0.0,0.0,22,0.00,,SKC,0.00,VWS V14.01,2013-01-06 05:38:00,
2013-01-05 22:44:00,29.1,-4.1,30.66,NW,319,0.0,0.0,23,0.00,,SKC,0.00,VWS V14.01,2013-01-06 05:44:00,
2013-01-05 22:50:00,29.2,-4.9,30.66,NW,317,0.0,1.0,22,0.00,,SKC,0.00,VWS V14.01,2013-01-06 05:50:00,
2013-01-05 22:55:00,29.2,-4.0,30.66,NW,325,0.0,0.0,23,0.00,,SKC,0.00,VWS V14.01,2013-01-06 05:55:00,
2013-01-05 23:01:00,29.2,-4.0,30.66,NW,319,0.0,2.0,23,0.00,,SKC,0.00,VWS V14.01,2013-01-06 06:01:00,
2013-01-05 23:06:00,29.0,-4.2,30.66,North,360,0.0,0.0,23,0.00,,SKC,0.00,VWS V14.01,2013-01-06 06:06:00,
2013-01-05 23:11:00,29.3,-4.8,30.66,NW,322,1.0,1.0,22,0.00,,SKC,0.00,VWS V14.01,2013-01-06 06:11:00,
2013-01-05 23:17:00,29.4,-4.7,30.66,NW,321,0.0,0.0,22,0.00,,SKC,0.00,VWS V14.01,2013-01-06 06:17:00,
2013-01-05 23:23:00,29.4,-4.7,30.65,NW,321,2.0,3.0,22,0.00,,SKC,0.00,VWS V14.01,2013-01-06 06:23:00,
2013-01-05 23:28:00,29.5,-4.7,30.65,NW,321,0.0,0.0,22,0.00,,SKC,0.00,VWS V14.01,2013-01-06 06:28:00,
2013-01-05 23:34:00,29.0,-4.2,30.65,NW,320,0.0,0.0,23,0.00,,SKC,0.00,VWS V14.01,2013-01-06 06:34:00,
2013-01-05 23:40:00,29.0,-5.1,30.65,NW,322,0.0,0.0,22,0.00,,SKC,0.00,VWS V14.01,2013-01-06 06:40:00,
2013-01-05 23:46:00,29.1,-5.0,30.64,North,360,0.0,0.0,22,0.00,,SKC,0.00,VWS V14.01,2013-01-06 06:46:00,
2013-01-05 23:51:00,29.2,-4.9,30.64,NW,323,0.0,0.0,22,0.00,,SKC,0.00,VWS V14.01,2013-01-06 06:51:00,
2013-01-05 23:56:00,29.2,-4.9,30.64,NW,319,0.0,0.0,22,0.00,,SKC,0.00,VWS V14.01,2013-01-06 06:56:00,